<?xml version="1.0" encoding="UTF-8" standalone="no" ?>
<gpx xmlns="http://www.topografix.com/GPX/1/1" xmlns:xsi="http://www.w3.org/2001/XMLSchema-instance" xsi:schemaLocation="http://www.topografix.com/GPX/1/1 http://www.topografix.com/GPX/1/1/gpx.xsd" version="1.1" creator="VisuGPX - https://www.visugpx.com">
  <metadata>
    <name>Ambiani</name>
  </metadata>
  <trk>
    <name><![CDATA[Ambiani_1]]></name>
    <trkseg>
      <trkpt lat="49.89697" lon="2.27171">
        <ele>23.5</ele>
        <time>2023-05-26T12:26:15Z</time>
      </trkpt>
      <trkpt lat="49.89696" lon="2.27171">
        <ele>23.5</ele>
        <time>2023-05-26T12:26:16Z</time>
      </trkpt>
      <trkpt lat="49.89695" lon="2.27172">
        <ele>23.5</ele>
        <time>2023-05-26T12:26:17Z</time>
      </trkpt>
      <trkpt lat="49.89694" lon="2.27173">
        <ele>23.5</ele>
        <time>2023-05-26T12:26:18Z</time>
      </trkpt>
      <trkpt lat="49.89693" lon="2.27173">
        <ele>23.5</ele>
        <time>2023-05-26T12:26:19Z</time>
      </trkpt>
      <trkpt lat="49.89693" lon="2.27173">
        <ele>23.5</ele>
        <time>2023-05-26T12:26:20Z</time>
      </trkpt>
      <trkpt lat="49.89693" lon="2.27173">
        <ele>23.5</ele>
        <time>2023-05-26T12:26:22Z</time>
      </trkpt>
      <trkpt lat="49.89693" lon="2.27173">
        <ele>23.5</ele>
        <time>2023-05-26T12:26:23Z</time>
      </trkpt>
      <trkpt lat="49.89693" lon="2.27173">
        <ele>23.5</ele>
        <time>2023-05-26T12:26:24Z</time>
      </trkpt>
      <trkpt lat="49.89693" lon="2.27173">
        <ele>23.5</ele>
        <time>2023-05-26T12:26:25Z</time>
      </trkpt>
      <trkpt lat="49.89693" lon="2.27173">
        <ele>23.5</ele>
        <time>2023-05-26T12:26:26Z</time>
      </trkpt>
      <trkpt lat="49.89693" lon="2.27173">
        <ele>23.5</ele>
        <time>2023-05-26T12:26:27Z</time>
      </trkpt>
      <trkpt lat="49.89693" lon="2.27173">
        <ele>23.5</ele>
        <time>2023-05-26T12:26:28Z</time>
      </trkpt>
      <trkpt lat="49.89693" lon="2.27173">
        <ele>23.5</ele>
        <time>2023-05-26T12:26:29Z</time>
      </trkpt>
      <trkpt lat="49.89691" lon="2.27168">
        <ele>23.5</ele>
        <time>2023-05-26T12:27:16Z</time>
      </trkpt>
      <trkpt lat="49.89691" lon="2.27167">
        <ele>23.5</ele>
        <time>2023-05-26T12:27:17Z</time>
      </trkpt>
      <trkpt lat="49.89692" lon="2.27165">
        <ele>23.6</ele>
        <time>2023-05-26T12:27:19Z</time>
      </trkpt>
      <trkpt lat="49.89692" lon="2.27163">
        <ele>23.6</ele>
        <time>2023-05-26T12:27:20Z</time>
      </trkpt>
      <trkpt lat="49.89693" lon="2.27161">
        <ele>23.6</ele>
        <time>2023-05-26T12:27:21Z</time>
      </trkpt>
      <trkpt lat="49.89694" lon="2.27159">
        <ele>23.6</ele>
        <time>2023-05-26T12:27:22Z</time>
      </trkpt>
      <trkpt lat="49.89695" lon="2.27157">
        <ele>23.6</ele>
        <time>2023-05-26T12:27:23Z</time>
      </trkpt>
      <trkpt lat="49.89696" lon="2.27155">
        <ele>23.6</ele>
        <time>2023-05-26T12:27:24Z</time>
      </trkpt>
      <trkpt lat="49.89698" lon="2.27152">
        <ele>23.7</ele>
        <time>2023-05-26T12:27:25Z</time>
      </trkpt>
      <trkpt lat="49.89699" lon="2.2715">
        <ele>23.7</ele>
        <time>2023-05-26T12:27:26Z</time>
      </trkpt>
      <trkpt lat="49.897" lon="2.27147">
        <ele>23.7</ele>
        <time>2023-05-26T12:27:28Z</time>
      </trkpt>
      <trkpt lat="49.89702" lon="2.27144">
        <ele>23.7</ele>
        <time>2023-05-26T12:27:30Z</time>
      </trkpt>
      <trkpt lat="49.89703" lon="2.27143">
        <ele>23.7</ele>
        <time>2023-05-26T12:27:31Z</time>
      </trkpt>
      <trkpt lat="49.89703" lon="2.27142">
        <ele>23.7</ele>
        <time>2023-05-26T12:27:33Z</time>
      </trkpt>
      <trkpt lat="49.89703" lon="2.27142">
        <ele>23.7</ele>
        <time>2023-05-26T12:27:34Z</time>
      </trkpt>
      <trkpt lat="49.89703" lon="2.27142">
        <ele>23.7</ele>
        <time>2023-05-26T12:27:35Z</time>
      </trkpt>
      <trkpt lat="49.89704" lon="2.27141">
        <ele>23.7</ele>
        <time>2023-05-26T12:27:36Z</time>
      </trkpt>
      <trkpt lat="49.89704" lon="2.27141">
        <ele>23.7</ele>
        <time>2023-05-26T12:27:37Z</time>
      </trkpt>
      <trkpt lat="49.89704" lon="2.27141">
        <ele>23.7</ele>
        <time>2023-05-26T12:27:39Z</time>
      </trkpt>
      <trkpt lat="49.89704" lon="2.2714">
        <ele>23.7</ele>
        <time>2023-05-26T12:27:40Z</time>
      </trkpt>
      <trkpt lat="49.89705" lon="2.2714">
        <ele>23.7</ele>
        <time>2023-05-26T12:27:41Z</time>
      </trkpt>
      <trkpt lat="49.89706" lon="2.27137">
        <ele>23.7</ele>
        <time>2023-05-26T12:27:43Z</time>
      </trkpt>
      <trkpt lat="49.89707" lon="2.27135">
        <ele>23.8</ele>
        <time>2023-05-26T12:27:45Z</time>
      </trkpt>
      <trkpt lat="49.89708" lon="2.27132">
        <ele>23.8</ele>
        <time>2023-05-26T12:27:46Z</time>
      </trkpt>
      <trkpt lat="49.89708" lon="2.2713">
        <ele>23.8</ele>
        <time>2023-05-26T12:27:47Z</time>
      </trkpt>
      <trkpt lat="49.89708" lon="2.27128">
        <ele>23.8</ele>
        <time>2023-05-26T12:27:48Z</time>
      </trkpt>
      <trkpt lat="49.89709" lon="2.27127">
        <ele>23.8</ele>
        <time>2023-05-26T12:27:49Z</time>
      </trkpt>
      <trkpt lat="49.89709" lon="2.27126">
        <ele>23.8</ele>
        <time>2023-05-26T12:27:50Z</time>
      </trkpt>
      <trkpt lat="49.8971" lon="2.27124">
        <ele>23.8</ele>
        <time>2023-05-26T12:27:52Z</time>
      </trkpt>
      <trkpt lat="49.8971" lon="2.27123">
        <ele>23.8</ele>
        <time>2023-05-26T12:27:53Z</time>
      </trkpt>
      <trkpt lat="49.89711" lon="2.27122">
        <ele>23.8</ele>
        <time>2023-05-26T12:27:54Z</time>
      </trkpt>
      <trkpt lat="49.89711" lon="2.2712">
        <ele>23.9</ele>
        <time>2023-05-26T12:27:55Z</time>
      </trkpt>
      <trkpt lat="49.89712" lon="2.27118">
        <ele>23.9</ele>
        <time>2023-05-26T12:27:56Z</time>
      </trkpt>
      <trkpt lat="49.89713" lon="2.27115">
        <ele>23.9</ele>
        <time>2023-05-26T12:27:57Z</time>
      </trkpt>
      <trkpt lat="49.89713" lon="2.27113">
        <ele>24</ele>
        <time>2023-05-26T12:27:59Z</time>
      </trkpt>
      <trkpt lat="49.89714" lon="2.27112">
        <ele>24</ele>
        <time>2023-05-26T12:28:00Z</time>
      </trkpt>
      <trkpt lat="49.89715" lon="2.27109">
        <ele>24</ele>
        <time>2023-05-26T12:28:02Z</time>
      </trkpt>
      <trkpt lat="49.89716" lon="2.27108">
        <ele>24</ele>
        <time>2023-05-26T12:28:03Z</time>
      </trkpt>
      <trkpt lat="49.89716" lon="2.27106">
        <ele>24</ele>
        <time>2023-05-26T12:28:04Z</time>
      </trkpt>
      <trkpt lat="49.89717" lon="2.27104">
        <ele>24.1</ele>
        <time>2023-05-26T12:28:05Z</time>
      </trkpt>
      <trkpt lat="49.89718" lon="2.27101">
        <ele>24.1</ele>
        <time>2023-05-26T12:28:07Z</time>
      </trkpt>
      <trkpt lat="49.89718" lon="2.271">
        <ele>24.1</ele>
        <time>2023-05-26T12:28:09Z</time>
      </trkpt>
      <trkpt lat="49.89718" lon="2.27099">
        <ele>24.1</ele>
        <time>2023-05-26T12:28:10Z</time>
      </trkpt>
      <trkpt lat="49.89717" lon="2.27098">
        <ele>24.1</ele>
        <time>2023-05-26T12:28:12Z</time>
      </trkpt>
      <trkpt lat="49.89717" lon="2.27098">
        <ele>24.1</ele>
        <time>2023-05-26T12:28:13Z</time>
      </trkpt>
      <trkpt lat="49.89716" lon="2.27098">
        <ele>24.1</ele>
        <time>2023-05-26T12:28:14Z</time>
      </trkpt>
      <trkpt lat="49.89716" lon="2.27098">
        <ele>24.1</ele>
        <time>2023-05-26T12:28:16Z</time>
      </trkpt>
      <trkpt lat="49.89716" lon="2.27098">
        <ele>24.1</ele>
        <time>2023-05-26T12:28:17Z</time>
      </trkpt>
      <trkpt lat="49.89716" lon="2.27099">
        <ele>24.1</ele>
        <time>2023-05-26T12:28:18Z</time>
      </trkpt>
      <trkpt lat="49.89716" lon="2.27099">
        <ele>24.1</ele>
        <time>2023-05-26T12:28:19Z</time>
      </trkpt>
      <trkpt lat="49.89716" lon="2.271">
        <ele>24.1</ele>
        <time>2023-05-26T12:28:21Z</time>
      </trkpt>
      <trkpt lat="49.89717" lon="2.271">
        <ele>24.1</ele>
        <time>2023-05-26T12:28:22Z</time>
      </trkpt>
      <trkpt lat="49.89717" lon="2.271">
        <ele>24.1</ele>
        <time>2023-05-26T12:28:23Z</time>
      </trkpt>
      <trkpt lat="49.89717" lon="2.27099">
        <ele>24.1</ele>
        <time>2023-05-26T12:28:24Z</time>
      </trkpt>
      <trkpt lat="49.89717" lon="2.27098">
        <ele>24.1</ele>
        <time>2023-05-26T12:28:25Z</time>
      </trkpt>
      <trkpt lat="49.89718" lon="2.27097">
        <ele>24.2</ele>
        <time>2023-05-26T12:28:26Z</time>
      </trkpt>
      <trkpt lat="49.89718" lon="2.27095">
        <ele>24.2</ele>
        <time>2023-05-26T12:28:27Z</time>
      </trkpt>
      <trkpt lat="49.89719" lon="2.27093">
        <ele>24.2</ele>
        <time>2023-05-26T12:28:29Z</time>
      </trkpt>
      <trkpt lat="49.89719" lon="2.27089">
        <ele>24.2</ele>
        <time>2023-05-26T12:28:30Z</time>
      </trkpt>
      <trkpt lat="49.8972" lon="2.27088">
        <ele>24.2</ele>
        <time>2023-05-26T12:28:31Z</time>
      </trkpt>
      <trkpt lat="49.8972" lon="2.27087">
        <ele>24.3</ele>
        <time>2023-05-26T12:28:32Z</time>
      </trkpt>
      <trkpt lat="49.89721" lon="2.27084">
        <ele>24.3</ele>
        <time>2023-05-26T12:28:33Z</time>
      </trkpt>
      <trkpt lat="49.89722" lon="2.27083">
        <ele>24.3</ele>
        <time>2023-05-26T12:28:35Z</time>
      </trkpt>
      <trkpt lat="49.89722" lon="2.27081">
        <ele>24.3</ele>
        <time>2023-05-26T12:28:36Z</time>
      </trkpt>
      <trkpt lat="49.89723" lon="2.2708">
        <ele>24.3</ele>
        <time>2023-05-26T12:28:37Z</time>
      </trkpt>
      <trkpt lat="49.89723" lon="2.27078">
        <ele>24.3</ele>
        <time>2023-05-26T12:28:38Z</time>
      </trkpt>
      <trkpt lat="49.89724" lon="2.27076">
        <ele>24.3</ele>
        <time>2023-05-26T12:28:39Z</time>
      </trkpt>
      <trkpt lat="49.89725" lon="2.27075">
        <ele>24.4</ele>
        <time>2023-05-26T12:28:40Z</time>
      </trkpt>
      <trkpt lat="49.89725" lon="2.27074">
        <ele>24.4</ele>
        <time>2023-05-26T12:28:42Z</time>
      </trkpt>
      <trkpt lat="49.89726" lon="2.27073">
        <ele>24.4</ele>
        <time>2023-05-26T12:28:43Z</time>
      </trkpt>
      <trkpt lat="49.89726" lon="2.27072">
        <ele>24.4</ele>
        <time>2023-05-26T12:28:44Z</time>
      </trkpt>
      <trkpt lat="49.89726" lon="2.2707">
        <ele>24.4</ele>
        <time>2023-05-26T12:28:45Z</time>
      </trkpt>
      <trkpt lat="49.89727" lon="2.27069">
        <ele>24.4</ele>
        <time>2023-05-26T12:28:46Z</time>
      </trkpt>
      <trkpt lat="49.89727" lon="2.27067">
        <ele>24.4</ele>
        <time>2023-05-26T12:28:48Z</time>
      </trkpt>
      <trkpt lat="49.89728" lon="2.27066">
        <ele>24.4</ele>
        <time>2023-05-26T12:28:49Z</time>
      </trkpt>
      <trkpt lat="49.89728" lon="2.27064">
        <ele>24.4</ele>
        <time>2023-05-26T12:28:50Z</time>
      </trkpt>
      <trkpt lat="49.89728" lon="2.2706">
        <ele>24.4</ele>
        <time>2023-05-26T12:28:51Z</time>
      </trkpt>
      <trkpt lat="49.89727" lon="2.27058">
        <ele>24.4</ele>
        <time>2023-05-26T12:28:52Z</time>
      </trkpt>
      <trkpt lat="49.89727" lon="2.27057">
        <ele>24.4</ele>
        <time>2023-05-26T12:28:54Z</time>
      </trkpt>
      <trkpt lat="49.89726" lon="2.27056">
        <ele>24.4</ele>
        <time>2023-05-26T12:28:55Z</time>
      </trkpt>
      <trkpt lat="49.89725" lon="2.27055">
        <ele>24.4</ele>
        <time>2023-05-26T12:28:56Z</time>
      </trkpt>
      <trkpt lat="49.89724" lon="2.27054">
        <ele>24.3</ele>
        <time>2023-05-26T12:28:57Z</time>
      </trkpt>
      <trkpt lat="49.89723" lon="2.27053">
        <ele>24.3</ele>
        <time>2023-05-26T12:28:58Z</time>
      </trkpt>
      <trkpt lat="49.89723" lon="2.27053">
        <ele>24.3</ele>
        <time>2023-05-26T12:28:59Z</time>
      </trkpt>
      <trkpt lat="49.89722" lon="2.27052">
        <ele>24.3</ele>
        <time>2023-05-26T12:29:01Z</time>
      </trkpt>
      <trkpt lat="49.89722" lon="2.27051">
        <ele>24.3</ele>
        <time>2023-05-26T12:29:02Z</time>
      </trkpt>
      <trkpt lat="49.89722" lon="2.2705">
        <ele>24.3</ele>
        <time>2023-05-26T12:29:03Z</time>
      </trkpt>
      <trkpt lat="49.89723" lon="2.27049">
        <ele>24.3</ele>
        <time>2023-05-26T12:29:04Z</time>
      </trkpt>
      <trkpt lat="49.89723" lon="2.27048">
        <ele>24.3</ele>
        <time>2023-05-26T12:29:05Z</time>
      </trkpt>
      <trkpt lat="49.89722" lon="2.27046">
        <ele>24.3</ele>
        <time>2023-05-26T12:29:06Z</time>
      </trkpt>
      <trkpt lat="49.89722" lon="2.27045">
        <ele>24.3</ele>
        <time>2023-05-26T12:29:07Z</time>
      </trkpt>
      <trkpt lat="49.89722" lon="2.27045">
        <ele>24.2</ele>
        <time>2023-05-26T12:29:09Z</time>
      </trkpt>
      <trkpt lat="49.89721" lon="2.27044">
        <ele>24.2</ele>
        <time>2023-05-26T12:29:10Z</time>
      </trkpt>
      <trkpt lat="49.89721" lon="2.27043">
        <ele>24.2</ele>
        <time>2023-05-26T12:29:11Z</time>
      </trkpt>
      <trkpt lat="49.89721" lon="2.27043">
        <ele>24.2</ele>
        <time>2023-05-26T12:29:12Z</time>
      </trkpt>
      <trkpt lat="49.8972" lon="2.27041">
        <ele>24.2</ele>
        <time>2023-05-26T12:29:13Z</time>
      </trkpt>
      <trkpt lat="49.8972" lon="2.27041">
        <ele>24.2</ele>
        <time>2023-05-26T12:29:15Z</time>
      </trkpt>
      <trkpt lat="49.89719" lon="2.27039">
        <ele>24.2</ele>
        <time>2023-05-26T12:29:16Z</time>
      </trkpt>
      <trkpt lat="49.89719" lon="2.27038">
        <ele>24.2</ele>
        <time>2023-05-26T12:29:17Z</time>
      </trkpt>
      <trkpt lat="49.89718" lon="2.27036">
        <ele>24.2</ele>
        <time>2023-05-26T12:29:18Z</time>
      </trkpt>
      <trkpt lat="49.89717" lon="2.27035">
        <ele>24.2</ele>
        <time>2023-05-26T12:29:20Z</time>
      </trkpt>
      <trkpt lat="49.89717" lon="2.27034">
        <ele>24.1</ele>
        <time>2023-05-26T12:29:21Z</time>
      </trkpt>
      <trkpt lat="49.89716" lon="2.27032">
        <ele>24.1</ele>
        <time>2023-05-26T12:29:22Z</time>
      </trkpt>
      <trkpt lat="49.89715" lon="2.2703">
        <ele>24.1</ele>
        <time>2023-05-26T12:29:23Z</time>
      </trkpt>
      <trkpt lat="49.89715" lon="2.27029">
        <ele>24.1</ele>
        <time>2023-05-26T12:29:25Z</time>
      </trkpt>
      <trkpt lat="49.89714" lon="2.27028">
        <ele>24.1</ele>
        <time>2023-05-26T12:29:26Z</time>
      </trkpt>
      <trkpt lat="49.89714" lon="2.27026">
        <ele>24.1</ele>
        <time>2023-05-26T12:29:27Z</time>
      </trkpt>
      <trkpt lat="49.89713" lon="2.27023">
        <ele>24.1</ele>
        <time>2023-05-26T12:29:28Z</time>
      </trkpt>
      <trkpt lat="49.89713" lon="2.27022">
        <ele>24</ele>
        <time>2023-05-26T12:29:29Z</time>
      </trkpt>
      <trkpt lat="49.89713" lon="2.2702">
        <ele>24</ele>
        <time>2023-05-26T12:29:30Z</time>
      </trkpt>
      <trkpt lat="49.89713" lon="2.27018">
        <ele>24</ele>
        <time>2023-05-26T12:29:31Z</time>
      </trkpt>
      <trkpt lat="49.89713" lon="2.27017">
        <ele>24</ele>
        <time>2023-05-26T12:29:33Z</time>
      </trkpt>
      <trkpt lat="49.89712" lon="2.27015">
        <ele>24</ele>
        <time>2023-05-26T12:29:34Z</time>
      </trkpt>
      <trkpt lat="49.89712" lon="2.27012">
        <ele>24</ele>
        <time>2023-05-26T12:29:35Z</time>
      </trkpt>
      <trkpt lat="49.89712" lon="2.2701">
        <ele>24</ele>
        <time>2023-05-26T12:29:36Z</time>
      </trkpt>
      <trkpt lat="49.89712" lon="2.27008">
        <ele>24</ele>
        <time>2023-05-26T12:29:38Z</time>
      </trkpt>
      <trkpt lat="49.89712" lon="2.27006">
        <ele>24</ele>
        <time>2023-05-26T12:29:39Z</time>
      </trkpt>
      <trkpt lat="49.89712" lon="2.27005">
        <ele>24</ele>
        <time>2023-05-26T12:29:40Z</time>
      </trkpt>
      <trkpt lat="49.89712" lon="2.27003">
        <ele>23.9</ele>
        <time>2023-05-26T12:29:41Z</time>
      </trkpt>
      <trkpt lat="49.89712" lon="2.27001">
        <ele>23.9</ele>
        <time>2023-05-26T12:29:43Z</time>
      </trkpt>
      <trkpt lat="49.89712" lon="2.26997">
        <ele>23.9</ele>
        <time>2023-05-26T12:29:44Z</time>
      </trkpt>
      <trkpt lat="49.89712" lon="2.26992">
        <ele>23.9</ele>
        <time>2023-05-26T12:29:45Z</time>
      </trkpt>
      <trkpt lat="49.89712" lon="2.26991">
        <ele>23.9</ele>
        <time>2023-05-26T12:29:46Z</time>
      </trkpt>
      <trkpt lat="49.89712" lon="2.26988">
        <ele>23.9</ele>
        <time>2023-05-26T12:29:48Z</time>
      </trkpt>
      <trkpt lat="49.89712" lon="2.26986">
        <ele>23.9</ele>
        <time>2023-05-26T12:29:49Z</time>
      </trkpt>
      <trkpt lat="49.89712" lon="2.26982">
        <ele>23.9</ele>
        <time>2023-05-26T12:29:50Z</time>
      </trkpt>
      <trkpt lat="49.89712" lon="2.26981">
        <ele>23.9</ele>
        <time>2023-05-26T12:29:51Z</time>
      </trkpt>
      <trkpt lat="49.89712" lon="2.26978">
        <ele>23.8</ele>
        <time>2023-05-26T12:29:52Z</time>
      </trkpt>
      <trkpt lat="49.89712" lon="2.26975">
        <ele>23.8</ele>
        <time>2023-05-26T12:29:53Z</time>
      </trkpt>
      <trkpt lat="49.89713" lon="2.26972">
        <ele>23.8</ele>
        <time>2023-05-26T12:29:54Z</time>
      </trkpt>
      <trkpt lat="49.89713" lon="2.2697">
        <ele>23.8</ele>
        <time>2023-05-26T12:29:56Z</time>
      </trkpt>
      <trkpt lat="49.89713" lon="2.26969">
        <ele>23.8</ele>
        <time>2023-05-26T12:29:57Z</time>
      </trkpt>
      <trkpt lat="49.89713" lon="2.26967">
        <ele>23.8</ele>
        <time>2023-05-26T12:29:58Z</time>
      </trkpt>
      <trkpt lat="49.89714" lon="2.26966">
        <ele>23.8</ele>
        <time>2023-05-26T12:29:59Z</time>
      </trkpt>
      <trkpt lat="49.89714" lon="2.26964">
        <ele>23.8</ele>
        <time>2023-05-26T12:30:00Z</time>
      </trkpt>
      <trkpt lat="49.89714" lon="2.26962">
        <ele>23.8</ele>
        <time>2023-05-26T12:30:02Z</time>
      </trkpt>
      <trkpt lat="49.89715" lon="2.26961">
        <ele>23.8</ele>
        <time>2023-05-26T12:30:03Z</time>
      </trkpt>
      <trkpt lat="49.89715" lon="2.26959">
        <ele>23.8</ele>
        <time>2023-05-26T12:30:04Z</time>
      </trkpt>
      <trkpt lat="49.89716" lon="2.26957">
        <ele>23.8</ele>
        <time>2023-05-26T12:30:05Z</time>
      </trkpt>
      <trkpt lat="49.89716" lon="2.26954">
        <ele>23.8</ele>
        <time>2023-05-26T12:30:07Z</time>
      </trkpt>
      <trkpt lat="49.89717" lon="2.26952">
        <ele>23.9</ele>
        <time>2023-05-26T12:30:08Z</time>
      </trkpt>
      <trkpt lat="49.89717" lon="2.26951">
        <ele>23.9</ele>
        <time>2023-05-26T12:30:09Z</time>
      </trkpt>
      <trkpt lat="49.89717" lon="2.2695">
        <ele>23.9</ele>
        <time>2023-05-26T12:30:10Z</time>
      </trkpt>
      <trkpt lat="49.89717" lon="2.26949">
        <ele>23.9</ele>
        <time>2023-05-26T12:30:11Z</time>
      </trkpt>
      <trkpt lat="49.89718" lon="2.26945">
        <ele>23.9</ele>
        <time>2023-05-26T12:30:12Z</time>
      </trkpt>
      <trkpt lat="49.89719" lon="2.26945">
        <ele>23.9</ele>
        <time>2023-05-26T12:30:14Z</time>
      </trkpt>
      <trkpt lat="49.8972" lon="2.26944">
        <ele>23.9</ele>
        <time>2023-05-26T12:30:15Z</time>
      </trkpt>
      <trkpt lat="49.8972" lon="2.26943">
        <ele>23.9</ele>
        <time>2023-05-26T12:30:16Z</time>
      </trkpt>
      <trkpt lat="49.89721" lon="2.26941">
        <ele>23.9</ele>
        <time>2023-05-26T12:30:17Z</time>
      </trkpt>
      <trkpt lat="49.89722" lon="2.26939">
        <ele>23.9</ele>
        <time>2023-05-26T12:30:19Z</time>
      </trkpt>
      <trkpt lat="49.89723" lon="2.26937">
        <ele>23.9</ele>
        <time>2023-05-26T12:30:20Z</time>
      </trkpt>
      <trkpt lat="49.89724" lon="2.26935">
        <ele>23.9</ele>
        <time>2023-05-26T12:30:22Z</time>
      </trkpt>
      <trkpt lat="49.89725" lon="2.26933">
        <ele>23.9</ele>
        <time>2023-05-26T12:30:23Z</time>
      </trkpt>
      <trkpt lat="49.89725" lon="2.26932">
        <ele>24</ele>
        <time>2023-05-26T12:30:24Z</time>
      </trkpt>
      <trkpt lat="49.89725" lon="2.2693">
        <ele>24</ele>
        <time>2023-05-26T12:30:25Z</time>
      </trkpt>
      <trkpt lat="49.89726" lon="2.26928">
        <ele>24</ele>
        <time>2023-05-26T12:30:27Z</time>
      </trkpt>
      <trkpt lat="49.89726" lon="2.26927">
        <ele>24</ele>
        <time>2023-05-26T12:30:28Z</time>
      </trkpt>
      <trkpt lat="49.89726" lon="2.26925">
        <ele>24</ele>
        <time>2023-05-26T12:30:29Z</time>
      </trkpt>
      <trkpt lat="49.89726" lon="2.26922">
        <ele>24</ele>
        <time>2023-05-26T12:30:30Z</time>
      </trkpt>
      <trkpt lat="49.89726" lon="2.26921">
        <ele>24</ele>
        <time>2023-05-26T12:30:31Z</time>
      </trkpt>
      <trkpt lat="49.89727" lon="2.26919">
        <ele>24</ele>
        <time>2023-05-26T12:30:33Z</time>
      </trkpt>
      <trkpt lat="49.89727" lon="2.26918">
        <ele>24</ele>
        <time>2023-05-26T12:30:34Z</time>
      </trkpt>
      <trkpt lat="49.89727" lon="2.26917">
        <ele>24.1</ele>
        <time>2023-05-26T12:30:35Z</time>
      </trkpt>
      <trkpt lat="49.89727" lon="2.26916">
        <ele>24.1</ele>
        <time>2023-05-26T12:30:36Z</time>
      </trkpt>
      <trkpt lat="49.89727" lon="2.26914">
        <ele>24.1</ele>
        <time>2023-05-26T12:30:37Z</time>
      </trkpt>
      <trkpt lat="49.89727" lon="2.26913">
        <ele>24.1</ele>
        <time>2023-05-26T12:30:38Z</time>
      </trkpt>
      <trkpt lat="49.89727" lon="2.26912">
        <ele>24.1</ele>
        <time>2023-05-26T12:30:40Z</time>
      </trkpt>
      <trkpt lat="49.89727" lon="2.2691">
        <ele>24.1</ele>
        <time>2023-05-26T12:30:41Z</time>
      </trkpt>
      <trkpt lat="49.89727" lon="2.26908">
        <ele>24.1</ele>
        <time>2023-05-26T12:30:42Z</time>
      </trkpt>
      <trkpt lat="49.89727" lon="2.26906">
        <ele>24.1</ele>
        <time>2023-05-26T12:30:43Z</time>
      </trkpt>
      <trkpt lat="49.89727" lon="2.26905">
        <ele>24.1</ele>
        <time>2023-05-26T12:30:44Z</time>
      </trkpt>
      <trkpt lat="49.89727" lon="2.26904">
        <ele>24.1</ele>
        <time>2023-05-26T12:30:46Z</time>
      </trkpt>
      <trkpt lat="49.89727" lon="2.26902">
        <ele>24.1</ele>
        <time>2023-05-26T12:30:47Z</time>
      </trkpt>
      <trkpt lat="49.89727" lon="2.26901">
        <ele>24.2</ele>
        <time>2023-05-26T12:30:48Z</time>
      </trkpt>
      <trkpt lat="49.89727" lon="2.269">
        <ele>24.2</ele>
        <time>2023-05-26T12:30:49Z</time>
      </trkpt>
      <trkpt lat="49.89727" lon="2.26898">
        <ele>24.2</ele>
        <time>2023-05-26T12:30:50Z</time>
      </trkpt>
      <trkpt lat="49.89727" lon="2.26898">
        <ele>24.2</ele>
        <time>2023-05-26T12:30:51Z</time>
      </trkpt>
      <trkpt lat="49.89727" lon="2.26896">
        <ele>24.2</ele>
        <time>2023-05-26T12:30:53Z</time>
      </trkpt>
      <trkpt lat="49.89726" lon="2.26895">
        <ele>24.2</ele>
        <time>2023-05-26T12:30:54Z</time>
      </trkpt>
      <trkpt lat="49.89726" lon="2.26893">
        <ele>24.2</ele>
        <time>2023-05-26T12:30:55Z</time>
      </trkpt>
      <trkpt lat="49.89726" lon="2.26891">
        <ele>24.2</ele>
        <time>2023-05-26T12:30:56Z</time>
      </trkpt>
      <trkpt lat="49.89725" lon="2.26888">
        <ele>24.2</ele>
        <time>2023-05-26T12:30:58Z</time>
      </trkpt>
      <trkpt lat="49.89724" lon="2.26886">
        <ele>24.2</ele>
        <time>2023-05-26T12:30:59Z</time>
      </trkpt>
      <trkpt lat="49.89724" lon="2.26884">
        <ele>24.2</ele>
        <time>2023-05-26T12:31:00Z</time>
      </trkpt>
      <trkpt lat="49.89723" lon="2.26883">
        <ele>24.2</ele>
        <time>2023-05-26T12:31:01Z</time>
      </trkpt>
      <trkpt lat="49.89723" lon="2.26881">
        <ele>24.2</ele>
        <time>2023-05-26T12:31:02Z</time>
      </trkpt>
      <trkpt lat="49.89722" lon="2.26879">
        <ele>24.2</ele>
        <time>2023-05-26T12:31:03Z</time>
      </trkpt>
      <trkpt lat="49.89722" lon="2.26877">
        <ele>24.3</ele>
        <time>2023-05-26T12:31:05Z</time>
      </trkpt>
      <trkpt lat="49.89722" lon="2.26875">
        <ele>24.3</ele>
        <time>2023-05-26T12:31:06Z</time>
      </trkpt>
      <trkpt lat="49.89721" lon="2.26873">
        <ele>24.3</ele>
        <time>2023-05-26T12:31:07Z</time>
      </trkpt>
      <trkpt lat="49.89721" lon="2.26871">
        <ele>24.3</ele>
        <time>2023-05-26T12:31:08Z</time>
      </trkpt>
      <trkpt lat="49.89721" lon="2.26869">
        <ele>24.3</ele>
        <time>2023-05-26T12:31:09Z</time>
      </trkpt>
      <trkpt lat="49.89721" lon="2.26868">
        <ele>24.3</ele>
        <time>2023-05-26T12:31:10Z</time>
      </trkpt>
      <trkpt lat="49.8972" lon="2.26864">
        <ele>24.3</ele>
        <time>2023-05-26T12:31:11Z</time>
      </trkpt>
      <trkpt lat="49.8972" lon="2.26863">
        <ele>24.3</ele>
        <time>2023-05-26T12:31:13Z</time>
      </trkpt>
      <trkpt lat="49.89719" lon="2.26861">
        <ele>24.3</ele>
        <time>2023-05-26T12:31:14Z</time>
      </trkpt>
      <trkpt lat="49.89719" lon="2.2686">
        <ele>24.3</ele>
        <time>2023-05-26T12:31:15Z</time>
      </trkpt>
      <trkpt lat="49.89719" lon="2.26858">
        <ele>24.3</ele>
        <time>2023-05-26T12:31:16Z</time>
      </trkpt>
      <trkpt lat="49.89718" lon="2.26857">
        <ele>24.3</ele>
        <time>2023-05-26T12:31:17Z</time>
      </trkpt>
      <trkpt lat="49.89718" lon="2.26855">
        <ele>24.3</ele>
        <time>2023-05-26T12:31:18Z</time>
      </trkpt>
      <trkpt lat="49.89717" lon="2.26854">
        <ele>24.3</ele>
        <time>2023-05-26T12:31:20Z</time>
      </trkpt>
      <trkpt lat="49.89717" lon="2.26852">
        <ele>24.3</ele>
        <time>2023-05-26T12:31:21Z</time>
      </trkpt>
      <trkpt lat="49.89716" lon="2.2685">
        <ele>24.3</ele>
        <time>2023-05-26T12:31:22Z</time>
      </trkpt>
      <trkpt lat="49.89716" lon="2.26849">
        <ele>24.3</ele>
        <time>2023-05-26T12:31:23Z</time>
      </trkpt>
      <trkpt lat="49.89715" lon="2.26848">
        <ele>24.3</ele>
        <time>2023-05-26T12:31:24Z</time>
      </trkpt>
      <trkpt lat="49.89715" lon="2.26847">
        <ele>24.3</ele>
        <time>2023-05-26T12:31:25Z</time>
      </trkpt>
      <trkpt lat="49.89715" lon="2.26845">
        <ele>24.3</ele>
        <time>2023-05-26T12:31:27Z</time>
      </trkpt>
      <trkpt lat="49.89714" lon="2.26844">
        <ele>24.3</ele>
        <time>2023-05-26T12:31:28Z</time>
      </trkpt>
      <trkpt lat="49.89714" lon="2.26842">
        <ele>24.3</ele>
        <time>2023-05-26T12:31:29Z</time>
      </trkpt>
      <trkpt lat="49.89714" lon="2.2684">
        <ele>24.3</ele>
        <time>2023-05-26T12:31:30Z</time>
      </trkpt>
      <trkpt lat="49.89713" lon="2.26839">
        <ele>24.3</ele>
        <time>2023-05-26T12:31:31Z</time>
      </trkpt>
      <trkpt lat="49.89713" lon="2.26836">
        <ele>24.3</ele>
        <time>2023-05-26T12:31:33Z</time>
      </trkpt>
      <trkpt lat="49.89713" lon="2.26835">
        <ele>24.3</ele>
        <time>2023-05-26T12:31:34Z</time>
      </trkpt>
      <trkpt lat="49.89712" lon="2.26833">
        <ele>24.3</ele>
        <time>2023-05-26T12:31:35Z</time>
      </trkpt>
      <trkpt lat="49.89712" lon="2.26832">
        <ele>24.3</ele>
        <time>2023-05-26T12:31:36Z</time>
      </trkpt>
      <trkpt lat="49.89711" lon="2.2683">
        <ele>24.3</ele>
        <time>2023-05-26T12:31:38Z</time>
      </trkpt>
      <trkpt lat="49.89711" lon="2.26829">
        <ele>24.3</ele>
        <time>2023-05-26T12:31:39Z</time>
      </trkpt>
      <trkpt lat="49.89711" lon="2.26827">
        <ele>24.3</ele>
        <time>2023-05-26T12:31:40Z</time>
      </trkpt>
      <trkpt lat="49.89711" lon="2.26825">
        <ele>24.3</ele>
        <time>2023-05-26T12:31:41Z</time>
      </trkpt>
      <trkpt lat="49.89711" lon="2.26823">
        <ele>24.3</ele>
        <time>2023-05-26T12:31:42Z</time>
      </trkpt>
      <trkpt lat="49.89711" lon="2.26822">
        <ele>24.3</ele>
        <time>2023-05-26T12:31:43Z</time>
      </trkpt>
      <trkpt lat="49.89711" lon="2.2682">
        <ele>24.3</ele>
        <time>2023-05-26T12:31:44Z</time>
      </trkpt>
      <trkpt lat="49.89711" lon="2.26818">
        <ele>24.3</ele>
        <time>2023-05-26T12:31:46Z</time>
      </trkpt>
      <trkpt lat="49.89711" lon="2.26817">
        <ele>24.3</ele>
        <time>2023-05-26T12:31:47Z</time>
      </trkpt>
      <trkpt lat="49.89711" lon="2.26815">
        <ele>24.3</ele>
        <time>2023-05-26T12:31:48Z</time>
      </trkpt>
      <trkpt lat="49.89711" lon="2.26812">
        <ele>24.3</ele>
        <time>2023-05-26T12:31:49Z</time>
      </trkpt>
      <trkpt lat="49.89711" lon="2.26811">
        <ele>24.3</ele>
        <time>2023-05-26T12:31:50Z</time>
      </trkpt>
      <trkpt lat="49.89711" lon="2.26809">
        <ele>24.3</ele>
        <time>2023-05-26T12:31:51Z</time>
      </trkpt>
      <trkpt lat="49.89711" lon="2.26806">
        <ele>24.3</ele>
        <time>2023-05-26T12:31:53Z</time>
      </trkpt>
      <trkpt lat="49.89711" lon="2.26805">
        <ele>24.3</ele>
        <time>2023-05-26T12:31:54Z</time>
      </trkpt>
      <trkpt lat="49.89711" lon="2.26803">
        <ele>24.3</ele>
        <time>2023-05-26T12:31:55Z</time>
      </trkpt>
      <trkpt lat="49.89711" lon="2.26802">
        <ele>24.3</ele>
        <time>2023-05-26T12:31:56Z</time>
      </trkpt>
      <trkpt lat="49.89711" lon="2.268">
        <ele>24.2</ele>
        <time>2023-05-26T12:31:57Z</time>
      </trkpt>
      <trkpt lat="49.89711" lon="2.26798">
        <ele>24.2</ele>
        <time>2023-05-26T12:31:59Z</time>
      </trkpt>
      <trkpt lat="49.8971" lon="2.26797">
        <ele>24.2</ele>
        <time>2023-05-26T12:32:00Z</time>
      </trkpt>
      <trkpt lat="49.8971" lon="2.26794">
        <ele>24.2</ele>
        <time>2023-05-26T12:32:01Z</time>
      </trkpt>
      <trkpt lat="49.8971" lon="2.26793">
        <ele>24.2</ele>
        <time>2023-05-26T12:32:02Z</time>
      </trkpt>
      <trkpt lat="49.8971" lon="2.26791">
        <ele>24.2</ele>
        <time>2023-05-26T12:32:03Z</time>
      </trkpt>
      <trkpt lat="49.8971" lon="2.26789">
        <ele>24.2</ele>
        <time>2023-05-26T12:32:04Z</time>
      </trkpt>
      <trkpt lat="49.8971" lon="2.26787">
        <ele>24.2</ele>
        <time>2023-05-26T12:32:06Z</time>
      </trkpt>
      <trkpt lat="49.8971" lon="2.26786">
        <ele>24.2</ele>
        <time>2023-05-26T12:32:07Z</time>
      </trkpt>
      <trkpt lat="49.8971" lon="2.26784">
        <ele>24.2</ele>
        <time>2023-05-26T12:32:08Z</time>
      </trkpt>
      <trkpt lat="49.8971" lon="2.26782">
        <ele>24.2</ele>
        <time>2023-05-26T12:32:09Z</time>
      </trkpt>
      <trkpt lat="49.89711" lon="2.26779">
        <ele>24.2</ele>
        <time>2023-05-26T12:32:10Z</time>
      </trkpt>
      <trkpt lat="49.89711" lon="2.26777">
        <ele>24.2</ele>
        <time>2023-05-26T12:32:11Z</time>
      </trkpt>
      <trkpt lat="49.89711" lon="2.26774">
        <ele>24.2</ele>
        <time>2023-05-26T12:32:13Z</time>
      </trkpt>
      <trkpt lat="49.89711" lon="2.26772">
        <ele>24.2</ele>
        <time>2023-05-26T12:32:14Z</time>
      </trkpt>
      <trkpt lat="49.89711" lon="2.26771">
        <ele>24.2</ele>
        <time>2023-05-26T12:32:15Z</time>
      </trkpt>
      <trkpt lat="49.89711" lon="2.26769">
        <ele>24.2</ele>
        <time>2023-05-26T12:32:16Z</time>
      </trkpt>
      <trkpt lat="49.89711" lon="2.26767">
        <ele>24.2</ele>
        <time>2023-05-26T12:32:17Z</time>
      </trkpt>
      <trkpt lat="49.89712" lon="2.26765">
        <ele>24.2</ele>
        <time>2023-05-26T12:32:18Z</time>
      </trkpt>
      <trkpt lat="49.89712" lon="2.26763">
        <ele>24.2</ele>
        <time>2023-05-26T12:32:19Z</time>
      </trkpt>
      <trkpt lat="49.89711" lon="2.26761">
        <ele>24.1</ele>
        <time>2023-05-26T12:32:21Z</time>
      </trkpt>
      <trkpt lat="49.89711" lon="2.2676">
        <ele>24.1</ele>
        <time>2023-05-26T12:32:22Z</time>
      </trkpt>
      <trkpt lat="49.89711" lon="2.26756">
        <ele>24.1</ele>
        <time>2023-05-26T12:32:23Z</time>
      </trkpt>
      <trkpt lat="49.89711" lon="2.26755">
        <ele>24.1</ele>
        <time>2023-05-26T12:32:24Z</time>
      </trkpt>
      <trkpt lat="49.89711" lon="2.26754">
        <ele>24.1</ele>
        <time>2023-05-26T12:32:25Z</time>
      </trkpt>
      <trkpt lat="49.89711" lon="2.26752">
        <ele>24.1</ele>
        <time>2023-05-26T12:32:27Z</time>
      </trkpt>
      <trkpt lat="49.89711" lon="2.26751">
        <ele>24.1</ele>
        <time>2023-05-26T12:32:28Z</time>
      </trkpt>
      <trkpt lat="49.89711" lon="2.26749">
        <ele>24.1</ele>
        <time>2023-05-26T12:32:29Z</time>
      </trkpt>
      <trkpt lat="49.89711" lon="2.26747">
        <ele>24.1</ele>
        <time>2023-05-26T12:32:30Z</time>
      </trkpt>
      <trkpt lat="49.89711" lon="2.26746">
        <ele>24.1</ele>
        <time>2023-05-26T12:32:31Z</time>
      </trkpt>
      <trkpt lat="49.89711" lon="2.26744">
        <ele>24.1</ele>
        <time>2023-05-26T12:32:32Z</time>
      </trkpt>
      <trkpt lat="49.8971" lon="2.26743">
        <ele>24.1</ele>
        <time>2023-05-26T12:32:34Z</time>
      </trkpt>
      <trkpt lat="49.8971" lon="2.26742">
        <ele>24.1</ele>
        <time>2023-05-26T12:32:35Z</time>
      </trkpt>
      <trkpt lat="49.8971" lon="2.26739">
        <ele>24.1</ele>
        <time>2023-05-26T12:32:36Z</time>
      </trkpt>
      <trkpt lat="49.8971" lon="2.26738">
        <ele>24.1</ele>
        <time>2023-05-26T12:32:37Z</time>
      </trkpt>
      <trkpt lat="49.8971" lon="2.26736">
        <ele>24.1</ele>
        <time>2023-05-26T12:32:38Z</time>
      </trkpt>
      <trkpt lat="49.8971" lon="2.26735">
        <ele>24.1</ele>
        <time>2023-05-26T12:32:40Z</time>
      </trkpt>
      <trkpt lat="49.8971" lon="2.26733">
        <ele>24.1</ele>
        <time>2023-05-26T12:32:41Z</time>
      </trkpt>
      <trkpt lat="49.8971" lon="2.26731">
        <ele>24.1</ele>
        <time>2023-05-26T12:32:42Z</time>
      </trkpt>
      <trkpt lat="49.8971" lon="2.2673">
        <ele>24.1</ele>
        <time>2023-05-26T12:32:43Z</time>
      </trkpt>
      <trkpt lat="49.8971" lon="2.26728">
        <ele>24.1</ele>
        <time>2023-05-26T12:32:44Z</time>
      </trkpt>
      <trkpt lat="49.8971" lon="2.26726">
        <ele>24.1</ele>
        <time>2023-05-26T12:32:46Z</time>
      </trkpt>
      <trkpt lat="49.8971" lon="2.26725">
        <ele>24.1</ele>
        <time>2023-05-26T12:32:47Z</time>
      </trkpt>
      <trkpt lat="49.8971" lon="2.26722">
        <ele>24.1</ele>
        <time>2023-05-26T12:32:48Z</time>
      </trkpt>
      <trkpt lat="49.8971" lon="2.26721">
        <ele>24.1</ele>
        <time>2023-05-26T12:32:49Z</time>
      </trkpt>
      <trkpt lat="49.8971" lon="2.26719">
        <ele>24.1</ele>
        <time>2023-05-26T12:32:50Z</time>
      </trkpt>
      <trkpt lat="49.89711" lon="2.26718">
        <ele>24</ele>
        <time>2023-05-26T12:32:52Z</time>
      </trkpt>
      <trkpt lat="49.8971" lon="2.26717">
        <ele>24</ele>
        <time>2023-05-26T12:32:53Z</time>
      </trkpt>
      <trkpt lat="49.89711" lon="2.26716">
        <ele>24</ele>
        <time>2023-05-26T12:32:54Z</time>
      </trkpt>
      <trkpt lat="49.89711" lon="2.26714">
        <ele>24</ele>
        <time>2023-05-26T12:32:55Z</time>
      </trkpt>
      <trkpt lat="49.89711" lon="2.26712">
        <ele>24</ele>
        <time>2023-05-26T12:32:56Z</time>
      </trkpt>
      <trkpt lat="49.8971" lon="2.26711">
        <ele>24</ele>
        <time>2023-05-26T12:32:57Z</time>
      </trkpt>
      <trkpt lat="49.8971" lon="2.26709">
        <ele>24</ele>
        <time>2023-05-26T12:32:59Z</time>
      </trkpt>
      <trkpt lat="49.8971" lon="2.26708">
        <ele>24</ele>
        <time>2023-05-26T12:33:00Z</time>
      </trkpt>
      <trkpt lat="49.8971" lon="2.26706">
        <ele>24</ele>
        <time>2023-05-26T12:33:01Z</time>
      </trkpt>
      <trkpt lat="49.8971" lon="2.26705">
        <ele>24</ele>
        <time>2023-05-26T12:33:02Z</time>
      </trkpt>
      <trkpt lat="49.89709" lon="2.26702">
        <ele>24</ele>
        <time>2023-05-26T12:33:03Z</time>
      </trkpt>
      <trkpt lat="49.89709" lon="2.26701">
        <ele>24</ele>
        <time>2023-05-26T12:33:05Z</time>
      </trkpt>
      <trkpt lat="49.89709" lon="2.267">
        <ele>24</ele>
        <time>2023-05-26T12:33:06Z</time>
      </trkpt>
      <trkpt lat="49.89708" lon="2.26698">
        <ele>24</ele>
        <time>2023-05-26T12:33:07Z</time>
      </trkpt>
      <trkpt lat="49.89708" lon="2.26696">
        <ele>24</ele>
        <time>2023-05-26T12:33:08Z</time>
      </trkpt>
      <trkpt lat="49.89707" lon="2.26694">
        <ele>24</ele>
        <time>2023-05-26T12:33:09Z</time>
      </trkpt>
      <trkpt lat="49.89707" lon="2.26691">
        <ele>24</ele>
        <time>2023-05-26T12:33:10Z</time>
      </trkpt>
      <trkpt lat="49.89707" lon="2.2669">
        <ele>24</ele>
        <time>2023-05-26T12:33:12Z</time>
      </trkpt>
      <trkpt lat="49.89706" lon="2.26688">
        <ele>24</ele>
        <time>2023-05-26T12:33:13Z</time>
      </trkpt>
      <trkpt lat="49.89706" lon="2.26686">
        <ele>24</ele>
        <time>2023-05-26T12:33:14Z</time>
      </trkpt>
      <trkpt lat="49.89706" lon="2.26685">
        <ele>24</ele>
        <time>2023-05-26T12:33:15Z</time>
      </trkpt>
      <trkpt lat="49.89706" lon="2.26682">
        <ele>24</ele>
        <time>2023-05-26T12:33:16Z</time>
      </trkpt>
      <trkpt lat="49.89705" lon="2.2668">
        <ele>24.1</ele>
        <time>2023-05-26T12:33:18Z</time>
      </trkpt>
      <trkpt lat="49.89705" lon="2.26679">
        <ele>24.1</ele>
        <time>2023-05-26T12:33:19Z</time>
      </trkpt>
      <trkpt lat="49.89705" lon="2.26677">
        <ele>24.1</ele>
        <time>2023-05-26T12:33:20Z</time>
      </trkpt>
      <trkpt lat="49.89705" lon="2.26675">
        <ele>24.1</ele>
        <time>2023-05-26T12:33:21Z</time>
      </trkpt>
      <trkpt lat="49.89705" lon="2.26673">
        <ele>24.1</ele>
        <time>2023-05-26T12:33:22Z</time>
      </trkpt>
      <trkpt lat="49.89705" lon="2.26672">
        <ele>24.1</ele>
        <time>2023-05-26T12:33:23Z</time>
      </trkpt>
      <trkpt lat="49.89705" lon="2.26671">
        <ele>24.1</ele>
        <time>2023-05-26T12:33:25Z</time>
      </trkpt>
      <trkpt lat="49.89705" lon="2.26669">
        <ele>24.1</ele>
        <time>2023-05-26T12:33:26Z</time>
      </trkpt>
      <trkpt lat="49.89706" lon="2.26668">
        <ele>24.1</ele>
        <time>2023-05-26T12:33:27Z</time>
      </trkpt>
      <trkpt lat="49.89706" lon="2.26666">
        <ele>24.2</ele>
        <time>2023-05-26T12:33:28Z</time>
      </trkpt>
      <trkpt lat="49.89706" lon="2.26664">
        <ele>24.2</ele>
        <time>2023-05-26T12:33:29Z</time>
      </trkpt>
      <trkpt lat="49.89706" lon="2.26662">
        <ele>24.2</ele>
        <time>2023-05-26T12:33:31Z</time>
      </trkpt>
      <trkpt lat="49.89706" lon="2.26661">
        <ele>24.2</ele>
        <time>2023-05-26T12:33:32Z</time>
      </trkpt>
      <trkpt lat="49.89706" lon="2.2666">
        <ele>24.2</ele>
        <time>2023-05-26T12:33:33Z</time>
      </trkpt>
      <trkpt lat="49.89707" lon="2.26658">
        <ele>24.3</ele>
        <time>2023-05-26T12:33:34Z</time>
      </trkpt>
      <trkpt lat="49.89707" lon="2.26656">
        <ele>24.3</ele>
        <time>2023-05-26T12:33:35Z</time>
      </trkpt>
      <trkpt lat="49.89708" lon="2.26654">
        <ele>24.3</ele>
        <time>2023-05-26T12:33:36Z</time>
      </trkpt>
      <trkpt lat="49.89708" lon="2.26651">
        <ele>24.3</ele>
        <time>2023-05-26T12:33:38Z</time>
      </trkpt>
      <trkpt lat="49.89708" lon="2.2665">
        <ele>24.3</ele>
        <time>2023-05-26T12:33:39Z</time>
      </trkpt>
      <trkpt lat="49.89709" lon="2.26649">
        <ele>24.4</ele>
        <time>2023-05-26T12:33:40Z</time>
      </trkpt>
      <trkpt lat="49.89709" lon="2.26648">
        <ele>24.4</ele>
        <time>2023-05-26T12:33:41Z</time>
      </trkpt>
      <trkpt lat="49.89709" lon="2.26646">
        <ele>24.4</ele>
        <time>2023-05-26T12:33:42Z</time>
      </trkpt>
      <trkpt lat="49.89709" lon="2.26645">
        <ele>24.4</ele>
        <time>2023-05-26T12:33:43Z</time>
      </trkpt>
      <trkpt lat="49.89709" lon="2.26641">
        <ele>24.4</ele>
        <time>2023-05-26T12:33:45Z</time>
      </trkpt>
      <trkpt lat="49.89709" lon="2.2664">
        <ele>24.4</ele>
        <time>2023-05-26T12:33:47Z</time>
      </trkpt>
      <trkpt lat="49.89709" lon="2.26639">
        <ele>24.5</ele>
        <time>2023-05-26T12:33:48Z</time>
      </trkpt>
      <trkpt lat="49.89709" lon="2.26638">
        <ele>24.5</ele>
        <time>2023-05-26T12:33:49Z</time>
      </trkpt>
      <trkpt lat="49.89709" lon="2.26636">
        <ele>24.5</ele>
        <time>2023-05-26T12:33:50Z</time>
      </trkpt>
      <trkpt lat="49.89709" lon="2.26634">
        <ele>24.5</ele>
        <time>2023-05-26T12:33:51Z</time>
      </trkpt>
      <trkpt lat="49.89709" lon="2.26633">
        <ele>24.5</ele>
        <time>2023-05-26T12:33:53Z</time>
      </trkpt>
      <trkpt lat="49.89709" lon="2.26632">
        <ele>24.5</ele>
        <time>2023-05-26T12:33:54Z</time>
      </trkpt>
      <trkpt lat="49.89709" lon="2.2663">
        <ele>24.5</ele>
        <time>2023-05-26T12:33:55Z</time>
      </trkpt>
      <trkpt lat="49.89709" lon="2.26628">
        <ele>24.6</ele>
        <time>2023-05-26T12:33:56Z</time>
      </trkpt>
      <trkpt lat="49.89709" lon="2.26626">
        <ele>24.6</ele>
        <time>2023-05-26T12:33:58Z</time>
      </trkpt>
      <trkpt lat="49.89709" lon="2.26625">
        <ele>24.6</ele>
        <time>2023-05-26T12:33:59Z</time>
      </trkpt>
      <trkpt lat="49.89709" lon="2.26623">
        <ele>24.6</ele>
        <time>2023-05-26T12:34:00Z</time>
      </trkpt>
      <trkpt lat="49.89709" lon="2.26621">
        <ele>24.6</ele>
        <time>2023-05-26T12:34:02Z</time>
      </trkpt>
      <trkpt lat="49.89708" lon="2.2662">
        <ele>24.6</ele>
        <time>2023-05-26T12:34:03Z</time>
      </trkpt>
      <trkpt lat="49.89708" lon="2.26618">
        <ele>24.6</ele>
        <time>2023-05-26T12:34:04Z</time>
      </trkpt>
      <trkpt lat="49.89708" lon="2.26617">
        <ele>24.6</ele>
        <time>2023-05-26T12:34:05Z</time>
      </trkpt>
      <trkpt lat="49.89708" lon="2.26615">
        <ele>24.5</ele>
        <time>2023-05-26T12:34:06Z</time>
      </trkpt>
      <trkpt lat="49.89707" lon="2.26613">
        <ele>24.5</ele>
        <time>2023-05-26T12:34:07Z</time>
      </trkpt>
      <trkpt lat="49.89707" lon="2.26612">
        <ele>24.5</ele>
        <time>2023-05-26T12:34:08Z</time>
      </trkpt>
      <trkpt lat="49.89707" lon="2.2661">
        <ele>24.5</ele>
        <time>2023-05-26T12:34:09Z</time>
      </trkpt>
      <trkpt lat="49.89707" lon="2.26608">
        <ele>24.5</ele>
        <time>2023-05-26T12:34:11Z</time>
      </trkpt>
      <trkpt lat="49.89706" lon="2.26606">
        <ele>24.5</ele>
        <time>2023-05-26T12:34:12Z</time>
      </trkpt>
      <trkpt lat="49.89706" lon="2.26605">
        <ele>24.5</ele>
        <time>2023-05-26T12:34:13Z</time>
      </trkpt>
      <trkpt lat="49.89705" lon="2.26603">
        <ele>24.5</ele>
        <time>2023-05-26T12:34:14Z</time>
      </trkpt>
      <trkpt lat="49.89705" lon="2.26601">
        <ele>24.5</ele>
        <time>2023-05-26T12:34:15Z</time>
      </trkpt>
      <trkpt lat="49.89704" lon="2.266">
        <ele>24.5</ele>
        <time>2023-05-26T12:34:17Z</time>
      </trkpt>
      <trkpt lat="49.89704" lon="2.26598">
        <ele>24.5</ele>
        <time>2023-05-26T12:34:18Z</time>
      </trkpt>
      <trkpt lat="49.89704" lon="2.26597">
        <ele>24.5</ele>
        <time>2023-05-26T12:34:19Z</time>
      </trkpt>
      <trkpt lat="49.89704" lon="2.26595">
        <ele>24.5</ele>
        <time>2023-05-26T12:34:20Z</time>
      </trkpt>
      <trkpt lat="49.89704" lon="2.26593">
        <ele>24.5</ele>
        <time>2023-05-26T12:34:21Z</time>
      </trkpt>
      <trkpt lat="49.89704" lon="2.26592">
        <ele>24.5</ele>
        <time>2023-05-26T12:34:22Z</time>
      </trkpt>
      <trkpt lat="49.89704" lon="2.2659">
        <ele>24.5</ele>
        <time>2023-05-26T12:34:24Z</time>
      </trkpt>
      <trkpt lat="49.89704" lon="2.26589">
        <ele>24.4</ele>
        <time>2023-05-26T12:34:25Z</time>
      </trkpt>
      <trkpt lat="49.89704" lon="2.26587">
        <ele>24.4</ele>
        <time>2023-05-26T12:34:26Z</time>
      </trkpt>
      <trkpt lat="49.89704" lon="2.26585">
        <ele>24.4</ele>
        <time>2023-05-26T12:34:27Z</time>
      </trkpt>
      <trkpt lat="49.89704" lon="2.26583">
        <ele>24.4</ele>
        <time>2023-05-26T12:34:28Z</time>
      </trkpt>
      <trkpt lat="49.89704" lon="2.26581">
        <ele>24.4</ele>
        <time>2023-05-26T12:34:29Z</time>
      </trkpt>
      <trkpt lat="49.89704" lon="2.2658">
        <ele>24.4</ele>
        <time>2023-05-26T12:34:31Z</time>
      </trkpt>
      <trkpt lat="49.89704" lon="2.26578">
        <ele>24.4</ele>
        <time>2023-05-26T12:34:32Z</time>
      </trkpt>
      <trkpt lat="49.89704" lon="2.26577">
        <ele>24.4</ele>
        <time>2023-05-26T12:34:33Z</time>
      </trkpt>
      <trkpt lat="49.89704" lon="2.26575">
        <ele>24.4</ele>
        <time>2023-05-26T12:34:34Z</time>
      </trkpt>
      <trkpt lat="49.89704" lon="2.26573">
        <ele>24.4</ele>
        <time>2023-05-26T12:34:36Z</time>
      </trkpt>
      <trkpt lat="49.89704" lon="2.26571">
        <ele>24.4</ele>
        <time>2023-05-26T12:34:37Z</time>
      </trkpt>
      <trkpt lat="49.89704" lon="2.2657">
        <ele>24.4</ele>
        <time>2023-05-26T12:34:38Z</time>
      </trkpt>
      <trkpt lat="49.89704" lon="2.26569">
        <ele>24.4</ele>
        <time>2023-05-26T12:34:39Z</time>
      </trkpt>
      <trkpt lat="49.89704" lon="2.26567">
        <ele>24.4</ele>
        <time>2023-05-26T12:34:40Z</time>
      </trkpt>
      <trkpt lat="49.89704" lon="2.26565">
        <ele>24.4</ele>
        <time>2023-05-26T12:34:41Z</time>
      </trkpt>
      <trkpt lat="49.89704" lon="2.26563">
        <ele>24.4</ele>
        <time>2023-05-26T12:34:42Z</time>
      </trkpt>
      <trkpt lat="49.89704" lon="2.26562">
        <ele>24.4</ele>
        <time>2023-05-26T12:34:43Z</time>
      </trkpt>
      <trkpt lat="49.89705" lon="2.2656">
        <ele>24.4</ele>
        <time>2023-05-26T12:34:44Z</time>
      </trkpt>
      <trkpt lat="49.89705" lon="2.26558">
        <ele>24.4</ele>
        <time>2023-05-26T12:34:46Z</time>
      </trkpt>
      <trkpt lat="49.89704" lon="2.26557">
        <ele>24.4</ele>
        <time>2023-05-26T12:34:47Z</time>
      </trkpt>
      <trkpt lat="49.89704" lon="2.26556">
        <ele>24.4</ele>
        <time>2023-05-26T12:34:48Z</time>
      </trkpt>
      <trkpt lat="49.89704" lon="2.26554">
        <ele>24.4</ele>
        <time>2023-05-26T12:34:49Z</time>
      </trkpt>
      <trkpt lat="49.89704" lon="2.26553">
        <ele>24.4</ele>
        <time>2023-05-26T12:34:50Z</time>
      </trkpt>
      <trkpt lat="49.89704" lon="2.26551">
        <ele>24.4</ele>
        <time>2023-05-26T12:34:52Z</time>
      </trkpt>
      <trkpt lat="49.89704" lon="2.2655">
        <ele>24.4</ele>
        <time>2023-05-26T12:34:53Z</time>
      </trkpt>
      <trkpt lat="49.89704" lon="2.26548">
        <ele>24.4</ele>
        <time>2023-05-26T12:34:54Z</time>
      </trkpt>
      <trkpt lat="49.89704" lon="2.26546">
        <ele>24.4</ele>
        <time>2023-05-26T12:34:55Z</time>
      </trkpt>
      <trkpt lat="49.89704" lon="2.26544">
        <ele>24.4</ele>
        <time>2023-05-26T12:34:56Z</time>
      </trkpt>
      <trkpt lat="49.89704" lon="2.26543">
        <ele>24.4</ele>
        <time>2023-05-26T12:34:58Z</time>
      </trkpt>
      <trkpt lat="49.89704" lon="2.26542">
        <ele>24.4</ele>
        <time>2023-05-26T12:34:59Z</time>
      </trkpt>
      <trkpt lat="49.89704" lon="2.2654">
        <ele>24.4</ele>
        <time>2023-05-26T12:35:00Z</time>
      </trkpt>
      <trkpt lat="49.89704" lon="2.26538">
        <ele>24.4</ele>
        <time>2023-05-26T12:35:01Z</time>
      </trkpt>
      <trkpt lat="49.89704" lon="2.26536">
        <ele>24.4</ele>
        <time>2023-05-26T12:35:02Z</time>
      </trkpt>
      <trkpt lat="49.89704" lon="2.26534">
        <ele>24.4</ele>
        <time>2023-05-26T12:35:03Z</time>
      </trkpt>
      <trkpt lat="49.89704" lon="2.26532">
        <ele>24.4</ele>
        <time>2023-05-26T12:35:05Z</time>
      </trkpt>
      <trkpt lat="49.89705" lon="2.2653">
        <ele>24.4</ele>
        <time>2023-05-26T12:35:06Z</time>
      </trkpt>
      <trkpt lat="49.89705" lon="2.26527">
        <ele>24.4</ele>
        <time>2023-05-26T12:35:07Z</time>
      </trkpt>
      <trkpt lat="49.89705" lon="2.26524">
        <ele>24.4</ele>
        <time>2023-05-26T12:35:08Z</time>
      </trkpt>
      <trkpt lat="49.89705" lon="2.26523">
        <ele>24.4</ele>
        <time>2023-05-26T12:35:09Z</time>
      </trkpt>
      <trkpt lat="49.89705" lon="2.26521">
        <ele>24.4</ele>
        <time>2023-05-26T12:35:10Z</time>
      </trkpt>
      <trkpt lat="49.89706" lon="2.26519">
        <ele>24.4</ele>
        <time>2023-05-26T12:35:12Z</time>
      </trkpt>
      <trkpt lat="49.89706" lon="2.26518">
        <ele>24.4</ele>
        <time>2023-05-26T12:35:13Z</time>
      </trkpt>
      <trkpt lat="49.89706" lon="2.26516">
        <ele>24.4</ele>
        <time>2023-05-26T12:35:14Z</time>
      </trkpt>
      <trkpt lat="49.89706" lon="2.26514">
        <ele>24.4</ele>
        <time>2023-05-26T12:35:15Z</time>
      </trkpt>
      <trkpt lat="49.89706" lon="2.26512">
        <ele>24.5</ele>
        <time>2023-05-26T12:35:16Z</time>
      </trkpt>
      <trkpt lat="49.89706" lon="2.26511">
        <ele>24.5</ele>
        <time>2023-05-26T12:35:17Z</time>
      </trkpt>
      <trkpt lat="49.89707" lon="2.26509">
        <ele>24.5</ele>
        <time>2023-05-26T12:35:19Z</time>
      </trkpt>
      <trkpt lat="49.89707" lon="2.26508">
        <ele>24.5</ele>
        <time>2023-05-26T12:35:20Z</time>
      </trkpt>
      <trkpt lat="49.89707" lon="2.26506">
        <ele>24.5</ele>
        <time>2023-05-26T12:35:21Z</time>
      </trkpt>
      <trkpt lat="49.89708" lon="2.26504">
        <ele>24.5</ele>
        <time>2023-05-26T12:35:22Z</time>
      </trkpt>
      <trkpt lat="49.89708" lon="2.26502">
        <ele>24.5</ele>
        <time>2023-05-26T12:35:23Z</time>
      </trkpt>
      <trkpt lat="49.89708" lon="2.265">
        <ele>24.5</ele>
        <time>2023-05-26T12:35:24Z</time>
      </trkpt>
      <trkpt lat="49.89708" lon="2.26498">
        <ele>24.5</ele>
        <time>2023-05-26T12:35:25Z</time>
      </trkpt>
      <trkpt lat="49.89708" lon="2.26495">
        <ele>24.5</ele>
        <time>2023-05-26T12:35:27Z</time>
      </trkpt>
      <trkpt lat="49.89708" lon="2.26493">
        <ele>24.5</ele>
        <time>2023-05-26T12:35:28Z</time>
      </trkpt>
      <trkpt lat="49.89708" lon="2.26491">
        <ele>24.5</ele>
        <time>2023-05-26T12:35:29Z</time>
      </trkpt>
      <trkpt lat="49.89707" lon="2.26488">
        <ele>24.5</ele>
        <time>2023-05-26T12:35:30Z</time>
      </trkpt>
      <trkpt lat="49.89707" lon="2.26484">
        <ele>24.6</ele>
        <time>2023-05-26T12:35:31Z</time>
      </trkpt>
      <trkpt lat="49.89707" lon="2.26482">
        <ele>24.6</ele>
        <time>2023-05-26T12:35:33Z</time>
      </trkpt>
      <trkpt lat="49.89707" lon="2.2648">
        <ele>24.6</ele>
        <time>2023-05-26T12:35:34Z</time>
      </trkpt>
      <trkpt lat="49.89708" lon="2.26479">
        <ele>24.6</ele>
        <time>2023-05-26T12:35:35Z</time>
      </trkpt>
      <trkpt lat="49.89708" lon="2.26477">
        <ele>24.7</ele>
        <time>2023-05-26T12:35:36Z</time>
      </trkpt>
      <trkpt lat="49.89708" lon="2.26475">
        <ele>24.7</ele>
        <time>2023-05-26T12:35:38Z</time>
      </trkpt>
      <trkpt lat="49.89708" lon="2.26473">
        <ele>24.7</ele>
        <time>2023-05-26T12:35:40Z</time>
      </trkpt>
      <trkpt lat="49.89708" lon="2.26472">
        <ele>24.7</ele>
        <time>2023-05-26T12:35:41Z</time>
      </trkpt>
      <trkpt lat="49.89708" lon="2.26471">
        <ele>24.7</ele>
        <time>2023-05-26T12:35:42Z</time>
      </trkpt>
      <trkpt lat="49.89707" lon="2.2647">
        <ele>24.7</ele>
        <time>2023-05-26T12:35:43Z</time>
      </trkpt>
      <trkpt lat="49.89707" lon="2.26468">
        <ele>24.7</ele>
        <time>2023-05-26T12:35:44Z</time>
      </trkpt>
      <trkpt lat="49.89706" lon="2.26467">
        <ele>24.7</ele>
        <time>2023-05-26T12:35:45Z</time>
      </trkpt>
      <trkpt lat="49.89705" lon="2.26465">
        <ele>24.8</ele>
        <time>2023-05-26T12:35:47Z</time>
      </trkpt>
      <trkpt lat="49.89704" lon="2.26464">
        <ele>24.8</ele>
        <time>2023-05-26T12:35:48Z</time>
      </trkpt>
      <trkpt lat="49.89704" lon="2.26463">
        <ele>24.8</ele>
        <time>2023-05-26T12:35:49Z</time>
      </trkpt>
      <trkpt lat="49.89703" lon="2.26461">
        <ele>24.8</ele>
        <time>2023-05-26T12:35:50Z</time>
      </trkpt>
      <trkpt lat="49.89701" lon="2.26459">
        <ele>24.8</ele>
        <time>2023-05-26T12:35:51Z</time>
      </trkpt>
      <trkpt lat="49.89701" lon="2.26458">
        <ele>24.8</ele>
        <time>2023-05-26T12:35:52Z</time>
      </trkpt>
      <trkpt lat="49.897" lon="2.26457">
        <ele>24.8</ele>
        <time>2023-05-26T12:35:53Z</time>
      </trkpt>
      <trkpt lat="49.89698" lon="2.26456">
        <ele>24.8</ele>
        <time>2023-05-26T12:35:55Z</time>
      </trkpt>
      <trkpt lat="49.89697" lon="2.26456">
        <ele>24.9</ele>
        <time>2023-05-26T12:35:56Z</time>
      </trkpt>
      <trkpt lat="49.89696" lon="2.26456">
        <ele>24.9</ele>
        <time>2023-05-26T12:35:57Z</time>
      </trkpt>
      <trkpt lat="49.89695" lon="2.26456">
        <ele>24.9</ele>
        <time>2023-05-26T12:35:58Z</time>
      </trkpt>
      <trkpt lat="49.89694" lon="2.26457">
        <ele>24.9</ele>
        <time>2023-05-26T12:36:00Z</time>
      </trkpt>
      <trkpt lat="49.89693" lon="2.26458">
        <ele>24.9</ele>
        <time>2023-05-26T12:36:01Z</time>
      </trkpt>
      <trkpt lat="49.89691" lon="2.2646">
        <ele>24.9</ele>
        <time>2023-05-26T12:36:02Z</time>
      </trkpt>
      <trkpt lat="49.8969" lon="2.26461">
        <ele>24.9</ele>
        <time>2023-05-26T12:36:03Z</time>
      </trkpt>
      <trkpt lat="49.8969" lon="2.26461">
        <ele>24.9</ele>
        <time>2023-05-26T12:36:04Z</time>
      </trkpt>
      <trkpt lat="49.89688" lon="2.26463">
        <ele>24.8</ele>
        <time>2023-05-26T12:36:06Z</time>
      </trkpt>
      <trkpt lat="49.89687" lon="2.26464">
        <ele>24.8</ele>
        <time>2023-05-26T12:36:07Z</time>
      </trkpt>
      <trkpt lat="49.89687" lon="2.26464">
        <ele>24.8</ele>
        <time>2023-05-26T12:36:08Z</time>
      </trkpt>
      <trkpt lat="49.89686" lon="2.26465">
        <ele>24.8</ele>
        <time>2023-05-26T12:36:09Z</time>
      </trkpt>
      <trkpt lat="49.89685" lon="2.26467">
        <ele>24.8</ele>
        <time>2023-05-26T12:36:10Z</time>
      </trkpt>
      <trkpt lat="49.89684" lon="2.26469">
        <ele>24.8</ele>
        <time>2023-05-26T12:36:12Z</time>
      </trkpt>
      <trkpt lat="49.89683" lon="2.2647">
        <ele>24.8</ele>
        <time>2023-05-26T12:36:13Z</time>
      </trkpt>
      <trkpt lat="49.89682" lon="2.2647">
        <ele>24.8</ele>
        <time>2023-05-26T12:36:14Z</time>
      </trkpt>
      <trkpt lat="49.89681" lon="2.2647">
        <ele>24.8</ele>
        <time>2023-05-26T12:36:15Z</time>
      </trkpt>
      <trkpt lat="49.89679" lon="2.26469">
        <ele>24.8</ele>
        <time>2023-05-26T12:36:16Z</time>
      </trkpt>
      <trkpt lat="49.89678" lon="2.26468">
        <ele>24.6</ele>
        <time>2023-05-26T12:36:17Z</time>
      </trkpt>
      <trkpt lat="49.89677" lon="2.26468">
        <ele>24.6</ele>
        <time>2023-05-26T12:36:19Z</time>
      </trkpt>
      <trkpt lat="49.89676" lon="2.26467">
        <ele>24.6</ele>
        <time>2023-05-26T12:36:20Z</time>
      </trkpt>
      <trkpt lat="49.89675" lon="2.26466">
        <ele>24.6</ele>
        <time>2023-05-26T12:36:21Z</time>
      </trkpt>
      <trkpt lat="49.89674" lon="2.26466">
        <ele>24.6</ele>
        <time>2023-05-26T12:36:22Z</time>
      </trkpt>
      <trkpt lat="49.89673" lon="2.26465">
        <ele>24.6</ele>
        <time>2023-05-26T12:36:23Z</time>
      </trkpt>
      <trkpt lat="49.89672" lon="2.26464">
        <ele>24.6</ele>
        <time>2023-05-26T12:36:24Z</time>
      </trkpt>
      <trkpt lat="49.89671" lon="2.26464">
        <ele>24.5</ele>
        <time>2023-05-26T12:36:25Z</time>
      </trkpt>
      <trkpt lat="49.89669" lon="2.26463">
        <ele>24.5</ele>
        <time>2023-05-26T12:36:26Z</time>
      </trkpt>
      <trkpt lat="49.89668" lon="2.26462">
        <ele>24.5</ele>
        <time>2023-05-26T12:36:28Z</time>
      </trkpt>
      <trkpt lat="49.89667" lon="2.26461">
        <ele>24.5</ele>
        <time>2023-05-26T12:36:29Z</time>
      </trkpt>
      <trkpt lat="49.89666" lon="2.26458">
        <ele>24.5</ele>
        <time>2023-05-26T12:36:30Z</time>
      </trkpt>
      <trkpt lat="49.89666" lon="2.26456">
        <ele>24.5</ele>
        <time>2023-05-26T12:36:31Z</time>
      </trkpt>
      <trkpt lat="49.89666" lon="2.26455">
        <ele>24.5</ele>
        <time>2023-05-26T12:36:32Z</time>
      </trkpt>
      <trkpt lat="49.89666" lon="2.26453">
        <ele>24.5</ele>
        <time>2023-05-26T12:36:34Z</time>
      </trkpt>
      <trkpt lat="49.89667" lon="2.26452">
        <ele>24.4</ele>
        <time>2023-05-26T12:36:35Z</time>
      </trkpt>
      <trkpt lat="49.89667" lon="2.2645">
        <ele>24.4</ele>
        <time>2023-05-26T12:36:36Z</time>
      </trkpt>
      <trkpt lat="49.89666" lon="2.26447">
        <ele>24.4</ele>
        <time>2023-05-26T12:36:37Z</time>
      </trkpt>
      <trkpt lat="49.89665" lon="2.26447">
        <ele>24.4</ele>
        <time>2023-05-26T12:36:38Z</time>
      </trkpt>
      <trkpt lat="49.89664" lon="2.26446">
        <ele>24.4</ele>
        <time>2023-05-26T12:36:39Z</time>
      </trkpt>
      <trkpt lat="49.89664" lon="2.26445">
        <ele>24.4</ele>
        <time>2023-05-26T12:36:41Z</time>
      </trkpt>
      <trkpt lat="49.89663" lon="2.26444">
        <ele>24.4</ele>
        <time>2023-05-26T12:36:42Z</time>
      </trkpt>
      <trkpt lat="49.89662" lon="2.26443">
        <ele>24.4</ele>
        <time>2023-05-26T12:36:43Z</time>
      </trkpt>
      <trkpt lat="49.89662" lon="2.26442">
        <ele>24.4</ele>
        <time>2023-05-26T12:36:45Z</time>
      </trkpt>
      <trkpt lat="49.89661" lon="2.26441">
        <ele>24.4</ele>
        <time>2023-05-26T12:36:46Z</time>
      </trkpt>
      <trkpt lat="49.8966" lon="2.2644">
        <ele>24.4</ele>
        <time>2023-05-26T12:36:47Z</time>
      </trkpt>
      <trkpt lat="49.89659" lon="2.26439">
        <ele>24.4</ele>
        <time>2023-05-26T12:36:49Z</time>
      </trkpt>
      <trkpt lat="49.89659" lon="2.26438">
        <ele>24.4</ele>
        <time>2023-05-26T12:36:50Z</time>
      </trkpt>
      <trkpt lat="49.89658" lon="2.26437">
        <ele>24.4</ele>
        <time>2023-05-26T12:36:51Z</time>
      </trkpt>
      <trkpt lat="49.89657" lon="2.26436">
        <ele>24.4</ele>
        <time>2023-05-26T12:36:52Z</time>
      </trkpt>
      <trkpt lat="49.89656" lon="2.26433">
        <ele>24.4</ele>
        <time>2023-05-26T12:36:53Z</time>
      </trkpt>
      <trkpt lat="49.89655" lon="2.26432">
        <ele>24.4</ele>
        <time>2023-05-26T12:36:54Z</time>
      </trkpt>
      <trkpt lat="49.89655" lon="2.26431">
        <ele>24.4</ele>
        <time>2023-05-26T12:36:55Z</time>
      </trkpt>
      <trkpt lat="49.89653" lon="2.26428">
        <ele>24.4</ele>
        <time>2023-05-26T12:36:56Z</time>
      </trkpt>
      <trkpt lat="49.89653" lon="2.26427">
        <ele>24.4</ele>
        <time>2023-05-26T12:36:58Z</time>
      </trkpt>
      <trkpt lat="49.89652" lon="2.26426">
        <ele>24.4</ele>
        <time>2023-05-26T12:36:59Z</time>
      </trkpt>
      <trkpt lat="49.89652" lon="2.26425">
        <ele>24.4</ele>
        <time>2023-05-26T12:37:00Z</time>
      </trkpt>
      <trkpt lat="49.89651" lon="2.26424">
        <ele>24.4</ele>
        <time>2023-05-26T12:37:01Z</time>
      </trkpt>
      <trkpt lat="49.89651" lon="2.26422">
        <ele>24.4</ele>
        <time>2023-05-26T12:37:02Z</time>
      </trkpt>
      <trkpt lat="49.8965" lon="2.26422">
        <ele>24.4</ele>
        <time>2023-05-26T12:37:03Z</time>
      </trkpt>
      <trkpt lat="49.89649" lon="2.26421">
        <ele>24.4</ele>
        <time>2023-05-26T12:37:04Z</time>
      </trkpt>
      <trkpt lat="49.89648" lon="2.26419">
        <ele>24.4</ele>
        <time>2023-05-26T12:37:05Z</time>
      </trkpt>
      <trkpt lat="49.89647" lon="2.26418">
        <ele>24.4</ele>
        <time>2023-05-26T12:37:07Z</time>
      </trkpt>
      <trkpt lat="49.89646" lon="2.26417">
        <ele>24.4</ele>
        <time>2023-05-26T12:37:08Z</time>
      </trkpt>
      <trkpt lat="49.89646" lon="2.26416">
        <ele>24.4</ele>
        <time>2023-05-26T12:37:09Z</time>
      </trkpt>
      <trkpt lat="49.89645" lon="2.26416">
        <ele>24.4</ele>
        <time>2023-05-26T12:37:10Z</time>
      </trkpt>
      <trkpt lat="49.89645" lon="2.26415">
        <ele>24.4</ele>
        <time>2023-05-26T12:37:11Z</time>
      </trkpt>
      <trkpt lat="49.89644" lon="2.26413">
        <ele>24.4</ele>
        <time>2023-05-26T12:37:12Z</time>
      </trkpt>
      <trkpt lat="49.89644" lon="2.26411">
        <ele>24.4</ele>
        <time>2023-05-26T12:37:14Z</time>
      </trkpt>
      <trkpt lat="49.89643" lon="2.26408">
        <ele>24.4</ele>
        <time>2023-05-26T12:37:15Z</time>
      </trkpt>
      <trkpt lat="49.89642" lon="2.26406">
        <ele>24.4</ele>
        <time>2023-05-26T12:37:16Z</time>
      </trkpt>
      <trkpt lat="49.8964" lon="2.26402">
        <ele>24.4</ele>
        <time>2023-05-26T12:37:17Z</time>
      </trkpt>
      <trkpt lat="49.8964" lon="2.26401">
        <ele>24.4</ele>
        <time>2023-05-26T12:37:18Z</time>
      </trkpt>
      <trkpt lat="49.89639" lon="2.26399">
        <ele>24.4</ele>
        <time>2023-05-26T12:37:19Z</time>
      </trkpt>
      <trkpt lat="49.89638" lon="2.26397">
        <ele>24.4</ele>
        <time>2023-05-26T12:37:21Z</time>
      </trkpt>
      <trkpt lat="49.89637" lon="2.26394">
        <ele>24.4</ele>
        <time>2023-05-26T12:37:22Z</time>
      </trkpt>
      <trkpt lat="49.89636" lon="2.26392">
        <ele>24.4</ele>
        <time>2023-05-26T12:37:23Z</time>
      </trkpt>
      <trkpt lat="49.89635" lon="2.2639">
        <ele>24.4</ele>
        <time>2023-05-26T12:37:24Z</time>
      </trkpt>
      <trkpt lat="49.89635" lon="2.26388">
        <ele>24.4</ele>
        <time>2023-05-26T12:37:25Z</time>
      </trkpt>
      <trkpt lat="49.89634" lon="2.26385">
        <ele>24.4</ele>
        <time>2023-05-26T12:37:26Z</time>
      </trkpt>
      <trkpt lat="49.89633" lon="2.26383">
        <ele>24.4</ele>
        <time>2023-05-26T12:37:28Z</time>
      </trkpt>
      <trkpt lat="49.89632" lon="2.26381">
        <ele>24.4</ele>
        <time>2023-05-26T12:37:29Z</time>
      </trkpt>
      <trkpt lat="49.89631" lon="2.26379">
        <ele>24.4</ele>
        <time>2023-05-26T12:37:31Z</time>
      </trkpt>
      <trkpt lat="49.8963" lon="2.26377">
        <ele>24.4</ele>
        <time>2023-05-26T12:37:32Z</time>
      </trkpt>
      <trkpt lat="49.8963" lon="2.26376">
        <ele>24.4</ele>
        <time>2023-05-26T12:37:33Z</time>
      </trkpt>
      <trkpt lat="49.89629" lon="2.26374">
        <ele>24.4</ele>
        <time>2023-05-26T12:37:34Z</time>
      </trkpt>
      <trkpt lat="49.89628" lon="2.26372">
        <ele>24.4</ele>
        <time>2023-05-26T12:37:35Z</time>
      </trkpt>
      <trkpt lat="49.89627" lon="2.26371">
        <ele>24.4</ele>
        <time>2023-05-26T12:37:36Z</time>
      </trkpt>
      <trkpt lat="49.89627" lon="2.2637">
        <ele>24.4</ele>
        <time>2023-05-26T12:37:37Z</time>
      </trkpt>
      <trkpt lat="49.89626" lon="2.26369">
        <ele>24.4</ele>
        <time>2023-05-26T12:37:38Z</time>
      </trkpt>
      <trkpt lat="49.89625" lon="2.26368">
        <ele>24.4</ele>
        <time>2023-05-26T12:37:40Z</time>
      </trkpt>
      <trkpt lat="49.89625" lon="2.26367">
        <ele>24.4</ele>
        <time>2023-05-26T12:37:41Z</time>
      </trkpt>
      <trkpt lat="49.89624" lon="2.26365">
        <ele>24.4</ele>
        <time>2023-05-26T12:37:42Z</time>
      </trkpt>
      <trkpt lat="49.89623" lon="2.26363">
        <ele>24.4</ele>
        <time>2023-05-26T12:37:43Z</time>
      </trkpt>
      <trkpt lat="49.89622" lon="2.26362">
        <ele>24.4</ele>
        <time>2023-05-26T12:37:44Z</time>
      </trkpt>
      <trkpt lat="49.89622" lon="2.26361">
        <ele>24.4</ele>
        <time>2023-05-26T12:37:45Z</time>
      </trkpt>
      <trkpt lat="49.89622" lon="2.2636">
        <ele>24.4</ele>
        <time>2023-05-26T12:37:46Z</time>
      </trkpt>
      <trkpt lat="49.89621" lon="2.26359">
        <ele>24.4</ele>
        <time>2023-05-26T12:37:48Z</time>
      </trkpt>
      <trkpt lat="49.89621" lon="2.26357">
        <ele>24.5</ele>
        <time>2023-05-26T12:37:49Z</time>
      </trkpt>
      <trkpt lat="49.8962" lon="2.26356">
        <ele>24.5</ele>
        <time>2023-05-26T12:37:50Z</time>
      </trkpt>
      <trkpt lat="49.8962" lon="2.26354">
        <ele>24.5</ele>
        <time>2023-05-26T12:37:51Z</time>
      </trkpt>
      <trkpt lat="49.89619" lon="2.26354">
        <ele>24.5</ele>
        <time>2023-05-26T12:37:52Z</time>
      </trkpt>
      <trkpt lat="49.89619" lon="2.26352">
        <ele>24.5</ele>
        <time>2023-05-26T12:37:53Z</time>
      </trkpt>
      <trkpt lat="49.89618" lon="2.26351">
        <ele>24.5</ele>
        <time>2023-05-26T12:37:55Z</time>
      </trkpt>
      <trkpt lat="49.89617" lon="2.2635">
        <ele>24.5</ele>
        <time>2023-05-26T12:37:56Z</time>
      </trkpt>
      <trkpt lat="49.89616" lon="2.26348">
        <ele>24.5</ele>
        <time>2023-05-26T12:37:57Z</time>
      </trkpt>
      <trkpt lat="49.89616" lon="2.26347">
        <ele>24.5</ele>
        <time>2023-05-26T12:37:58Z</time>
      </trkpt>
      <trkpt lat="49.89615" lon="2.26345">
        <ele>24.5</ele>
        <time>2023-05-26T12:37:59Z</time>
      </trkpt>
      <trkpt lat="49.89615" lon="2.26344">
        <ele>24.5</ele>
        <time>2023-05-26T12:38:00Z</time>
      </trkpt>
      <trkpt lat="49.89614" lon="2.26342">
        <ele>24.5</ele>
        <time>2023-05-26T12:38:01Z</time>
      </trkpt>
      <trkpt lat="49.89613" lon="2.26342">
        <ele>24.5</ele>
        <time>2023-05-26T12:38:03Z</time>
      </trkpt>
      <trkpt lat="49.89612" lon="2.26341">
        <ele>24.5</ele>
        <time>2023-05-26T12:38:04Z</time>
      </trkpt>
      <trkpt lat="49.89611" lon="2.2634">
        <ele>24.5</ele>
        <time>2023-05-26T12:38:05Z</time>
      </trkpt>
      <trkpt lat="49.8961" lon="2.26339">
        <ele>24.5</ele>
        <time>2023-05-26T12:38:06Z</time>
      </trkpt>
      <trkpt lat="49.8961" lon="2.26338">
        <ele>24.5</ele>
        <time>2023-05-26T12:38:07Z</time>
      </trkpt>
      <trkpt lat="49.89609" lon="2.26337">
        <ele>24.5</ele>
        <time>2023-05-26T12:38:09Z</time>
      </trkpt>
      <trkpt lat="49.89608" lon="2.26336">
        <ele>24.5</ele>
        <time>2023-05-26T12:38:10Z</time>
      </trkpt>
      <trkpt lat="49.89607" lon="2.26335">
        <ele>24.5</ele>
        <time>2023-05-26T12:38:11Z</time>
      </trkpt>
      <trkpt lat="49.89606" lon="2.26334">
        <ele>24.6</ele>
        <time>2023-05-26T12:38:12Z</time>
      </trkpt>
      <trkpt lat="49.89605" lon="2.26333">
        <ele>24.6</ele>
        <time>2023-05-26T12:38:13Z</time>
      </trkpt>
      <trkpt lat="49.89605" lon="2.26332">
        <ele>24.6</ele>
        <time>2023-05-26T12:38:14Z</time>
      </trkpt>
      <trkpt lat="49.89603" lon="2.2633">
        <ele>24.6</ele>
        <time>2023-05-26T12:38:16Z</time>
      </trkpt>
      <trkpt lat="49.89603" lon="2.26329">
        <ele>24.6</ele>
        <time>2023-05-26T12:38:17Z</time>
      </trkpt>
      <trkpt lat="49.89602" lon="2.26328">
        <ele>24.6</ele>
        <time>2023-05-26T12:38:18Z</time>
      </trkpt>
      <trkpt lat="49.89601" lon="2.26326">
        <ele>24.6</ele>
        <time>2023-05-26T12:38:19Z</time>
      </trkpt>
      <trkpt lat="49.896" lon="2.26325">
        <ele>24.6</ele>
        <time>2023-05-26T12:38:20Z</time>
      </trkpt>
      <trkpt lat="49.89599" lon="2.26324">
        <ele>24.6</ele>
        <time>2023-05-26T12:38:21Z</time>
      </trkpt>
      <trkpt lat="49.89599" lon="2.26323">
        <ele>24.6</ele>
        <time>2023-05-26T12:38:22Z</time>
      </trkpt>
      <trkpt lat="49.89598" lon="2.26321">
        <ele>24.6</ele>
        <time>2023-05-26T12:38:24Z</time>
      </trkpt>
      <trkpt lat="49.89597" lon="2.2632">
        <ele>24.6</ele>
        <time>2023-05-26T12:38:25Z</time>
      </trkpt>
      <trkpt lat="49.89596" lon="2.26319">
        <ele>24.6</ele>
        <time>2023-05-26T12:38:26Z</time>
      </trkpt>
      <trkpt lat="49.89594" lon="2.26318">
        <ele>24.6</ele>
        <time>2023-05-26T12:38:27Z</time>
      </trkpt>
      <trkpt lat="49.89593" lon="2.26317">
        <ele>24.6</ele>
        <time>2023-05-26T12:38:29Z</time>
      </trkpt>
      <trkpt lat="49.89593" lon="2.26316">
        <ele>24.6</ele>
        <time>2023-05-26T12:38:30Z</time>
      </trkpt>
      <trkpt lat="49.89591" lon="2.26313">
        <ele>24.6</ele>
        <time>2023-05-26T12:38:31Z</time>
      </trkpt>
      <trkpt lat="49.8959" lon="2.26313">
        <ele>24.6</ele>
        <time>2023-05-26T12:38:33Z</time>
      </trkpt>
      <trkpt lat="49.89589" lon="2.26311">
        <ele>24.6</ele>
        <time>2023-05-26T12:38:34Z</time>
      </trkpt>
      <trkpt lat="49.89588" lon="2.26308">
        <ele>24.6</ele>
        <time>2023-05-26T12:38:36Z</time>
      </trkpt>
      <trkpt lat="49.89588" lon="2.26306">
        <ele>24.6</ele>
        <time>2023-05-26T12:38:37Z</time>
      </trkpt>
      <trkpt lat="49.89587" lon="2.26303">
        <ele>24.6</ele>
        <time>2023-05-26T12:38:38Z</time>
      </trkpt>
      <trkpt lat="49.89587" lon="2.26302">
        <ele>24.6</ele>
        <time>2023-05-26T12:38:39Z</time>
      </trkpt>
      <trkpt lat="49.89586" lon="2.26301">
        <ele>24.6</ele>
        <time>2023-05-26T12:38:40Z</time>
      </trkpt>
      <trkpt lat="49.89586" lon="2.26299">
        <ele>24.6</ele>
        <time>2023-05-26T12:38:41Z</time>
      </trkpt>
      <trkpt lat="49.89585" lon="2.26298">
        <ele>24.6</ele>
        <time>2023-05-26T12:38:42Z</time>
      </trkpt>
      <trkpt lat="49.89584" lon="2.26296">
        <ele>24.6</ele>
        <time>2023-05-26T12:38:44Z</time>
      </trkpt>
      <trkpt lat="49.89584" lon="2.26293">
        <ele>24.6</ele>
        <time>2023-05-26T12:38:45Z</time>
      </trkpt>
      <trkpt lat="49.89583" lon="2.26291">
        <ele>24.6</ele>
        <time>2023-05-26T12:38:46Z</time>
      </trkpt>
      <trkpt lat="49.89583" lon="2.2629">
        <ele>24.6</ele>
        <time>2023-05-26T12:38:47Z</time>
      </trkpt>
      <trkpt lat="49.89583" lon="2.26288">
        <ele>24.6</ele>
        <time>2023-05-26T12:38:48Z</time>
      </trkpt>
      <trkpt lat="49.89582" lon="2.26287">
        <ele>24.6</ele>
        <time>2023-05-26T12:38:49Z</time>
      </trkpt>
      <trkpt lat="49.89582" lon="2.26285">
        <ele>24.6</ele>
        <time>2023-05-26T12:38:50Z</time>
      </trkpt>
      <trkpt lat="49.89581" lon="2.26283">
        <ele>24.6</ele>
        <time>2023-05-26T12:38:52Z</time>
      </trkpt>
      <trkpt lat="49.89581" lon="2.26282">
        <ele>24.6</ele>
        <time>2023-05-26T12:38:53Z</time>
      </trkpt>
      <trkpt lat="49.8958" lon="2.26281">
        <ele>24.6</ele>
        <time>2023-05-26T12:38:54Z</time>
      </trkpt>
      <trkpt lat="49.8958" lon="2.26279">
        <ele>24.6</ele>
        <time>2023-05-26T12:38:55Z</time>
      </trkpt>
      <trkpt lat="49.89579" lon="2.26278">
        <ele>24.6</ele>
        <time>2023-05-26T12:38:56Z</time>
      </trkpt>
      <trkpt lat="49.89579" lon="2.26276">
        <ele>24.6</ele>
        <time>2023-05-26T12:38:57Z</time>
      </trkpt>
      <trkpt lat="49.89579" lon="2.26275">
        <ele>24.6</ele>
        <time>2023-05-26T12:38:58Z</time>
      </trkpt>
      <trkpt lat="49.89578" lon="2.26273">
        <ele>24.6</ele>
        <time>2023-05-26T12:39:00Z</time>
      </trkpt>
      <trkpt lat="49.89577" lon="2.26272">
        <ele>24.6</ele>
        <time>2023-05-26T12:39:01Z</time>
      </trkpt>
      <trkpt lat="49.89576" lon="2.26269">
        <ele>24.6</ele>
        <time>2023-05-26T12:39:02Z</time>
      </trkpt>
      <trkpt lat="49.89575" lon="2.26269">
        <ele>24.5</ele>
        <time>2023-05-26T12:39:03Z</time>
      </trkpt>
      <trkpt lat="49.89575" lon="2.26268">
        <ele>24.5</ele>
        <time>2023-05-26T12:39:04Z</time>
      </trkpt>
      <trkpt lat="49.89574" lon="2.26266">
        <ele>24.5</ele>
        <time>2023-05-26T12:39:05Z</time>
      </trkpt>
      <trkpt lat="49.89573" lon="2.26265">
        <ele>24.5</ele>
        <time>2023-05-26T12:39:06Z</time>
      </trkpt>
      <trkpt lat="49.89573" lon="2.26264">
        <ele>24.5</ele>
        <time>2023-05-26T12:39:07Z</time>
      </trkpt>
      <trkpt lat="49.89572" lon="2.26263">
        <ele>24.5</ele>
        <time>2023-05-26T12:39:08Z</time>
      </trkpt>
      <trkpt lat="49.89571" lon="2.26261">
        <ele>24.5</ele>
        <time>2023-05-26T12:39:09Z</time>
      </trkpt>
      <trkpt lat="49.8957" lon="2.2626">
        <ele>24.5</ele>
        <time>2023-05-26T12:39:11Z</time>
      </trkpt>
      <trkpt lat="49.89569" lon="2.26259">
        <ele>24.5</ele>
        <time>2023-05-26T12:39:12Z</time>
      </trkpt>
      <trkpt lat="49.89569" lon="2.26258">
        <ele>24.5</ele>
        <time>2023-05-26T12:39:13Z</time>
      </trkpt>
      <trkpt lat="49.89568" lon="2.26256">
        <ele>24.5</ele>
        <time>2023-05-26T12:39:14Z</time>
      </trkpt>
      <trkpt lat="49.89567" lon="2.26255">
        <ele>24.5</ele>
        <time>2023-05-26T12:39:15Z</time>
      </trkpt>
      <trkpt lat="49.89567" lon="2.26254">
        <ele>24.5</ele>
        <time>2023-05-26T12:39:16Z</time>
      </trkpt>
      <trkpt lat="49.89566" lon="2.26252">
        <ele>24.5</ele>
        <time>2023-05-26T12:39:17Z</time>
      </trkpt>
      <trkpt lat="49.89564" lon="2.26251">
        <ele>24.5</ele>
        <time>2023-05-26T12:39:19Z</time>
      </trkpt>
      <trkpt lat="49.89563" lon="2.2625">
        <ele>24.5</ele>
        <time>2023-05-26T12:39:20Z</time>
      </trkpt>
      <trkpt lat="49.89563" lon="2.26249">
        <ele>24.5</ele>
        <time>2023-05-26T12:39:21Z</time>
      </trkpt>
      <trkpt lat="49.89561" lon="2.26247">
        <ele>24.5</ele>
        <time>2023-05-26T12:39:22Z</time>
      </trkpt>
      <trkpt lat="49.8956" lon="2.26246">
        <ele>24.5</ele>
        <time>2023-05-26T12:39:23Z</time>
      </trkpt>
      <trkpt lat="49.89559" lon="2.26245">
        <ele>24.5</ele>
        <time>2023-05-26T12:39:24Z</time>
      </trkpt>
      <trkpt lat="49.89558" lon="2.26244">
        <ele>24.5</ele>
        <time>2023-05-26T12:39:25Z</time>
      </trkpt>
      <trkpt lat="49.89557" lon="2.26243">
        <ele>24.5</ele>
        <time>2023-05-26T12:39:26Z</time>
      </trkpt>
      <trkpt lat="49.89556" lon="2.26241">
        <ele>24.5</ele>
        <time>2023-05-26T12:39:28Z</time>
      </trkpt>
      <trkpt lat="49.89555" lon="2.2624">
        <ele>24.5</ele>
        <time>2023-05-26T12:39:29Z</time>
      </trkpt>
      <trkpt lat="49.89554" lon="2.26239">
        <ele>24.5</ele>
        <time>2023-05-26T12:39:30Z</time>
      </trkpt>
      <trkpt lat="49.89553" lon="2.26237">
        <ele>24.5</ele>
        <time>2023-05-26T12:39:31Z</time>
      </trkpt>
      <trkpt lat="49.89552" lon="2.26236">
        <ele>24.5</ele>
        <time>2023-05-26T12:39:32Z</time>
      </trkpt>
      <trkpt lat="49.89551" lon="2.26235">
        <ele>24.5</ele>
        <time>2023-05-26T12:39:33Z</time>
      </trkpt>
      <trkpt lat="49.8955" lon="2.26233">
        <ele>24.5</ele>
        <time>2023-05-26T12:39:34Z</time>
      </trkpt>
      <trkpt lat="49.89549" lon="2.26231">
        <ele>24.5</ele>
        <time>2023-05-26T12:39:36Z</time>
      </trkpt>
      <trkpt lat="49.89548" lon="2.26231">
        <ele>24.5</ele>
        <time>2023-05-26T12:39:37Z</time>
      </trkpt>
      <trkpt lat="49.89547" lon="2.2623">
        <ele>24.5</ele>
        <time>2023-05-26T12:39:38Z</time>
      </trkpt>
      <trkpt lat="49.89546" lon="2.26229">
        <ele>24.5</ele>
        <time>2023-05-26T12:39:39Z</time>
      </trkpt>
      <trkpt lat="49.89545" lon="2.26227">
        <ele>24.5</ele>
        <time>2023-05-26T12:39:40Z</time>
      </trkpt>
      <trkpt lat="49.89545" lon="2.26226">
        <ele>24.5</ele>
        <time>2023-05-26T12:39:41Z</time>
      </trkpt>
      <trkpt lat="49.89544" lon="2.26225">
        <ele>24.5</ele>
        <time>2023-05-26T12:39:42Z</time>
      </trkpt>
      <trkpt lat="49.89543" lon="2.26224">
        <ele>24.5</ele>
        <time>2023-05-26T12:39:44Z</time>
      </trkpt>
      <trkpt lat="49.89542" lon="2.26223">
        <ele>24.5</ele>
        <time>2023-05-26T12:39:45Z</time>
      </trkpt>
      <trkpt lat="49.89542" lon="2.26222">
        <ele>24.5</ele>
        <time>2023-05-26T12:39:46Z</time>
      </trkpt>
      <trkpt lat="49.8954" lon="2.2622">
        <ele>24.5</ele>
        <time>2023-05-26T12:39:47Z</time>
      </trkpt>
      <trkpt lat="49.8954" lon="2.26219">
        <ele>24.5</ele>
        <time>2023-05-26T12:39:48Z</time>
      </trkpt>
      <trkpt lat="49.89539" lon="2.26218">
        <ele>24.5</ele>
        <time>2023-05-26T12:39:49Z</time>
      </trkpt>
      <trkpt lat="49.89539" lon="2.26216">
        <ele>24.5</ele>
        <time>2023-05-26T12:39:50Z</time>
      </trkpt>
      <trkpt lat="49.89538" lon="2.26215">
        <ele>24.4</ele>
        <time>2023-05-26T12:39:52Z</time>
      </trkpt>
      <trkpt lat="49.89537" lon="2.26213">
        <ele>24.4</ele>
        <time>2023-05-26T12:39:53Z</time>
      </trkpt>
      <trkpt lat="49.89537" lon="2.26212">
        <ele>24.4</ele>
        <time>2023-05-26T12:39:54Z</time>
      </trkpt>
      <trkpt lat="49.89536" lon="2.26211">
        <ele>24.4</ele>
        <time>2023-05-26T12:39:55Z</time>
      </trkpt>
      <trkpt lat="49.89535" lon="2.2621">
        <ele>24.4</ele>
        <time>2023-05-26T12:39:56Z</time>
      </trkpt>
      <trkpt lat="49.89535" lon="2.26208">
        <ele>24.4</ele>
        <time>2023-05-26T12:39:57Z</time>
      </trkpt>
      <trkpt lat="49.89534" lon="2.26207">
        <ele>24.4</ele>
        <time>2023-05-26T12:39:59Z</time>
      </trkpt>
      <trkpt lat="49.89533" lon="2.26206">
        <ele>24.4</ele>
        <time>2023-05-26T12:40:00Z</time>
      </trkpt>
      <trkpt lat="49.89533" lon="2.26204">
        <ele>24.4</ele>
        <time>2023-05-26T12:40:01Z</time>
      </trkpt>
      <trkpt lat="49.89532" lon="2.26203">
        <ele>24.4</ele>
        <time>2023-05-26T12:40:02Z</time>
      </trkpt>
      <trkpt lat="49.89531" lon="2.26202">
        <ele>24.4</ele>
        <time>2023-05-26T12:40:03Z</time>
      </trkpt>
      <trkpt lat="49.8953" lon="2.26201">
        <ele>24.4</ele>
        <time>2023-05-26T12:40:04Z</time>
      </trkpt>
      <trkpt lat="49.89529" lon="2.262">
        <ele>24.4</ele>
        <time>2023-05-26T12:40:06Z</time>
      </trkpt>
      <trkpt lat="49.89529" lon="2.26199">
        <ele>24.4</ele>
        <time>2023-05-26T12:40:07Z</time>
      </trkpt>
      <trkpt lat="49.89528" lon="2.26198">
        <ele>24.4</ele>
        <time>2023-05-26T12:40:08Z</time>
      </trkpt>
      <trkpt lat="49.89526" lon="2.26196">
        <ele>24.4</ele>
        <time>2023-05-26T12:40:09Z</time>
      </trkpt>
      <trkpt lat="49.89525" lon="2.26196">
        <ele>24.4</ele>
        <time>2023-05-26T12:40:10Z</time>
      </trkpt>
      <trkpt lat="49.89524" lon="2.26195">
        <ele>24.4</ele>
        <time>2023-05-26T12:40:11Z</time>
      </trkpt>
      <trkpt lat="49.89523" lon="2.26195">
        <ele>24.4</ele>
        <time>2023-05-26T12:40:12Z</time>
      </trkpt>
      <trkpt lat="49.89522" lon="2.26194">
        <ele>24.4</ele>
        <time>2023-05-26T12:40:13Z</time>
      </trkpt>
      <trkpt lat="49.89521" lon="2.26192">
        <ele>24.4</ele>
        <time>2023-05-26T12:40:15Z</time>
      </trkpt>
      <trkpt lat="49.8952" lon="2.26191">
        <ele>24.4</ele>
        <time>2023-05-26T12:40:16Z</time>
      </trkpt>
      <trkpt lat="49.89519" lon="2.26189">
        <ele>24.4</ele>
        <time>2023-05-26T12:40:17Z</time>
      </trkpt>
      <trkpt lat="49.89518" lon="2.26188">
        <ele>24.4</ele>
        <time>2023-05-26T12:40:18Z</time>
      </trkpt>
      <trkpt lat="49.89517" lon="2.26186">
        <ele>24.4</ele>
        <time>2023-05-26T12:40:19Z</time>
      </trkpt>
      <trkpt lat="49.89516" lon="2.26184">
        <ele>24.4</ele>
        <time>2023-05-26T12:40:20Z</time>
      </trkpt>
      <trkpt lat="49.89515" lon="2.26183">
        <ele>24.4</ele>
        <time>2023-05-26T12:40:21Z</time>
      </trkpt>
      <trkpt lat="49.89514" lon="2.26181">
        <ele>24.4</ele>
        <time>2023-05-26T12:40:23Z</time>
      </trkpt>
      <trkpt lat="49.89513" lon="2.26179">
        <ele>24.4</ele>
        <time>2023-05-26T12:40:24Z</time>
      </trkpt>
      <trkpt lat="49.89513" lon="2.26177">
        <ele>24.4</ele>
        <time>2023-05-26T12:40:25Z</time>
      </trkpt>
      <trkpt lat="49.89512" lon="2.26175">
        <ele>24.4</ele>
        <time>2023-05-26T12:40:26Z</time>
      </trkpt>
      <trkpt lat="49.89511" lon="2.26172">
        <ele>24.5</ele>
        <time>2023-05-26T12:40:27Z</time>
      </trkpt>
      <trkpt lat="49.89511" lon="2.26171">
        <ele>24.5</ele>
        <time>2023-05-26T12:40:28Z</time>
      </trkpt>
      <trkpt lat="49.8951" lon="2.26169">
        <ele>24.5</ele>
        <time>2023-05-26T12:40:29Z</time>
      </trkpt>
      <trkpt lat="49.89509" lon="2.26167">
        <ele>24.5</ele>
        <time>2023-05-26T12:40:31Z</time>
      </trkpt>
      <trkpt lat="49.89509" lon="2.26165">
        <ele>24.5</ele>
        <time>2023-05-26T12:40:32Z</time>
      </trkpt>
      <trkpt lat="49.89508" lon="2.26162">
        <ele>24.5</ele>
        <time>2023-05-26T12:40:33Z</time>
      </trkpt>
      <trkpt lat="49.89508" lon="2.26161">
        <ele>24.5</ele>
        <time>2023-05-26T12:40:34Z</time>
      </trkpt>
      <trkpt lat="49.89507" lon="2.26159">
        <ele>24.5</ele>
        <time>2023-05-26T12:40:35Z</time>
      </trkpt>
      <trkpt lat="49.89507" lon="2.26157">
        <ele>24.5</ele>
        <time>2023-05-26T12:40:36Z</time>
      </trkpt>
      <trkpt lat="49.89506" lon="2.26154">
        <ele>24.5</ele>
        <time>2023-05-26T12:40:38Z</time>
      </trkpt>
      <trkpt lat="49.89505" lon="2.26154">
        <ele>24.5</ele>
        <time>2023-05-26T12:40:39Z</time>
      </trkpt>
      <trkpt lat="49.89505" lon="2.26153">
        <ele>24.5</ele>
        <time>2023-05-26T12:40:40Z</time>
      </trkpt>
      <trkpt lat="49.89504" lon="2.26151">
        <ele>24.5</ele>
        <time>2023-05-26T12:40:41Z</time>
      </trkpt>
      <trkpt lat="49.89504" lon="2.2615">
        <ele>24.5</ele>
        <time>2023-05-26T12:40:42Z</time>
      </trkpt>
      <trkpt lat="49.89503" lon="2.26149">
        <ele>24.5</ele>
        <time>2023-05-26T12:40:43Z</time>
      </trkpt>
      <trkpt lat="49.89503" lon="2.26147">
        <ele>24.5</ele>
        <time>2023-05-26T12:40:45Z</time>
      </trkpt>
      <trkpt lat="49.89502" lon="2.26146">
        <ele>24.5</ele>
        <time>2023-05-26T12:40:46Z</time>
      </trkpt>
      <trkpt lat="49.89502" lon="2.26145">
        <ele>24.6</ele>
        <time>2023-05-26T12:40:47Z</time>
      </trkpt>
      <trkpt lat="49.89501" lon="2.26143">
        <ele>24.6</ele>
        <time>2023-05-26T12:40:48Z</time>
      </trkpt>
      <trkpt lat="49.895" lon="2.26142">
        <ele>24.6</ele>
        <time>2023-05-26T12:40:49Z</time>
      </trkpt>
      <trkpt lat="49.89499" lon="2.26141">
        <ele>24.6</ele>
        <time>2023-05-26T12:40:50Z</time>
      </trkpt>
      <trkpt lat="49.89498" lon="2.26139">
        <ele>24.6</ele>
        <time>2023-05-26T12:40:52Z</time>
      </trkpt>
      <trkpt lat="49.89497" lon="2.26138">
        <ele>24.6</ele>
        <time>2023-05-26T12:40:53Z</time>
      </trkpt>
      <trkpt lat="49.89497" lon="2.26137">
        <ele>24.6</ele>
        <time>2023-05-26T12:40:54Z</time>
      </trkpt>
      <trkpt lat="49.89496" lon="2.26136">
        <ele>24.6</ele>
        <time>2023-05-26T12:40:55Z</time>
      </trkpt>
      <trkpt lat="49.89495" lon="2.26135">
        <ele>24.6</ele>
        <time>2023-05-26T12:40:56Z</time>
      </trkpt>
      <trkpt lat="49.89493" lon="2.26134">
        <ele>24.7</ele>
        <time>2023-05-26T12:40:58Z</time>
      </trkpt>
      <trkpt lat="49.89493" lon="2.26133">
        <ele>24.7</ele>
        <time>2023-05-26T12:40:59Z</time>
      </trkpt>
      <trkpt lat="49.89492" lon="2.26132">
        <ele>24.7</ele>
        <time>2023-05-26T12:41:00Z</time>
      </trkpt>
      <trkpt lat="49.89491" lon="2.26132">
        <ele>24.7</ele>
        <time>2023-05-26T12:41:01Z</time>
      </trkpt>
      <trkpt lat="49.8949" lon="2.26131">
        <ele>24.7</ele>
        <time>2023-05-26T12:41:02Z</time>
      </trkpt>
      <trkpt lat="49.89489" lon="2.2613">
        <ele>24.7</ele>
        <time>2023-05-26T12:41:03Z</time>
      </trkpt>
      <trkpt lat="49.89488" lon="2.26129">
        <ele>24.7</ele>
        <time>2023-05-26T12:41:05Z</time>
      </trkpt>
      <trkpt lat="49.89487" lon="2.26128">
        <ele>24.8</ele>
        <time>2023-05-26T12:41:06Z</time>
      </trkpt>
      <trkpt lat="49.89486" lon="2.26127">
        <ele>24.8</ele>
        <time>2023-05-26T12:41:07Z</time>
      </trkpt>
      <trkpt lat="49.89485" lon="2.26127">
        <ele>24.8</ele>
        <time>2023-05-26T12:41:08Z</time>
      </trkpt>
      <trkpt lat="49.89484" lon="2.26126">
        <ele>24.8</ele>
        <time>2023-05-26T12:41:09Z</time>
      </trkpt>
      <trkpt lat="49.89482" lon="2.26126">
        <ele>24.8</ele>
        <time>2023-05-26T12:41:10Z</time>
      </trkpt>
      <trkpt lat="49.89481" lon="2.26125">
        <ele>24.8</ele>
        <time>2023-05-26T12:41:12Z</time>
      </trkpt>
      <trkpt lat="49.8948" lon="2.26125">
        <ele>24.9</ele>
        <time>2023-05-26T12:41:13Z</time>
      </trkpt>
      <trkpt lat="49.89479" lon="2.26124">
        <ele>24.9</ele>
        <time>2023-05-26T12:41:14Z</time>
      </trkpt>
      <trkpt lat="49.89477" lon="2.26123">
        <ele>24.9</ele>
        <time>2023-05-26T12:41:15Z</time>
      </trkpt>
      <trkpt lat="49.89476" lon="2.26122">
        <ele>24.9</ele>
        <time>2023-05-26T12:41:16Z</time>
      </trkpt>
      <trkpt lat="49.89475" lon="2.26122">
        <ele>24.9</ele>
        <time>2023-05-26T12:41:17Z</time>
      </trkpt>
      <trkpt lat="49.89474" lon="2.26121">
        <ele>24.9</ele>
        <time>2023-05-26T12:41:19Z</time>
      </trkpt>
      <trkpt lat="49.89473" lon="2.2612">
        <ele>25</ele>
        <time>2023-05-26T12:41:20Z</time>
      </trkpt>
      <trkpt lat="49.89472" lon="2.26119">
        <ele>25</ele>
        <time>2023-05-26T12:41:21Z</time>
      </trkpt>
      <trkpt lat="49.89471" lon="2.26118">
        <ele>25</ele>
        <time>2023-05-26T12:41:22Z</time>
      </trkpt>
      <trkpt lat="49.8947" lon="2.26117">
        <ele>25</ele>
        <time>2023-05-26T12:41:23Z</time>
      </trkpt>
      <trkpt lat="49.89469" lon="2.26116">
        <ele>25</ele>
        <time>2023-05-26T12:41:24Z</time>
      </trkpt>
      <trkpt lat="49.89467" lon="2.26115">
        <ele>25</ele>
        <time>2023-05-26T12:41:25Z</time>
      </trkpt>
      <trkpt lat="49.89466" lon="2.26114">
        <ele>25</ele>
        <time>2023-05-26T12:41:26Z</time>
      </trkpt>
      <trkpt lat="49.89465" lon="2.26114">
        <ele>25</ele>
        <time>2023-05-26T12:41:28Z</time>
      </trkpt>
      <trkpt lat="49.89464" lon="2.26113">
        <ele>25</ele>
        <time>2023-05-26T12:41:29Z</time>
      </trkpt>
      <trkpt lat="49.89464" lon="2.26112">
        <ele>25.1</ele>
        <time>2023-05-26T12:41:30Z</time>
      </trkpt>
      <trkpt lat="49.89463" lon="2.26112">
        <ele>25.1</ele>
        <time>2023-05-26T12:41:31Z</time>
      </trkpt>
      <trkpt lat="49.89462" lon="2.26111">
        <ele>25.1</ele>
        <time>2023-05-26T12:41:32Z</time>
      </trkpt>
      <trkpt lat="49.89461" lon="2.2611">
        <ele>25.1</ele>
        <time>2023-05-26T12:41:33Z</time>
      </trkpt>
      <trkpt lat="49.8946" lon="2.26109">
        <ele>25.1</ele>
        <time>2023-05-26T12:41:35Z</time>
      </trkpt>
      <trkpt lat="49.89459" lon="2.26108">
        <ele>25.1</ele>
        <time>2023-05-26T12:41:36Z</time>
      </trkpt>
      <trkpt lat="49.89458" lon="2.26107">
        <ele>25.1</ele>
        <time>2023-05-26T12:41:37Z</time>
      </trkpt>
      <trkpt lat="49.89456" lon="2.26107">
        <ele>25.1</ele>
        <time>2023-05-26T12:41:38Z</time>
      </trkpt>
      <trkpt lat="49.89455" lon="2.26105">
        <ele>25.1</ele>
        <time>2023-05-26T12:41:39Z</time>
      </trkpt>
      <trkpt lat="49.89454" lon="2.26104">
        <ele>25.1</ele>
        <time>2023-05-26T12:41:40Z</time>
      </trkpt>
      <trkpt lat="49.89453" lon="2.26103">
        <ele>25.1</ele>
        <time>2023-05-26T12:41:42Z</time>
      </trkpt>
      <trkpt lat="49.89452" lon="2.26103">
        <ele>25.1</ele>
        <time>2023-05-26T12:41:43Z</time>
      </trkpt>
      <trkpt lat="49.89451" lon="2.26102">
        <ele>25.1</ele>
        <time>2023-05-26T12:41:44Z</time>
      </trkpt>
      <trkpt lat="49.8945" lon="2.26101">
        <ele>25.1</ele>
        <time>2023-05-26T12:41:45Z</time>
      </trkpt>
      <trkpt lat="49.89448" lon="2.26099">
        <ele>25.1</ele>
        <time>2023-05-26T12:41:46Z</time>
      </trkpt>
      <trkpt lat="49.89448" lon="2.26098">
        <ele>25.1</ele>
        <time>2023-05-26T12:41:47Z</time>
      </trkpt>
      <trkpt lat="49.89447" lon="2.26098">
        <ele>25.1</ele>
        <time>2023-05-26T12:41:48Z</time>
      </trkpt>
      <trkpt lat="49.89445" lon="2.26096">
        <ele>25.1</ele>
        <time>2023-05-26T12:41:50Z</time>
      </trkpt>
      <trkpt lat="49.89445" lon="2.26095">
        <ele>25.1</ele>
        <time>2023-05-26T12:41:51Z</time>
      </trkpt>
      <trkpt lat="49.89444" lon="2.26095">
        <ele>25.1</ele>
        <time>2023-05-26T12:41:52Z</time>
      </trkpt>
      <trkpt lat="49.89443" lon="2.26094">
        <ele>25.1</ele>
        <time>2023-05-26T12:41:53Z</time>
      </trkpt>
      <trkpt lat="49.89442" lon="2.26093">
        <ele>25.1</ele>
        <time>2023-05-26T12:41:54Z</time>
      </trkpt>
      <trkpt lat="49.89441" lon="2.26092">
        <ele>25.1</ele>
        <time>2023-05-26T12:41:55Z</time>
      </trkpt>
      <trkpt lat="49.8944" lon="2.26092">
        <ele>25.1</ele>
        <time>2023-05-26T12:41:57Z</time>
      </trkpt>
      <trkpt lat="49.89439" lon="2.26091">
        <ele>25.1</ele>
        <time>2023-05-26T12:41:58Z</time>
      </trkpt>
      <trkpt lat="49.89438" lon="2.2609">
        <ele>25.1</ele>
        <time>2023-05-26T12:41:59Z</time>
      </trkpt>
      <trkpt lat="49.89437" lon="2.26089">
        <ele>25.1</ele>
        <time>2023-05-26T12:42:00Z</time>
      </trkpt>
      <trkpt lat="49.89436" lon="2.26088">
        <ele>25.1</ele>
        <time>2023-05-26T12:42:01Z</time>
      </trkpt>
      <trkpt lat="49.89435" lon="2.26087">
        <ele>25.1</ele>
        <time>2023-05-26T12:42:02Z</time>
      </trkpt>
      <trkpt lat="49.89434" lon="2.26086">
        <ele>25.1</ele>
        <time>2023-05-26T12:42:04Z</time>
      </trkpt>
      <trkpt lat="49.89433" lon="2.26085">
        <ele>25.1</ele>
        <time>2023-05-26T12:42:05Z</time>
      </trkpt>
      <trkpt lat="49.89432" lon="2.26084">
        <ele>25.1</ele>
        <time>2023-05-26T12:42:06Z</time>
      </trkpt>
      <trkpt lat="49.89431" lon="2.26083">
        <ele>25.1</ele>
        <time>2023-05-26T12:42:07Z</time>
      </trkpt>
      <trkpt lat="49.89431" lon="2.26082">
        <ele>25.1</ele>
        <time>2023-05-26T12:42:08Z</time>
      </trkpt>
      <trkpt lat="49.8943" lon="2.26081">
        <ele>25.1</ele>
        <time>2023-05-26T12:42:09Z</time>
      </trkpt>
      <trkpt lat="49.89429" lon="2.2608">
        <ele>25.1</ele>
        <time>2023-05-26T12:42:11Z</time>
      </trkpt>
      <trkpt lat="49.89428" lon="2.26079">
        <ele>25.1</ele>
        <time>2023-05-26T12:42:12Z</time>
      </trkpt>
      <trkpt lat="49.89427" lon="2.26078">
        <ele>25.1</ele>
        <time>2023-05-26T12:42:13Z</time>
      </trkpt>
      <trkpt lat="49.89427" lon="2.26077">
        <ele>25</ele>
        <time>2023-05-26T12:42:14Z</time>
      </trkpt>
      <trkpt lat="49.89426" lon="2.26076">
        <ele>25</ele>
        <time>2023-05-26T12:42:15Z</time>
      </trkpt>
      <trkpt lat="49.89425" lon="2.26075">
        <ele>25</ele>
        <time>2023-05-26T12:42:16Z</time>
      </trkpt>
      <trkpt lat="49.89424" lon="2.26072">
        <ele>25</ele>
        <time>2023-05-26T12:42:17Z</time>
      </trkpt>
      <trkpt lat="49.89424" lon="2.26071">
        <ele>25</ele>
        <time>2023-05-26T12:42:19Z</time>
      </trkpt>
      <trkpt lat="49.89423" lon="2.2607">
        <ele>25</ele>
        <time>2023-05-26T12:42:20Z</time>
      </trkpt>
      <trkpt lat="49.89422" lon="2.26067">
        <ele>25</ele>
        <time>2023-05-26T12:42:21Z</time>
      </trkpt>
      <trkpt lat="49.89422" lon="2.26066">
        <ele>25</ele>
        <time>2023-05-26T12:42:22Z</time>
      </trkpt>
      <trkpt lat="49.89422" lon="2.26064">
        <ele>25</ele>
        <time>2023-05-26T12:42:23Z</time>
      </trkpt>
      <trkpt lat="49.89421" lon="2.26063">
        <ele>25</ele>
        <time>2023-05-26T12:42:24Z</time>
      </trkpt>
      <trkpt lat="49.8942" lon="2.26062">
        <ele>25</ele>
        <time>2023-05-26T12:42:26Z</time>
      </trkpt>
      <trkpt lat="49.8942" lon="2.2606">
        <ele>25</ele>
        <time>2023-05-26T12:42:27Z</time>
      </trkpt>
      <trkpt lat="49.89418" lon="2.26058">
        <ele>25</ele>
        <time>2023-05-26T12:42:28Z</time>
      </trkpt>
      <trkpt lat="49.89418" lon="2.26057">
        <ele>25</ele>
        <time>2023-05-26T12:42:29Z</time>
      </trkpt>
      <trkpt lat="49.89417" lon="2.26056">
        <ele>25</ele>
        <time>2023-05-26T12:42:30Z</time>
      </trkpt>
      <trkpt lat="49.89416" lon="2.26055">
        <ele>25</ele>
        <time>2023-05-26T12:42:32Z</time>
      </trkpt>
      <trkpt lat="49.89415" lon="2.26054">
        <ele>25</ele>
        <time>2023-05-26T12:42:33Z</time>
      </trkpt>
      <trkpt lat="49.89414" lon="2.26054">
        <ele>25</ele>
        <time>2023-05-26T12:42:35Z</time>
      </trkpt>
      <trkpt lat="49.89413" lon="2.26054">
        <ele>25</ele>
        <time>2023-05-26T12:42:36Z</time>
      </trkpt>
      <trkpt lat="49.89413" lon="2.26054">
        <ele>25</ele>
        <time>2023-05-26T12:42:37Z</time>
      </trkpt>
      <trkpt lat="49.89413" lon="2.26055">
        <ele>25</ele>
        <time>2023-05-26T12:42:39Z</time>
      </trkpt>
      <trkpt lat="49.89413" lon="2.26055">
        <ele>25</ele>
        <time>2023-05-26T12:42:41Z</time>
      </trkpt>
      <trkpt lat="49.89413" lon="2.26055">
        <ele>25</ele>
        <time>2023-05-26T12:42:42Z</time>
      </trkpt>
      <trkpt lat="49.89413" lon="2.26055">
        <ele>25</ele>
        <time>2023-05-26T12:42:43Z</time>
      </trkpt>
      <trkpt lat="49.89412" lon="2.26055">
        <ele>25</ele>
        <time>2023-05-26T12:42:45Z</time>
      </trkpt>
      <trkpt lat="49.89411" lon="2.26055">
        <ele>25</ele>
        <time>2023-05-26T12:42:46Z</time>
      </trkpt>
      <trkpt lat="49.8941" lon="2.26056">
        <ele>25</ele>
        <time>2023-05-26T12:42:48Z</time>
      </trkpt>
      <trkpt lat="49.89409" lon="2.26056">
        <ele>25</ele>
        <time>2023-05-26T12:42:49Z</time>
      </trkpt>
      <trkpt lat="49.89408" lon="2.26056">
        <ele>25</ele>
        <time>2023-05-26T12:42:50Z</time>
      </trkpt>
      <trkpt lat="49.89407" lon="2.26057">
        <ele>25</ele>
        <time>2023-05-26T12:42:51Z</time>
      </trkpt>
      <trkpt lat="49.89405" lon="2.26058">
        <ele>25</ele>
        <time>2023-05-26T12:42:52Z</time>
      </trkpt>
      <trkpt lat="49.89404" lon="2.26058">
        <ele>25</ele>
        <time>2023-05-26T12:42:54Z</time>
      </trkpt>
      <trkpt lat="49.89403" lon="2.26059">
        <ele>25</ele>
        <time>2023-05-26T12:42:55Z</time>
      </trkpt>
      <trkpt lat="49.89402" lon="2.26059">
        <ele>25</ele>
        <time>2023-05-26T12:42:56Z</time>
      </trkpt>
      <trkpt lat="49.89401" lon="2.2606">
        <ele>25</ele>
        <time>2023-05-26T12:42:57Z</time>
      </trkpt>
      <trkpt lat="49.894" lon="2.2606">
        <ele>25</ele>
        <time>2023-05-26T12:42:58Z</time>
      </trkpt>
      <trkpt lat="49.89398" lon="2.26061">
        <ele>25</ele>
        <time>2023-05-26T12:42:59Z</time>
      </trkpt>
      <trkpt lat="49.89397" lon="2.26061">
        <ele>25</ele>
        <time>2023-05-26T12:43:01Z</time>
      </trkpt>
      <trkpt lat="49.89396" lon="2.26061">
        <ele>25</ele>
        <time>2023-05-26T12:43:02Z</time>
      </trkpt>
      <trkpt lat="49.89395" lon="2.26062">
        <ele>25</ele>
        <time>2023-05-26T12:43:03Z</time>
      </trkpt>
      <trkpt lat="49.89394" lon="2.26062">
        <ele>25</ele>
        <time>2023-05-26T12:43:04Z</time>
      </trkpt>
      <trkpt lat="49.89393" lon="2.26063">
        <ele>25</ele>
        <time>2023-05-26T12:43:05Z</time>
      </trkpt>
      <trkpt lat="49.89392" lon="2.26063">
        <ele>25</ele>
        <time>2023-05-26T12:43:06Z</time>
      </trkpt>
      <trkpt lat="49.89391" lon="2.26063">
        <ele>25</ele>
        <time>2023-05-26T12:43:08Z</time>
      </trkpt>
      <trkpt lat="49.8939" lon="2.26064">
        <ele>25</ele>
        <time>2023-05-26T12:43:09Z</time>
      </trkpt>
      <trkpt lat="49.89389" lon="2.26064">
        <ele>25</ele>
        <time>2023-05-26T12:43:10Z</time>
      </trkpt>
      <trkpt lat="49.89388" lon="2.26064">
        <ele>25</ele>
        <time>2023-05-26T12:43:11Z</time>
      </trkpt>
      <trkpt lat="49.89387" lon="2.26064">
        <ele>25</ele>
        <time>2023-05-26T12:43:12Z</time>
      </trkpt>
      <trkpt lat="49.89385" lon="2.26065">
        <ele>25.1</ele>
        <time>2023-05-26T12:43:13Z</time>
      </trkpt>
      <trkpt lat="49.89385" lon="2.26065">
        <ele>25.1</ele>
        <time>2023-05-26T12:43:14Z</time>
      </trkpt>
      <trkpt lat="49.89384" lon="2.26065">
        <ele>25.1</ele>
        <time>2023-05-26T12:43:15Z</time>
      </trkpt>
      <trkpt lat="49.89383" lon="2.26066">
        <ele>25.1</ele>
        <time>2023-05-26T12:43:17Z</time>
      </trkpt>
      <trkpt lat="49.89381" lon="2.26066">
        <ele>25.1</ele>
        <time>2023-05-26T12:43:18Z</time>
      </trkpt>
      <trkpt lat="49.8938" lon="2.26067">
        <ele>25.1</ele>
        <time>2023-05-26T12:43:19Z</time>
      </trkpt>
      <trkpt lat="49.89379" lon="2.26067">
        <ele>25.1</ele>
        <time>2023-05-26T12:43:20Z</time>
      </trkpt>
      <trkpt lat="49.89377" lon="2.26068">
        <ele>25.1</ele>
        <time>2023-05-26T12:43:21Z</time>
      </trkpt>
      <trkpt lat="49.89376" lon="2.26069">
        <ele>25.1</ele>
        <time>2023-05-26T12:43:22Z</time>
      </trkpt>
      <trkpt lat="49.89374" lon="2.2607">
        <ele>25.1</ele>
        <time>2023-05-26T12:43:23Z</time>
      </trkpt>
      <trkpt lat="49.89373" lon="2.26071">
        <ele>25.1</ele>
        <time>2023-05-26T12:43:24Z</time>
      </trkpt>
      <trkpt lat="49.89372" lon="2.26073">
        <ele>25.1</ele>
        <time>2023-05-26T12:43:26Z</time>
      </trkpt>
      <trkpt lat="49.89371" lon="2.26074">
        <ele>25.1</ele>
        <time>2023-05-26T12:43:27Z</time>
      </trkpt>
      <trkpt lat="49.8937" lon="2.26074">
        <ele>25.1</ele>
        <time>2023-05-26T12:43:28Z</time>
      </trkpt>
      <trkpt lat="49.89368" lon="2.26076">
        <ele>25.1</ele>
        <time>2023-05-26T12:43:29Z</time>
      </trkpt>
      <trkpt lat="49.89367" lon="2.26076">
        <ele>25.1</ele>
        <time>2023-05-26T12:43:30Z</time>
      </trkpt>
      <trkpt lat="49.89367" lon="2.26077">
        <ele>25.1</ele>
        <time>2023-05-26T12:43:31Z</time>
      </trkpt>
      <trkpt lat="49.89365" lon="2.26077">
        <ele>25.1</ele>
        <time>2023-05-26T12:43:32Z</time>
      </trkpt>
      <trkpt lat="49.89364" lon="2.26078">
        <ele>25.1</ele>
        <time>2023-05-26T12:43:33Z</time>
      </trkpt>
      <trkpt lat="49.89363" lon="2.26079">
        <ele>25.1</ele>
        <time>2023-05-26T12:43:35Z</time>
      </trkpt>
      <trkpt lat="49.89362" lon="2.2608">
        <ele>25.1</ele>
        <time>2023-05-26T12:43:36Z</time>
      </trkpt>
      <trkpt lat="49.89361" lon="2.2608">
        <ele>25.1</ele>
        <time>2023-05-26T12:43:37Z</time>
      </trkpt>
      <trkpt lat="49.8936" lon="2.2608">
        <ele>25.1</ele>
        <time>2023-05-26T12:43:38Z</time>
      </trkpt>
      <trkpt lat="49.89359" lon="2.26078">
        <ele>25.1</ele>
        <time>2023-05-26T12:43:39Z</time>
      </trkpt>
      <trkpt lat="49.89358" lon="2.26077">
        <ele>25.1</ele>
        <time>2023-05-26T12:43:41Z</time>
      </trkpt>
      <trkpt lat="49.89357" lon="2.26077">
        <ele>25.1</ele>
        <time>2023-05-26T12:43:43Z</time>
      </trkpt>
      <trkpt lat="49.89357" lon="2.26078">
        <ele>25.1</ele>
        <time>2023-05-26T12:43:44Z</time>
      </trkpt>
      <trkpt lat="49.89358" lon="2.26079">
        <ele>25</ele>
        <time>2023-05-26T12:43:46Z</time>
      </trkpt>
      <trkpt lat="49.89358" lon="2.2608">
        <ele>25</ele>
        <time>2023-05-26T12:43:47Z</time>
      </trkpt>
      <trkpt lat="49.89357" lon="2.26079">
        <ele>25</ele>
        <time>2023-05-26T12:43:48Z</time>
      </trkpt>
      <trkpt lat="49.89357" lon="2.26078">
        <ele>25</ele>
        <time>2023-05-26T12:43:49Z</time>
      </trkpt>
      <trkpt lat="49.89356" lon="2.26077">
        <ele>25</ele>
        <time>2023-05-26T12:43:50Z</time>
      </trkpt>
      <trkpt lat="49.89355" lon="2.26076">
        <ele>25</ele>
        <time>2023-05-26T12:43:51Z</time>
      </trkpt>
      <trkpt lat="49.89355" lon="2.26075">
        <ele>25</ele>
        <time>2023-05-26T12:43:53Z</time>
      </trkpt>
      <trkpt lat="49.89354" lon="2.26073">
        <ele>25</ele>
        <time>2023-05-26T12:43:54Z</time>
      </trkpt>
      <trkpt lat="49.89353" lon="2.26071">
        <ele>25</ele>
        <time>2023-05-26T12:43:55Z</time>
      </trkpt>
      <trkpt lat="49.89353" lon="2.26068">
        <ele>25</ele>
        <time>2023-05-26T12:43:56Z</time>
      </trkpt>
      <trkpt lat="49.89352" lon="2.26065">
        <ele>25</ele>
        <time>2023-05-26T12:43:57Z</time>
      </trkpt>
      <trkpt lat="49.89352" lon="2.26063">
        <ele>25</ele>
        <time>2023-05-26T12:43:58Z</time>
      </trkpt>
      <trkpt lat="49.89351" lon="2.26062">
        <ele>25</ele>
        <time>2023-05-26T12:43:59Z</time>
      </trkpt>
      <trkpt lat="49.89351" lon="2.2606">
        <ele>25</ele>
        <time>2023-05-26T12:44:01Z</time>
      </trkpt>
      <trkpt lat="49.8935" lon="2.26057">
        <ele>25</ele>
        <time>2023-05-26T12:44:02Z</time>
      </trkpt>
      <trkpt lat="49.89349" lon="2.26055">
        <ele>25</ele>
        <time>2023-05-26T12:44:03Z</time>
      </trkpt>
      <trkpt lat="49.89349" lon="2.26052">
        <ele>25</ele>
        <time>2023-05-26T12:44:04Z</time>
      </trkpt>
      <trkpt lat="49.89348" lon="2.26049">
        <ele>25</ele>
        <time>2023-05-26T12:44:05Z</time>
      </trkpt>
      <trkpt lat="49.89347" lon="2.26048">
        <ele>25</ele>
        <time>2023-05-26T12:44:06Z</time>
      </trkpt>
      <trkpt lat="49.89347" lon="2.26047">
        <ele>25</ele>
        <time>2023-05-26T12:44:07Z</time>
      </trkpt>
      <trkpt lat="49.89346" lon="2.26045">
        <ele>25</ele>
        <time>2023-05-26T12:44:08Z</time>
      </trkpt>
      <trkpt lat="49.89345" lon="2.26042">
        <ele>25</ele>
        <time>2023-05-26T12:44:10Z</time>
      </trkpt>
      <trkpt lat="49.89345" lon="2.2604">
        <ele>25</ele>
        <time>2023-05-26T12:44:11Z</time>
      </trkpt>
      <trkpt lat="49.89344" lon="2.26038">
        <ele>25</ele>
        <time>2023-05-26T12:44:12Z</time>
      </trkpt>
      <trkpt lat="49.89343" lon="2.26036">
        <ele>25</ele>
        <time>2023-05-26T12:44:13Z</time>
      </trkpt>
      <trkpt lat="49.89342" lon="2.26034">
        <ele>25</ele>
        <time>2023-05-26T12:44:14Z</time>
      </trkpt>
      <trkpt lat="49.89342" lon="2.26032">
        <ele>25</ele>
        <time>2023-05-26T12:44:15Z</time>
      </trkpt>
      <trkpt lat="49.89341" lon="2.2603">
        <ele>25</ele>
        <time>2023-05-26T12:44:16Z</time>
      </trkpt>
      <trkpt lat="49.8934" lon="2.26026">
        <ele>25</ele>
        <time>2023-05-26T12:44:17Z</time>
      </trkpt>
      <trkpt lat="49.89339" lon="2.26025">
        <ele>25</ele>
        <time>2023-05-26T12:44:19Z</time>
      </trkpt>
      <trkpt lat="49.89339" lon="2.26023">
        <ele>25</ele>
        <time>2023-05-26T12:44:20Z</time>
      </trkpt>
      <trkpt lat="49.89339" lon="2.26022">
        <ele>25</ele>
        <time>2023-05-26T12:44:21Z</time>
      </trkpt>
      <trkpt lat="49.89338" lon="2.2602">
        <ele>25.1</ele>
        <time>2023-05-26T12:44:22Z</time>
      </trkpt>
      <trkpt lat="49.89337" lon="2.26017">
        <ele>25.1</ele>
        <time>2023-05-26T12:44:23Z</time>
      </trkpt>
      <trkpt lat="49.89337" lon="2.26016">
        <ele>25.1</ele>
        <time>2023-05-26T12:44:24Z</time>
      </trkpt>
      <trkpt lat="49.89337" lon="2.26015">
        <ele>25.1</ele>
        <time>2023-05-26T12:44:25Z</time>
      </trkpt>
      <trkpt lat="49.89336" lon="2.26013">
        <ele>25.1</ele>
        <time>2023-05-26T12:44:27Z</time>
      </trkpt>
      <trkpt lat="49.89336" lon="2.26012">
        <ele>25.1</ele>
        <time>2023-05-26T12:44:28Z</time>
      </trkpt>
      <trkpt lat="49.89336" lon="2.2601">
        <ele>25.1</ele>
        <time>2023-05-26T12:44:29Z</time>
      </trkpt>
      <trkpt lat="49.89335" lon="2.26008">
        <ele>25.1</ele>
        <time>2023-05-26T12:44:30Z</time>
      </trkpt>
      <trkpt lat="49.89335" lon="2.26006">
        <ele>25.1</ele>
        <time>2023-05-26T12:44:31Z</time>
      </trkpt>
      <trkpt lat="49.89334" lon="2.26005">
        <ele>25.1</ele>
        <time>2023-05-26T12:44:32Z</time>
      </trkpt>
      <trkpt lat="49.89334" lon="2.26004">
        <ele>25.1</ele>
        <time>2023-05-26T12:44:33Z</time>
      </trkpt>
      <trkpt lat="49.89333" lon="2.26002">
        <ele>25.1</ele>
        <time>2023-05-26T12:44:35Z</time>
      </trkpt>
      <trkpt lat="49.89332" lon="2.26">
        <ele>25.1</ele>
        <time>2023-05-26T12:44:36Z</time>
      </trkpt>
      <trkpt lat="49.89331" lon="2.25998">
        <ele>25.1</ele>
        <time>2023-05-26T12:44:37Z</time>
      </trkpt>
      <trkpt lat="49.89331" lon="2.25996">
        <ele>25.1</ele>
        <time>2023-05-26T12:44:38Z</time>
      </trkpt>
      <trkpt lat="49.89331" lon="2.25995">
        <ele>25.1</ele>
        <time>2023-05-26T12:44:39Z</time>
      </trkpt>
      <trkpt lat="49.8933" lon="2.25994">
        <ele>25.1</ele>
        <time>2023-05-26T12:44:40Z</time>
      </trkpt>
      <trkpt lat="49.8933" lon="2.25992">
        <ele>25.1</ele>
        <time>2023-05-26T12:44:41Z</time>
      </trkpt>
      <trkpt lat="49.89329" lon="2.2599">
        <ele>25.1</ele>
        <time>2023-05-26T12:44:43Z</time>
      </trkpt>
      <trkpt lat="49.89329" lon="2.25987">
        <ele>25.1</ele>
        <time>2023-05-26T12:44:44Z</time>
      </trkpt>
      <trkpt lat="49.89329" lon="2.25986">
        <ele>25.1</ele>
        <time>2023-05-26T12:44:45Z</time>
      </trkpt>
      <trkpt lat="49.89329" lon="2.25984">
        <ele>25.1</ele>
        <time>2023-05-26T12:44:46Z</time>
      </trkpt>
      <trkpt lat="49.89328" lon="2.25981">
        <ele>25.1</ele>
        <time>2023-05-26T12:44:47Z</time>
      </trkpt>
      <trkpt lat="49.89328" lon="2.2598">
        <ele>25.1</ele>
        <time>2023-05-26T12:44:48Z</time>
      </trkpt>
      <trkpt lat="49.89328" lon="2.25979">
        <ele>25.1</ele>
        <time>2023-05-26T12:44:49Z</time>
      </trkpt>
      <trkpt lat="49.89327" lon="2.25975">
        <ele>25.1</ele>
        <time>2023-05-26T12:44:50Z</time>
      </trkpt>
      <trkpt lat="49.89327" lon="2.25974">
        <ele>25.1</ele>
        <time>2023-05-26T12:44:52Z</time>
      </trkpt>
      <trkpt lat="49.89327" lon="2.25973">
        <ele>25.1</ele>
        <time>2023-05-26T12:44:53Z</time>
      </trkpt>
      <trkpt lat="49.89326" lon="2.2597">
        <ele>25.1</ele>
        <time>2023-05-26T12:44:54Z</time>
      </trkpt>
      <trkpt lat="49.89326" lon="2.25969">
        <ele>25.1</ele>
        <time>2023-05-26T12:44:55Z</time>
      </trkpt>
      <trkpt lat="49.89325" lon="2.25968">
        <ele>25.1</ele>
        <time>2023-05-26T12:44:56Z</time>
      </trkpt>
      <trkpt lat="49.89325" lon="2.25966">
        <ele>25.1</ele>
        <time>2023-05-26T12:44:57Z</time>
      </trkpt>
      <trkpt lat="49.89324" lon="2.25965">
        <ele>25.1</ele>
        <time>2023-05-26T12:44:58Z</time>
      </trkpt>
      <trkpt lat="49.89323" lon="2.25963">
        <ele>25.1</ele>
        <time>2023-05-26T12:44:59Z</time>
      </trkpt>
      <trkpt lat="49.89322" lon="2.25961">
        <ele>25.1</ele>
        <time>2023-05-26T12:45:01Z</time>
      </trkpt>
      <trkpt lat="49.89321" lon="2.25959">
        <ele>25.1</ele>
        <time>2023-05-26T12:45:02Z</time>
      </trkpt>
      <trkpt lat="49.89321" lon="2.25958">
        <ele>25.1</ele>
        <time>2023-05-26T12:45:03Z</time>
      </trkpt>
      <trkpt lat="49.89319" lon="2.25956">
        <ele>25.1</ele>
        <time>2023-05-26T12:45:04Z</time>
      </trkpt>
      <trkpt lat="49.89319" lon="2.25955">
        <ele>25.1</ele>
        <time>2023-05-26T12:45:05Z</time>
      </trkpt>
      <trkpt lat="49.89319" lon="2.25954">
        <ele>25.1</ele>
        <time>2023-05-26T12:45:06Z</time>
      </trkpt>
      <trkpt lat="49.89318" lon="2.25952">
        <ele>25.1</ele>
        <time>2023-05-26T12:45:07Z</time>
      </trkpt>
      <trkpt lat="49.89318" lon="2.2595">
        <ele>25.1</ele>
        <time>2023-05-26T12:45:08Z</time>
      </trkpt>
      <trkpt lat="49.89317" lon="2.25948">
        <ele>25.1</ele>
        <time>2023-05-26T12:45:10Z</time>
      </trkpt>
      <trkpt lat="49.89317" lon="2.25947">
        <ele>25.1</ele>
        <time>2023-05-26T12:45:11Z</time>
      </trkpt>
      <trkpt lat="49.89316" lon="2.25945">
        <ele>25.1</ele>
        <time>2023-05-26T12:45:12Z</time>
      </trkpt>
      <trkpt lat="49.89316" lon="2.25943">
        <ele>25.1</ele>
        <time>2023-05-26T12:45:13Z</time>
      </trkpt>
      <trkpt lat="49.89315" lon="2.25941">
        <ele>25.1</ele>
        <time>2023-05-26T12:45:14Z</time>
      </trkpt>
      <trkpt lat="49.89315" lon="2.25939">
        <ele>25.1</ele>
        <time>2023-05-26T12:45:15Z</time>
      </trkpt>
      <trkpt lat="49.89314" lon="2.25936">
        <ele>25.1</ele>
        <time>2023-05-26T12:45:16Z</time>
      </trkpt>
      <trkpt lat="49.89314" lon="2.25935">
        <ele>25.1</ele>
        <time>2023-05-26T12:45:18Z</time>
      </trkpt>
      <trkpt lat="49.89314" lon="2.25934">
        <ele>25.1</ele>
        <time>2023-05-26T12:45:19Z</time>
      </trkpt>
      <trkpt lat="49.89314" lon="2.25931">
        <ele>25.1</ele>
        <time>2023-05-26T12:45:20Z</time>
      </trkpt>
      <trkpt lat="49.89313" lon="2.25929">
        <ele>25.1</ele>
        <time>2023-05-26T12:45:21Z</time>
      </trkpt>
      <trkpt lat="49.89313" lon="2.25928">
        <ele>25.1</ele>
        <time>2023-05-26T12:45:22Z</time>
      </trkpt>
      <trkpt lat="49.89312" lon="2.25926">
        <ele>25.1</ele>
        <time>2023-05-26T12:45:23Z</time>
      </trkpt>
      <trkpt lat="49.89312" lon="2.25924">
        <ele>25.1</ele>
        <time>2023-05-26T12:45:24Z</time>
      </trkpt>
      <trkpt lat="49.89312" lon="2.25921">
        <ele>25.1</ele>
        <time>2023-05-26T12:45:25Z</time>
      </trkpt>
      <trkpt lat="49.89311" lon="2.2592">
        <ele>25.1</ele>
        <time>2023-05-26T12:45:27Z</time>
      </trkpt>
      <trkpt lat="49.89311" lon="2.25919">
        <ele>25.1</ele>
        <time>2023-05-26T12:45:28Z</time>
      </trkpt>
      <trkpt lat="49.8931" lon="2.25916">
        <ele>25.1</ele>
        <time>2023-05-26T12:45:29Z</time>
      </trkpt>
      <trkpt lat="49.8931" lon="2.25915">
        <ele>25.1</ele>
        <time>2023-05-26T12:45:30Z</time>
      </trkpt>
      <trkpt lat="49.89309" lon="2.25913">
        <ele>25.1</ele>
        <time>2023-05-26T12:45:31Z</time>
      </trkpt>
      <trkpt lat="49.89309" lon="2.25912">
        <ele>25.1</ele>
        <time>2023-05-26T12:45:32Z</time>
      </trkpt>
      <trkpt lat="49.89308" lon="2.2591">
        <ele>25.1</ele>
        <time>2023-05-26T12:45:33Z</time>
      </trkpt>
      <trkpt lat="49.89308" lon="2.25909">
        <ele>25.2</ele>
        <time>2023-05-26T12:45:34Z</time>
      </trkpt>
      <trkpt lat="49.89307" lon="2.25907">
        <ele>25.2</ele>
        <time>2023-05-26T12:45:36Z</time>
      </trkpt>
      <trkpt lat="49.89306" lon="2.25906">
        <ele>25.2</ele>
        <time>2023-05-26T12:45:37Z</time>
      </trkpt>
      <trkpt lat="49.89306" lon="2.25904">
        <ele>25.2</ele>
        <time>2023-05-26T12:45:38Z</time>
      </trkpt>
      <trkpt lat="49.89305" lon="2.25902">
        <ele>25.2</ele>
        <time>2023-05-26T12:45:39Z</time>
      </trkpt>
      <trkpt lat="49.89305" lon="2.25901">
        <ele>25.2</ele>
        <time>2023-05-26T12:45:40Z</time>
      </trkpt>
      <trkpt lat="49.89305" lon="2.25899">
        <ele>25.2</ele>
        <time>2023-05-26T12:45:41Z</time>
      </trkpt>
      <trkpt lat="49.89304" lon="2.25898">
        <ele>25.2</ele>
        <time>2023-05-26T12:45:42Z</time>
      </trkpt>
      <trkpt lat="49.89304" lon="2.25896">
        <ele>25.2</ele>
        <time>2023-05-26T12:45:44Z</time>
      </trkpt>
      <trkpt lat="49.89303" lon="2.25895">
        <ele>25.2</ele>
        <time>2023-05-26T12:45:45Z</time>
      </trkpt>
      <trkpt lat="49.89303" lon="2.25893">
        <ele>25.2</ele>
        <time>2023-05-26T12:45:46Z</time>
      </trkpt>
      <trkpt lat="49.89302" lon="2.25892">
        <ele>25.2</ele>
        <time>2023-05-26T12:45:47Z</time>
      </trkpt>
      <trkpt lat="49.89301" lon="2.25891">
        <ele>25.2</ele>
        <time>2023-05-26T12:45:48Z</time>
      </trkpt>
      <trkpt lat="49.89301" lon="2.2589">
        <ele>25.2</ele>
        <time>2023-05-26T12:45:49Z</time>
      </trkpt>
      <trkpt lat="49.893" lon="2.25888">
        <ele>25.2</ele>
        <time>2023-05-26T12:45:51Z</time>
      </trkpt>
      <trkpt lat="49.89299" lon="2.25887">
        <ele>25.2</ele>
        <time>2023-05-26T12:45:52Z</time>
      </trkpt>
      <trkpt lat="49.89298" lon="2.25886">
        <ele>25.2</ele>
        <time>2023-05-26T12:45:53Z</time>
      </trkpt>
      <trkpt lat="49.89297" lon="2.25885">
        <ele>25.2</ele>
        <time>2023-05-26T12:45:54Z</time>
      </trkpt>
      <trkpt lat="49.89296" lon="2.25885">
        <ele>25.2</ele>
        <time>2023-05-26T12:45:55Z</time>
      </trkpt>
      <trkpt lat="49.89296" lon="2.25884">
        <ele>25.2</ele>
        <time>2023-05-26T12:45:56Z</time>
      </trkpt>
      <trkpt lat="49.89295" lon="2.25883">
        <ele>25.2</ele>
        <time>2023-05-26T12:45:58Z</time>
      </trkpt>
      <trkpt lat="49.89294" lon="2.25882">
        <ele>25.2</ele>
        <time>2023-05-26T12:45:59Z</time>
      </trkpt>
      <trkpt lat="49.89293" lon="2.25881">
        <ele>25.2</ele>
        <time>2023-05-26T12:46:01Z</time>
      </trkpt>
      <trkpt lat="49.89293" lon="2.25882">
        <ele>25.2</ele>
        <time>2023-05-26T12:46:02Z</time>
      </trkpt>
      <trkpt lat="49.89292" lon="2.25883">
        <ele>25.2</ele>
        <time>2023-05-26T12:46:04Z</time>
      </trkpt>
      <trkpt lat="49.89292" lon="2.25883">
        <ele>25.2</ele>
        <time>2023-05-26T12:46:05Z</time>
      </trkpt>
      <trkpt lat="49.89292" lon="2.25883">
        <ele>25.2</ele>
        <time>2023-05-26T12:46:07Z</time>
      </trkpt>
      <trkpt lat="49.89292" lon="2.25883">
        <ele>25.2</ele>
        <time>2023-05-26T12:46:08Z</time>
      </trkpt>
      <trkpt lat="49.89293" lon="2.25884">
        <ele>25.2</ele>
        <time>2023-05-26T12:46:09Z</time>
      </trkpt>
      <trkpt lat="49.89292" lon="2.25884">
        <ele>25.2</ele>
        <time>2023-05-26T12:46:11Z</time>
      </trkpt>
      <trkpt lat="49.89292" lon="2.25884">
        <ele>25.2</ele>
        <time>2023-05-26T12:46:12Z</time>
      </trkpt>
      <trkpt lat="49.89292" lon="2.25884">
        <ele>25.2</ele>
        <time>2023-05-26T12:46:14Z</time>
      </trkpt>
      <trkpt lat="49.89292" lon="2.25884">
        <ele>25.2</ele>
        <time>2023-05-26T12:46:15Z</time>
      </trkpt>
      <trkpt lat="49.89292" lon="2.25884">
        <ele>25.2</ele>
        <time>2023-05-26T12:46:16Z</time>
      </trkpt>
      <trkpt lat="49.89292" lon="2.25884">
        <ele>25.2</ele>
        <time>2023-05-26T12:46:18Z</time>
      </trkpt>
      <trkpt lat="49.89292" lon="2.25884">
        <ele>25.2</ele>
        <time>2023-05-26T12:46:19Z</time>
      </trkpt>
      <trkpt lat="49.89292" lon="2.25884">
        <ele>25.2</ele>
        <time>2023-05-26T12:46:20Z</time>
      </trkpt>
      <trkpt lat="49.89292" lon="2.25884">
        <ele>25.2</ele>
        <time>2023-05-26T12:46:21Z</time>
      </trkpt>
      <trkpt lat="49.89293" lon="2.25884">
        <ele>25.2</ele>
        <time>2023-05-26T12:46:22Z</time>
      </trkpt>
      <trkpt lat="49.89292" lon="2.25885">
        <ele>25.2</ele>
        <time>2023-05-26T12:47:02Z</time>
      </trkpt>
      <trkpt lat="49.89291" lon="2.25885">
        <ele>25.2</ele>
        <time>2023-05-26T12:47:03Z</time>
      </trkpt>
      <trkpt lat="49.8929" lon="2.25885">
        <ele>25.2</ele>
        <time>2023-05-26T12:47:04Z</time>
      </trkpt>
      <trkpt lat="49.8929" lon="2.25886">
        <ele>25.2</ele>
        <time>2023-05-26T12:47:05Z</time>
      </trkpt>
      <trkpt lat="49.89289" lon="2.25886">
        <ele>25.2</ele>
        <time>2023-05-26T12:47:06Z</time>
      </trkpt>
      <trkpt lat="49.89288" lon="2.25886">
        <ele>25.2</ele>
        <time>2023-05-26T12:47:07Z</time>
      </trkpt>
      <trkpt lat="49.89286" lon="2.25886">
        <ele>25.1</ele>
        <time>2023-05-26T12:47:09Z</time>
      </trkpt>
      <trkpt lat="49.89284" lon="2.25887">
        <ele>25.1</ele>
        <time>2023-05-26T12:47:11Z</time>
      </trkpt>
      <trkpt lat="49.89283" lon="2.25887">
        <ele>25.1</ele>
        <time>2023-05-26T12:47:12Z</time>
      </trkpt>
      <trkpt lat="49.89281" lon="2.25887">
        <ele>25.1</ele>
        <time>2023-05-26T12:47:13Z</time>
      </trkpt>
      <trkpt lat="49.8928" lon="2.25888">
        <ele>25.1</ele>
        <time>2023-05-26T12:47:14Z</time>
      </trkpt>
      <trkpt lat="49.89279" lon="2.25888">
        <ele>25.1</ele>
        <time>2023-05-26T12:47:15Z</time>
      </trkpt>
      <trkpt lat="49.89278" lon="2.25889">
        <ele>25.1</ele>
        <time>2023-05-26T12:47:16Z</time>
      </trkpt>
      <trkpt lat="49.89276" lon="2.25891">
        <ele>25.1</ele>
        <time>2023-05-26T12:47:17Z</time>
      </trkpt>
      <trkpt lat="49.89275" lon="2.25892">
        <ele>25</ele>
        <time>2023-05-26T12:47:19Z</time>
      </trkpt>
      <trkpt lat="49.89274" lon="2.25893">
        <ele>25</ele>
        <time>2023-05-26T12:47:20Z</time>
      </trkpt>
      <trkpt lat="49.89273" lon="2.25895">
        <ele>25</ele>
        <time>2023-05-26T12:47:21Z</time>
      </trkpt>
      <trkpt lat="49.89272" lon="2.25896">
        <ele>25</ele>
        <time>2023-05-26T12:47:22Z</time>
      </trkpt>
      <trkpt lat="49.89271" lon="2.25898">
        <ele>25</ele>
        <time>2023-05-26T12:47:23Z</time>
      </trkpt>
      <trkpt lat="49.8927" lon="2.25899">
        <ele>25</ele>
        <time>2023-05-26T12:47:25Z</time>
      </trkpt>
      <trkpt lat="49.89269" lon="2.25901">
        <ele>25</ele>
        <time>2023-05-26T12:47:26Z</time>
      </trkpt>
      <trkpt lat="49.89268" lon="2.25903">
        <ele>25</ele>
        <time>2023-05-26T12:47:27Z</time>
      </trkpt>
      <trkpt lat="49.89267" lon="2.25905">
        <ele>24.9</ele>
        <time>2023-05-26T12:47:28Z</time>
      </trkpt>
      <trkpt lat="49.89266" lon="2.25907">
        <ele>24.9</ele>
        <time>2023-05-26T12:47:29Z</time>
      </trkpt>
      <trkpt lat="49.89265" lon="2.25909">
        <ele>24.9</ele>
        <time>2023-05-26T12:47:31Z</time>
      </trkpt>
      <trkpt lat="49.89264" lon="2.2591">
        <ele>24.9</ele>
        <time>2023-05-26T12:47:32Z</time>
      </trkpt>
      <trkpt lat="49.89263" lon="2.25912">
        <ele>24.9</ele>
        <time>2023-05-26T12:47:33Z</time>
      </trkpt>
      <trkpt lat="49.89261" lon="2.25914">
        <ele>24.9</ele>
        <time>2023-05-26T12:47:34Z</time>
      </trkpt>
      <trkpt lat="49.8926" lon="2.25916">
        <ele>24.9</ele>
        <time>2023-05-26T12:47:35Z</time>
      </trkpt>
      <trkpt lat="49.89259" lon="2.25917">
        <ele>24.9</ele>
        <time>2023-05-26T12:47:36Z</time>
      </trkpt>
      <trkpt lat="49.89258" lon="2.25919">
        <ele>24.8</ele>
        <time>2023-05-26T12:47:38Z</time>
      </trkpt>
      <trkpt lat="49.89257" lon="2.2592">
        <ele>24.8</ele>
        <time>2023-05-26T12:47:39Z</time>
      </trkpt>
      <trkpt lat="49.89256" lon="2.25922">
        <ele>24.8</ele>
        <time>2023-05-26T12:47:40Z</time>
      </trkpt>
      <trkpt lat="49.89255" lon="2.25923">
        <ele>24.8</ele>
        <time>2023-05-26T12:47:41Z</time>
      </trkpt>
      <trkpt lat="49.89253" lon="2.25925">
        <ele>24.8</ele>
        <time>2023-05-26T12:47:42Z</time>
      </trkpt>
      <trkpt lat="49.89252" lon="2.25926">
        <ele>24.8</ele>
        <time>2023-05-26T12:47:44Z</time>
      </trkpt>
      <trkpt lat="49.89251" lon="2.25927">
        <ele>24.8</ele>
        <time>2023-05-26T12:47:45Z</time>
      </trkpt>
      <trkpt lat="49.8925" lon="2.25928">
        <ele>24.8</ele>
        <time>2023-05-26T12:47:46Z</time>
      </trkpt>
      <trkpt lat="49.89249" lon="2.25929">
        <ele>24.8</ele>
        <time>2023-05-26T12:47:47Z</time>
      </trkpt>
      <trkpt lat="49.89248" lon="2.2593">
        <ele>24.7</ele>
        <time>2023-05-26T12:47:48Z</time>
      </trkpt>
      <trkpt lat="49.89247" lon="2.2593">
        <ele>24.7</ele>
        <time>2023-05-26T12:47:50Z</time>
      </trkpt>
      <trkpt lat="49.89246" lon="2.25931">
        <ele>24.7</ele>
        <time>2023-05-26T12:47:51Z</time>
      </trkpt>
      <trkpt lat="49.89244" lon="2.25933">
        <ele>24.7</ele>
        <time>2023-05-26T12:47:52Z</time>
      </trkpt>
      <trkpt lat="49.89243" lon="2.25933">
        <ele>24.7</ele>
        <time>2023-05-26T12:47:53Z</time>
      </trkpt>
      <trkpt lat="49.89242" lon="2.25934">
        <ele>24.7</ele>
        <time>2023-05-26T12:47:54Z</time>
      </trkpt>
      <trkpt lat="49.89241" lon="2.25935">
        <ele>24.7</ele>
        <time>2023-05-26T12:47:56Z</time>
      </trkpt>
      <trkpt lat="49.8924" lon="2.25935">
        <ele>24.7</ele>
        <time>2023-05-26T12:47:57Z</time>
      </trkpt>
      <trkpt lat="49.89239" lon="2.25936">
        <ele>24.7</ele>
        <time>2023-05-26T12:47:58Z</time>
      </trkpt>
      <trkpt lat="49.89238" lon="2.25937">
        <ele>24.7</ele>
        <time>2023-05-26T12:47:59Z</time>
      </trkpt>
      <trkpt lat="49.89237" lon="2.25937">
        <ele>24.6</ele>
        <time>2023-05-26T12:48:00Z</time>
      </trkpt>
      <trkpt lat="49.89236" lon="2.25938">
        <ele>24.6</ele>
        <time>2023-05-26T12:48:02Z</time>
      </trkpt>
      <trkpt lat="49.89235" lon="2.25938">
        <ele>24.6</ele>
        <time>2023-05-26T12:48:03Z</time>
      </trkpt>
      <trkpt lat="49.89234" lon="2.25939">
        <ele>24.6</ele>
        <time>2023-05-26T12:48:04Z</time>
      </trkpt>
      <trkpt lat="49.89233" lon="2.25939">
        <ele>24.6</ele>
        <time>2023-05-26T12:48:05Z</time>
      </trkpt>
      <trkpt lat="49.89232" lon="2.25939">
        <ele>24.6</ele>
        <time>2023-05-26T12:48:06Z</time>
      </trkpt>
      <trkpt lat="49.89231" lon="2.2594">
        <ele>24.6</ele>
        <time>2023-05-26T12:48:08Z</time>
      </trkpt>
      <trkpt lat="49.8923" lon="2.2594">
        <ele>24.6</ele>
        <time>2023-05-26T12:48:09Z</time>
      </trkpt>
      <trkpt lat="49.89229" lon="2.2594">
        <ele>24.6</ele>
        <time>2023-05-26T12:48:10Z</time>
      </trkpt>
      <trkpt lat="49.89228" lon="2.2594">
        <ele>24.6</ele>
        <time>2023-05-26T12:48:11Z</time>
      </trkpt>
      <trkpt lat="49.89228" lon="2.25941">
        <ele>24.6</ele>
        <time>2023-05-26T12:48:12Z</time>
      </trkpt>
      <trkpt lat="49.89227" lon="2.25941">
        <ele>24.6</ele>
        <time>2023-05-26T12:48:14Z</time>
      </trkpt>
      <trkpt lat="49.89226" lon="2.25942">
        <ele>24.6</ele>
        <time>2023-05-26T12:48:15Z</time>
      </trkpt>
      <trkpt lat="49.89225" lon="2.25942">
        <ele>24.6</ele>
        <time>2023-05-26T12:48:16Z</time>
      </trkpt>
      <trkpt lat="49.89225" lon="2.25943">
        <ele>24.6</ele>
        <time>2023-05-26T12:48:17Z</time>
      </trkpt>
      <trkpt lat="49.89224" lon="2.25944">
        <ele>24.6</ele>
        <time>2023-05-26T12:48:18Z</time>
      </trkpt>
      <trkpt lat="49.89223" lon="2.25945">
        <ele>24.6</ele>
        <time>2023-05-26T12:48:19Z</time>
      </trkpt>
      <trkpt lat="49.89222" lon="2.25945">
        <ele>24.6</ele>
        <time>2023-05-26T12:48:21Z</time>
      </trkpt>
      <trkpt lat="49.89221" lon="2.25946">
        <ele>24.6</ele>
        <time>2023-05-26T12:48:22Z</time>
      </trkpt>
      <trkpt lat="49.8922" lon="2.25946">
        <ele>24.6</ele>
        <time>2023-05-26T12:48:23Z</time>
      </trkpt>
      <trkpt lat="49.89219" lon="2.25947">
        <ele>24.6</ele>
        <time>2023-05-26T12:48:24Z</time>
      </trkpt>
      <trkpt lat="49.89218" lon="2.25948">
        <ele>24.6</ele>
        <time>2023-05-26T12:48:25Z</time>
      </trkpt>
      <trkpt lat="49.89217" lon="2.25949">
        <ele>24.6</ele>
        <time>2023-05-26T12:48:27Z</time>
      </trkpt>
      <trkpt lat="49.89217" lon="2.2595">
        <ele>24.6</ele>
        <time>2023-05-26T12:48:28Z</time>
      </trkpt>
      <trkpt lat="49.89216" lon="2.2595">
        <ele>24.6</ele>
        <time>2023-05-26T12:48:29Z</time>
      </trkpt>
      <trkpt lat="49.89215" lon="2.25951">
        <ele>24.6</ele>
        <time>2023-05-26T12:48:30Z</time>
      </trkpt>
      <trkpt lat="49.89214" lon="2.25952">
        <ele>24.6</ele>
        <time>2023-05-26T12:48:31Z</time>
      </trkpt>
      <trkpt lat="49.89213" lon="2.25953">
        <ele>24.6</ele>
        <time>2023-05-26T12:48:33Z</time>
      </trkpt>
      <trkpt lat="49.89212" lon="2.25953">
        <ele>24.6</ele>
        <time>2023-05-26T12:48:34Z</time>
      </trkpt>
      <trkpt lat="49.89211" lon="2.25954">
        <ele>24.6</ele>
        <time>2023-05-26T12:48:35Z</time>
      </trkpt>
      <trkpt lat="49.8921" lon="2.25955">
        <ele>24.6</ele>
        <time>2023-05-26T12:48:36Z</time>
      </trkpt>
      <trkpt lat="49.89209" lon="2.25955">
        <ele>24.6</ele>
        <time>2023-05-26T12:48:37Z</time>
      </trkpt>
      <trkpt lat="49.89208" lon="2.25956">
        <ele>24.6</ele>
        <time>2023-05-26T12:48:39Z</time>
      </trkpt>
      <trkpt lat="49.89207" lon="2.25956">
        <ele>24.6</ele>
        <time>2023-05-26T12:48:40Z</time>
      </trkpt>
      <trkpt lat="49.89206" lon="2.25957">
        <ele>24.6</ele>
        <time>2023-05-26T12:48:41Z</time>
      </trkpt>
      <trkpt lat="49.89205" lon="2.25958">
        <ele>24.6</ele>
        <time>2023-05-26T12:48:42Z</time>
      </trkpt>
      <trkpt lat="49.89204" lon="2.25959">
        <ele>24.6</ele>
        <time>2023-05-26T12:48:43Z</time>
      </trkpt>
      <trkpt lat="49.89204" lon="2.25959">
        <ele>24.6</ele>
        <time>2023-05-26T12:48:44Z</time>
      </trkpt>
      <trkpt lat="49.89203" lon="2.2596">
        <ele>24.6</ele>
        <time>2023-05-26T12:48:45Z</time>
      </trkpt>
      <trkpt lat="49.89203" lon="2.25961">
        <ele>24.6</ele>
        <time>2023-05-26T12:48:47Z</time>
      </trkpt>
      <trkpt lat="49.89202" lon="2.25962">
        <ele>24.6</ele>
        <time>2023-05-26T12:48:48Z</time>
      </trkpt>
      <trkpt lat="49.89202" lon="2.25963">
        <ele>24.6</ele>
        <time>2023-05-26T12:48:49Z</time>
      </trkpt>
      <trkpt lat="49.89201" lon="2.25964">
        <ele>24.6</ele>
        <time>2023-05-26T12:48:50Z</time>
      </trkpt>
      <trkpt lat="49.892" lon="2.25965">
        <ele>24.6</ele>
        <time>2023-05-26T12:48:51Z</time>
      </trkpt>
      <trkpt lat="49.89199" lon="2.25966">
        <ele>24.6</ele>
        <time>2023-05-26T12:48:52Z</time>
      </trkpt>
      <trkpt lat="49.89198" lon="2.25967">
        <ele>24.6</ele>
        <time>2023-05-26T12:48:54Z</time>
      </trkpt>
      <trkpt lat="49.89197" lon="2.25968">
        <ele>24.6</ele>
        <time>2023-05-26T12:48:55Z</time>
      </trkpt>
      <trkpt lat="49.89195" lon="2.25969">
        <ele>24.6</ele>
        <time>2023-05-26T12:48:56Z</time>
      </trkpt>
      <trkpt lat="49.89194" lon="2.2597">
        <ele>24.6</ele>
        <time>2023-05-26T12:48:57Z</time>
      </trkpt>
      <trkpt lat="49.89193" lon="2.2597">
        <ele>24.6</ele>
        <time>2023-05-26T12:48:58Z</time>
      </trkpt>
      <trkpt lat="49.89192" lon="2.25971">
        <ele>24.6</ele>
        <time>2023-05-26T12:49:00Z</time>
      </trkpt>
      <trkpt lat="49.89191" lon="2.25971">
        <ele>24.6</ele>
        <time>2023-05-26T12:49:01Z</time>
      </trkpt>
      <trkpt lat="49.8919" lon="2.25972">
        <ele>24.6</ele>
        <time>2023-05-26T12:49:02Z</time>
      </trkpt>
      <trkpt lat="49.89189" lon="2.25973">
        <ele>24.6</ele>
        <time>2023-05-26T12:49:03Z</time>
      </trkpt>
      <trkpt lat="49.89188" lon="2.25975">
        <ele>24.6</ele>
        <time>2023-05-26T12:49:05Z</time>
      </trkpt>
      <trkpt lat="49.89188" lon="2.25975">
        <ele>24.6</ele>
        <time>2023-05-26T12:49:06Z</time>
      </trkpt>
      <trkpt lat="49.89187" lon="2.25976">
        <ele>24.6</ele>
        <time>2023-05-26T12:49:07Z</time>
      </trkpt>
      <trkpt lat="49.89187" lon="2.25977">
        <ele>24.6</ele>
        <time>2023-05-26T12:49:08Z</time>
      </trkpt>
      <trkpt lat="49.89187" lon="2.25978">
        <ele>24.6</ele>
        <time>2023-05-26T12:49:09Z</time>
      </trkpt>
      <trkpt lat="49.89187" lon="2.25978">
        <ele>24.6</ele>
        <time>2023-05-26T12:49:10Z</time>
      </trkpt>
      <trkpt lat="49.89186" lon="2.25979">
        <ele>24.6</ele>
        <time>2023-05-26T12:49:12Z</time>
      </trkpt>
      <trkpt lat="49.89185" lon="2.25979">
        <ele>24.7</ele>
        <time>2023-05-26T12:49:13Z</time>
      </trkpt>
      <trkpt lat="49.89183" lon="2.2598">
        <ele>24.7</ele>
        <time>2023-05-26T12:49:15Z</time>
      </trkpt>
      <trkpt lat="49.89183" lon="2.25981">
        <ele>24.7</ele>
        <time>2023-05-26T12:49:16Z</time>
      </trkpt>
      <trkpt lat="49.89182" lon="2.25982">
        <ele>24.7</ele>
        <time>2023-05-26T12:49:17Z</time>
      </trkpt>
      <trkpt lat="49.89181" lon="2.25983">
        <ele>24.7</ele>
        <time>2023-05-26T12:49:18Z</time>
      </trkpt>
      <trkpt lat="49.89179" lon="2.25984">
        <ele>24.7</ele>
        <time>2023-05-26T12:49:19Z</time>
      </trkpt>
      <trkpt lat="49.89178" lon="2.25984">
        <ele>24.7</ele>
        <time>2023-05-26T12:49:21Z</time>
      </trkpt>
      <trkpt lat="49.89177" lon="2.25985">
        <ele>24.7</ele>
        <time>2023-05-26T12:49:22Z</time>
      </trkpt>
      <trkpt lat="49.89176" lon="2.25985">
        <ele>24.7</ele>
        <time>2023-05-26T12:49:23Z</time>
      </trkpt>
      <trkpt lat="49.89174" lon="2.25986">
        <ele>24.7</ele>
        <time>2023-05-26T12:49:24Z</time>
      </trkpt>
      <trkpt lat="49.89173" lon="2.25986">
        <ele>24.7</ele>
        <time>2023-05-26T12:49:25Z</time>
      </trkpt>
      <trkpt lat="49.89172" lon="2.25986">
        <ele>24.7</ele>
        <time>2023-05-26T12:49:26Z</time>
      </trkpt>
      <trkpt lat="49.89171" lon="2.25987">
        <ele>24.7</ele>
        <time>2023-05-26T12:49:27Z</time>
      </trkpt>
      <trkpt lat="49.89171" lon="2.25988">
        <ele>24.7</ele>
        <time>2023-05-26T12:49:29Z</time>
      </trkpt>
      <trkpt lat="49.8917" lon="2.25988">
        <ele>24.7</ele>
        <time>2023-05-26T12:49:30Z</time>
      </trkpt>
      <trkpt lat="49.89169" lon="2.25989">
        <ele>24.7</ele>
        <time>2023-05-26T12:49:31Z</time>
      </trkpt>
      <trkpt lat="49.89168" lon="2.25989">
        <ele>24.7</ele>
        <time>2023-05-26T12:49:32Z</time>
      </trkpt>
      <trkpt lat="49.89167" lon="2.2599">
        <ele>24.7</ele>
        <time>2023-05-26T12:49:33Z</time>
      </trkpt>
      <trkpt lat="49.89166" lon="2.25991">
        <ele>24.7</ele>
        <time>2023-05-26T12:49:34Z</time>
      </trkpt>
      <trkpt lat="49.89166" lon="2.25991">
        <ele>24.7</ele>
        <time>2023-05-26T12:49:36Z</time>
      </trkpt>
      <trkpt lat="49.89165" lon="2.25992">
        <ele>24.7</ele>
        <time>2023-05-26T12:49:37Z</time>
      </trkpt>
      <trkpt lat="49.89164" lon="2.25992">
        <ele>24.7</ele>
        <time>2023-05-26T12:49:38Z</time>
      </trkpt>
      <trkpt lat="49.89163" lon="2.25993">
        <ele>24.7</ele>
        <time>2023-05-26T12:49:39Z</time>
      </trkpt>
      <trkpt lat="49.89162" lon="2.25994">
        <ele>24.7</ele>
        <time>2023-05-26T12:49:40Z</time>
      </trkpt>
      <trkpt lat="49.89161" lon="2.25994">
        <ele>24.7</ele>
        <time>2023-05-26T12:49:41Z</time>
      </trkpt>
      <trkpt lat="49.8916" lon="2.25995">
        <ele>24.7</ele>
        <time>2023-05-26T12:49:43Z</time>
      </trkpt>
      <trkpt lat="49.89159" lon="2.25995">
        <ele>24.7</ele>
        <time>2023-05-26T12:49:44Z</time>
      </trkpt>
      <trkpt lat="49.89159" lon="2.25996">
        <ele>24.7</ele>
        <time>2023-05-26T12:49:45Z</time>
      </trkpt>
      <trkpt lat="49.89158" lon="2.25997">
        <ele>24.7</ele>
        <time>2023-05-26T12:49:46Z</time>
      </trkpt>
      <trkpt lat="49.89157" lon="2.25998">
        <ele>24.7</ele>
        <time>2023-05-26T12:49:47Z</time>
      </trkpt>
      <trkpt lat="49.89156" lon="2.25999">
        <ele>24.7</ele>
        <time>2023-05-26T12:49:48Z</time>
      </trkpt>
      <trkpt lat="49.89155" lon="2.26">
        <ele>24.7</ele>
        <time>2023-05-26T12:49:50Z</time>
      </trkpt>
      <trkpt lat="49.89155" lon="2.26001">
        <ele>24.7</ele>
        <time>2023-05-26T12:49:51Z</time>
      </trkpt>
      <trkpt lat="49.89154" lon="2.26003">
        <ele>24.7</ele>
        <time>2023-05-26T12:49:52Z</time>
      </trkpt>
      <trkpt lat="49.89153" lon="2.26004">
        <ele>24.7</ele>
        <time>2023-05-26T12:49:53Z</time>
      </trkpt>
      <trkpt lat="49.89152" lon="2.26005">
        <ele>24.7</ele>
        <time>2023-05-26T12:49:54Z</time>
      </trkpt>
      <trkpt lat="49.89151" lon="2.26007">
        <ele>24.7</ele>
        <time>2023-05-26T12:49:56Z</time>
      </trkpt>
      <trkpt lat="49.8915" lon="2.26008">
        <ele>24.7</ele>
        <time>2023-05-26T12:49:57Z</time>
      </trkpt>
      <trkpt lat="49.89148" lon="2.2601">
        <ele>24.7</ele>
        <time>2023-05-26T12:49:58Z</time>
      </trkpt>
      <trkpt lat="49.89147" lon="2.26011">
        <ele>24.6</ele>
        <time>2023-05-26T12:49:59Z</time>
      </trkpt>
      <trkpt lat="49.89146" lon="2.26012">
        <ele>24.6</ele>
        <time>2023-05-26T12:50:00Z</time>
      </trkpt>
      <trkpt lat="49.89145" lon="2.26013">
        <ele>24.6</ele>
        <time>2023-05-26T12:50:01Z</time>
      </trkpt>
      <trkpt lat="49.89143" lon="2.26015">
        <ele>24.6</ele>
        <time>2023-05-26T12:50:02Z</time>
      </trkpt>
      <trkpt lat="49.89142" lon="2.26016">
        <ele>24.6</ele>
        <time>2023-05-26T12:50:04Z</time>
      </trkpt>
      <trkpt lat="49.89141" lon="2.26018">
        <ele>24.6</ele>
        <time>2023-05-26T12:50:05Z</time>
      </trkpt>
      <trkpt lat="49.8914" lon="2.26019">
        <ele>24.6</ele>
        <time>2023-05-26T12:50:06Z</time>
      </trkpt>
      <trkpt lat="49.89139" lon="2.2602">
        <ele>24.6</ele>
        <time>2023-05-26T12:50:07Z</time>
      </trkpt>
      <trkpt lat="49.89137" lon="2.26022">
        <ele>24.6</ele>
        <time>2023-05-26T12:50:08Z</time>
      </trkpt>
      <trkpt lat="49.89136" lon="2.26024">
        <ele>24.6</ele>
        <time>2023-05-26T12:50:09Z</time>
      </trkpt>
      <trkpt lat="49.89135" lon="2.26024">
        <ele>24.6</ele>
        <time>2023-05-26T12:50:11Z</time>
      </trkpt>
      <trkpt lat="49.89134" lon="2.26025">
        <ele>24.6</ele>
        <time>2023-05-26T12:50:12Z</time>
      </trkpt>
      <trkpt lat="49.89132" lon="2.26027">
        <ele>24.6</ele>
        <time>2023-05-26T12:50:13Z</time>
      </trkpt>
      <trkpt lat="49.89132" lon="2.26027">
        <ele>24.6</ele>
        <time>2023-05-26T12:50:14Z</time>
      </trkpt>
      <trkpt lat="49.89131" lon="2.26028">
        <ele>24.5</ele>
        <time>2023-05-26T12:50:15Z</time>
      </trkpt>
      <trkpt lat="49.8913" lon="2.26029">
        <ele>24.5</ele>
        <time>2023-05-26T12:50:17Z</time>
      </trkpt>
      <trkpt lat="49.89129" lon="2.2603">
        <ele>24.5</ele>
        <time>2023-05-26T12:50:18Z</time>
      </trkpt>
      <trkpt lat="49.89128" lon="2.26031">
        <ele>24.5</ele>
        <time>2023-05-26T12:50:19Z</time>
      </trkpt>
      <trkpt lat="49.89127" lon="2.26034">
        <ele>24.5</ele>
        <time>2023-05-26T12:50:20Z</time>
      </trkpt>
      <trkpt lat="49.89127" lon="2.26035">
        <ele>24.5</ele>
        <time>2023-05-26T12:50:21Z</time>
      </trkpt>
      <trkpt lat="49.89126" lon="2.26036">
        <ele>24.5</ele>
        <time>2023-05-26T12:50:22Z</time>
      </trkpt>
      <trkpt lat="49.89125" lon="2.26037">
        <ele>24.5</ele>
        <time>2023-05-26T12:50:24Z</time>
      </trkpt>
      <trkpt lat="49.89125" lon="2.26038">
        <ele>24.5</ele>
        <time>2023-05-26T12:50:25Z</time>
      </trkpt>
      <trkpt lat="49.89124" lon="2.26039">
        <ele>24.5</ele>
        <time>2023-05-26T12:50:26Z</time>
      </trkpt>
      <trkpt lat="49.89123" lon="2.26041">
        <ele>24.5</ele>
        <time>2023-05-26T12:50:27Z</time>
      </trkpt>
      <trkpt lat="49.89122" lon="2.26042">
        <ele>24.5</ele>
        <time>2023-05-26T12:50:28Z</time>
      </trkpt>
      <trkpt lat="49.89121" lon="2.26043">
        <ele>24.5</ele>
        <time>2023-05-26T12:50:29Z</time>
      </trkpt>
      <trkpt lat="49.89121" lon="2.26044">
        <ele>24.5</ele>
        <time>2023-05-26T12:50:31Z</time>
      </trkpt>
      <trkpt lat="49.8912" lon="2.26045">
        <ele>24.4</ele>
        <time>2023-05-26T12:50:32Z</time>
      </trkpt>
      <trkpt lat="49.89119" lon="2.26046">
        <ele>24.4</ele>
        <time>2023-05-26T12:50:33Z</time>
      </trkpt>
      <trkpt lat="49.89118" lon="2.26047">
        <ele>24.4</ele>
        <time>2023-05-26T12:50:34Z</time>
      </trkpt>
      <trkpt lat="49.89116" lon="2.26047">
        <ele>24.4</ele>
        <time>2023-05-26T12:50:35Z</time>
      </trkpt>
      <trkpt lat="49.89115" lon="2.26048">
        <ele>24.4</ele>
        <time>2023-05-26T12:50:36Z</time>
      </trkpt>
      <trkpt lat="49.89115" lon="2.26048">
        <ele>24.4</ele>
        <time>2023-05-26T12:50:38Z</time>
      </trkpt>
      <trkpt lat="49.89114" lon="2.26048">
        <ele>24.4</ele>
        <time>2023-05-26T12:50:39Z</time>
      </trkpt>
      <trkpt lat="49.89113" lon="2.26049">
        <ele>24.4</ele>
        <time>2023-05-26T12:50:40Z</time>
      </trkpt>
      <trkpt lat="49.89112" lon="2.2605">
        <ele>24.4</ele>
        <time>2023-05-26T12:50:41Z</time>
      </trkpt>
      <trkpt lat="49.89111" lon="2.2605">
        <ele>24.4</ele>
        <time>2023-05-26T12:50:42Z</time>
      </trkpt>
      <trkpt lat="49.8911" lon="2.2605">
        <ele>24.4</ele>
        <time>2023-05-26T12:50:43Z</time>
      </trkpt>
      <trkpt lat="49.89109" lon="2.2605">
        <ele>24.3</ele>
        <time>2023-05-26T12:50:45Z</time>
      </trkpt>
      <trkpt lat="49.89108" lon="2.26051">
        <ele>24.3</ele>
        <time>2023-05-26T12:50:46Z</time>
      </trkpt>
      <trkpt lat="49.89107" lon="2.26051">
        <ele>24.3</ele>
        <time>2023-05-26T12:50:47Z</time>
      </trkpt>
      <trkpt lat="49.89106" lon="2.26052">
        <ele>24.3</ele>
        <time>2023-05-26T12:50:48Z</time>
      </trkpt>
      <trkpt lat="49.89105" lon="2.26053">
        <ele>24.3</ele>
        <time>2023-05-26T12:50:49Z</time>
      </trkpt>
      <trkpt lat="49.89104" lon="2.26054">
        <ele>24.3</ele>
        <time>2023-05-26T12:50:50Z</time>
      </trkpt>
      <trkpt lat="49.89103" lon="2.26055">
        <ele>24.3</ele>
        <time>2023-05-26T12:50:52Z</time>
      </trkpt>
      <trkpt lat="49.89102" lon="2.26056">
        <ele>24.3</ele>
        <time>2023-05-26T12:50:53Z</time>
      </trkpt>
      <trkpt lat="49.89101" lon="2.26057">
        <ele>24.3</ele>
        <time>2023-05-26T12:50:54Z</time>
      </trkpt>
      <trkpt lat="49.891" lon="2.26058">
        <ele>24.3</ele>
        <time>2023-05-26T12:50:55Z</time>
      </trkpt>
      <trkpt lat="49.89099" lon="2.26059">
        <ele>24.3</ele>
        <time>2023-05-26T12:50:56Z</time>
      </trkpt>
      <trkpt lat="49.89098" lon="2.2606">
        <ele>24.2</ele>
        <time>2023-05-26T12:50:57Z</time>
      </trkpt>
      <trkpt lat="49.89098" lon="2.26061">
        <ele>24.2</ele>
        <time>2023-05-26T12:50:59Z</time>
      </trkpt>
      <trkpt lat="49.89097" lon="2.26062">
        <ele>24.2</ele>
        <time>2023-05-26T12:51:00Z</time>
      </trkpt>
      <trkpt lat="49.89096" lon="2.26063">
        <ele>24.2</ele>
        <time>2023-05-26T12:51:01Z</time>
      </trkpt>
      <trkpt lat="49.89095" lon="2.26064">
        <ele>24.2</ele>
        <time>2023-05-26T12:51:02Z</time>
      </trkpt>
      <trkpt lat="49.89094" lon="2.26064">
        <ele>24.2</ele>
        <time>2023-05-26T12:51:03Z</time>
      </trkpt>
      <trkpt lat="49.89093" lon="2.26065">
        <ele>24.2</ele>
        <time>2023-05-26T12:51:05Z</time>
      </trkpt>
      <trkpt lat="49.89092" lon="2.26066">
        <ele>24.2</ele>
        <time>2023-05-26T12:51:06Z</time>
      </trkpt>
      <trkpt lat="49.89091" lon="2.26067">
        <ele>24.2</ele>
        <time>2023-05-26T12:51:07Z</time>
      </trkpt>
      <trkpt lat="49.8909" lon="2.26067">
        <ele>24.1</ele>
        <time>2023-05-26T12:51:08Z</time>
      </trkpt>
      <trkpt lat="49.89089" lon="2.26068">
        <ele>24.1</ele>
        <time>2023-05-26T12:51:09Z</time>
      </trkpt>
      <trkpt lat="49.89088" lon="2.26069">
        <ele>24.1</ele>
        <time>2023-05-26T12:51:10Z</time>
      </trkpt>
      <trkpt lat="49.89086" lon="2.2607">
        <ele>24.1</ele>
        <time>2023-05-26T12:51:12Z</time>
      </trkpt>
      <trkpt lat="49.89086" lon="2.26071">
        <ele>24.1</ele>
        <time>2023-05-26T12:51:13Z</time>
      </trkpt>
      <trkpt lat="49.89085" lon="2.26072">
        <ele>24.1</ele>
        <time>2023-05-26T12:51:14Z</time>
      </trkpt>
      <trkpt lat="49.89083" lon="2.26073">
        <ele>24.1</ele>
        <time>2023-05-26T12:51:15Z</time>
      </trkpt>
      <trkpt lat="49.89082" lon="2.26074">
        <ele>24.1</ele>
        <time>2023-05-26T12:51:16Z</time>
      </trkpt>
      <trkpt lat="49.89081" lon="2.26075">
        <ele>24.1</ele>
        <time>2023-05-26T12:51:17Z</time>
      </trkpt>
      <trkpt lat="49.8908" lon="2.26075">
        <ele>24</ele>
        <time>2023-05-26T12:51:19Z</time>
      </trkpt>
      <trkpt lat="49.89079" lon="2.26076">
        <ele>24</ele>
        <time>2023-05-26T12:51:20Z</time>
      </trkpt>
      <trkpt lat="49.89078" lon="2.26077">
        <ele>24</ele>
        <time>2023-05-26T12:51:21Z</time>
      </trkpt>
      <trkpt lat="49.89077" lon="2.26078">
        <ele>24</ele>
        <time>2023-05-26T12:51:22Z</time>
      </trkpt>
      <trkpt lat="49.89076" lon="2.26079">
        <ele>24</ele>
        <time>2023-05-26T12:51:23Z</time>
      </trkpt>
      <trkpt lat="49.89075" lon="2.2608">
        <ele>24</ele>
        <time>2023-05-26T12:51:24Z</time>
      </trkpt>
      <trkpt lat="49.89075" lon="2.26081">
        <ele>24</ele>
        <time>2023-05-26T12:51:26Z</time>
      </trkpt>
      <trkpt lat="49.89073" lon="2.26083">
        <ele>24</ele>
        <time>2023-05-26T12:51:27Z</time>
      </trkpt>
      <trkpt lat="49.89072" lon="2.26084">
        <ele>24</ele>
        <time>2023-05-26T12:51:28Z</time>
      </trkpt>
      <trkpt lat="49.89071" lon="2.26085">
        <ele>24</ele>
        <time>2023-05-26T12:51:29Z</time>
      </trkpt>
      <trkpt lat="49.8907" lon="2.26086">
        <ele>24</ele>
        <time>2023-05-26T12:51:31Z</time>
      </trkpt>
      <trkpt lat="49.8907" lon="2.26087">
        <ele>24</ele>
        <time>2023-05-26T12:51:32Z</time>
      </trkpt>
      <trkpt lat="49.89069" lon="2.26089">
        <ele>24</ele>
        <time>2023-05-26T12:51:33Z</time>
      </trkpt>
      <trkpt lat="49.89068" lon="2.2609">
        <ele>24</ele>
        <time>2023-05-26T12:51:34Z</time>
      </trkpt>
      <trkpt lat="49.89067" lon="2.26091">
        <ele>24</ele>
        <time>2023-05-26T12:51:35Z</time>
      </trkpt>
      <trkpt lat="49.89066" lon="2.26092">
        <ele>24</ele>
        <time>2023-05-26T12:51:36Z</time>
      </trkpt>
      <trkpt lat="49.89065" lon="2.26093">
        <ele>24</ele>
        <time>2023-05-26T12:51:38Z</time>
      </trkpt>
      <trkpt lat="49.89065" lon="2.26094">
        <ele>24</ele>
        <time>2023-05-26T12:51:39Z</time>
      </trkpt>
      <trkpt lat="49.89064" lon="2.26095">
        <ele>24</ele>
        <time>2023-05-26T12:51:40Z</time>
      </trkpt>
      <trkpt lat="49.89063" lon="2.26096">
        <ele>24</ele>
        <time>2023-05-26T12:51:41Z</time>
      </trkpt>
      <trkpt lat="49.89062" lon="2.26097">
        <ele>24</ele>
        <time>2023-05-26T12:51:42Z</time>
      </trkpt>
      <trkpt lat="49.89061" lon="2.26098">
        <ele>24</ele>
        <time>2023-05-26T12:51:43Z</time>
      </trkpt>
      <trkpt lat="49.8906" lon="2.26099">
        <ele>24</ele>
        <time>2023-05-26T12:51:44Z</time>
      </trkpt>
      <trkpt lat="49.8906" lon="2.261">
        <ele>24</ele>
        <time>2023-05-26T12:51:46Z</time>
      </trkpt>
      <trkpt lat="49.89059" lon="2.26101">
        <ele>24</ele>
        <time>2023-05-26T12:51:47Z</time>
      </trkpt>
      <trkpt lat="49.89058" lon="2.26102">
        <ele>24</ele>
        <time>2023-05-26T12:51:48Z</time>
      </trkpt>
      <trkpt lat="49.89057" lon="2.26103">
        <ele>24</ele>
        <time>2023-05-26T12:51:49Z</time>
      </trkpt>
      <trkpt lat="49.89057" lon="2.26104">
        <ele>24</ele>
        <time>2023-05-26T12:51:51Z</time>
      </trkpt>
      <trkpt lat="49.89056" lon="2.26105">
        <ele>24</ele>
        <time>2023-05-26T12:51:52Z</time>
      </trkpt>
      <trkpt lat="49.89055" lon="2.26106">
        <ele>24</ele>
        <time>2023-05-26T12:51:53Z</time>
      </trkpt>
      <trkpt lat="49.89054" lon="2.26107">
        <ele>24</ele>
        <time>2023-05-26T12:51:54Z</time>
      </trkpt>
      <trkpt lat="49.89053" lon="2.26108">
        <ele>24</ele>
        <time>2023-05-26T12:51:55Z</time>
      </trkpt>
      <trkpt lat="49.89052" lon="2.26108">
        <ele>24</ele>
        <time>2023-05-26T12:51:57Z</time>
      </trkpt>
      <trkpt lat="49.89051" lon="2.26109">
        <ele>24</ele>
        <time>2023-05-26T12:51:58Z</time>
      </trkpt>
      <trkpt lat="49.8905" lon="2.2611">
        <ele>24</ele>
        <time>2023-05-26T12:51:59Z</time>
      </trkpt>
      <trkpt lat="49.89049" lon="2.26111">
        <ele>24</ele>
        <time>2023-05-26T12:52:00Z</time>
      </trkpt>
      <trkpt lat="49.89048" lon="2.26112">
        <ele>24</ele>
        <time>2023-05-26T12:52:02Z</time>
      </trkpt>
      <trkpt lat="49.89046" lon="2.26113">
        <ele>24</ele>
        <time>2023-05-26T12:52:03Z</time>
      </trkpt>
      <trkpt lat="49.89045" lon="2.26115">
        <ele>24.1</ele>
        <time>2023-05-26T12:52:05Z</time>
      </trkpt>
      <trkpt lat="49.89044" lon="2.26116">
        <ele>24.1</ele>
        <time>2023-05-26T12:52:06Z</time>
      </trkpt>
      <trkpt lat="49.89044" lon="2.26117">
        <ele>24.1</ele>
        <time>2023-05-26T12:52:07Z</time>
      </trkpt>
      <trkpt lat="49.89042" lon="2.26119">
        <ele>24.1</ele>
        <time>2023-05-26T12:52:08Z</time>
      </trkpt>
      <trkpt lat="49.89042" lon="2.2612">
        <ele>24.1</ele>
        <time>2023-05-26T12:52:09Z</time>
      </trkpt>
      <trkpt lat="49.89041" lon="2.26122">
        <ele>24.1</ele>
        <time>2023-05-26T12:52:11Z</time>
      </trkpt>
      <trkpt lat="49.89041" lon="2.26123">
        <ele>24.1</ele>
        <time>2023-05-26T12:52:12Z</time>
      </trkpt>
      <trkpt lat="49.8904" lon="2.26124">
        <ele>24.1</ele>
        <time>2023-05-26T12:52:13Z</time>
      </trkpt>
      <trkpt lat="49.89039" lon="2.26126">
        <ele>24.1</ele>
        <time>2023-05-26T12:52:14Z</time>
      </trkpt>
      <trkpt lat="49.89039" lon="2.26127">
        <ele>24.1</ele>
        <time>2023-05-26T12:52:15Z</time>
      </trkpt>
      <trkpt lat="49.89038" lon="2.26128">
        <ele>24.1</ele>
        <time>2023-05-26T12:52:17Z</time>
      </trkpt>
      <trkpt lat="49.89037" lon="2.26128">
        <ele>24.1</ele>
        <time>2023-05-26T12:52:18Z</time>
      </trkpt>
      <trkpt lat="49.89036" lon="2.26128">
        <ele>24.1</ele>
        <time>2023-05-26T12:52:20Z</time>
      </trkpt>
      <trkpt lat="49.89036" lon="2.26129">
        <ele>24.1</ele>
        <time>2023-05-26T12:52:21Z</time>
      </trkpt>
      <trkpt lat="49.89036" lon="2.26129">
        <ele>24.1</ele>
        <time>2023-05-26T12:52:23Z</time>
      </trkpt>
      <trkpt lat="49.89035" lon="2.26129">
        <ele>24.1</ele>
        <time>2023-05-26T12:52:24Z</time>
      </trkpt>
      <trkpt lat="49.89035" lon="2.2613">
        <ele>24.1</ele>
        <time>2023-05-26T12:52:25Z</time>
      </trkpt>
      <trkpt lat="49.89035" lon="2.2613">
        <ele>24.1</ele>
        <time>2023-05-26T12:52:27Z</time>
      </trkpt>
      <trkpt lat="49.89034" lon="2.2613">
        <ele>24.1</ele>
        <time>2023-05-26T12:52:29Z</time>
      </trkpt>
      <trkpt lat="49.89034" lon="2.26131">
        <ele>24.1</ele>
        <time>2023-05-26T12:52:30Z</time>
      </trkpt>
      <trkpt lat="49.89034" lon="2.26131">
        <ele>24.1</ele>
        <time>2023-05-26T12:52:31Z</time>
      </trkpt>
      <trkpt lat="49.89034" lon="2.26131">
        <ele>24.1</ele>
        <time>2023-05-26T12:52:32Z</time>
      </trkpt>
      <trkpt lat="49.89033" lon="2.26132">
        <ele>24.1</ele>
        <time>2023-05-26T12:52:33Z</time>
      </trkpt>
      <trkpt lat="49.89033" lon="2.26132">
        <ele>24.1</ele>
        <time>2023-05-26T12:52:34Z</time>
      </trkpt>
      <trkpt lat="49.89033" lon="2.26132">
        <ele>24.1</ele>
        <time>2023-05-26T12:52:36Z</time>
      </trkpt>
      <trkpt lat="49.89032" lon="2.26133">
        <ele>24.1</ele>
        <time>2023-05-26T12:52:37Z</time>
      </trkpt>
      <trkpt lat="49.89032" lon="2.26133">
        <ele>24.1</ele>
        <time>2023-05-26T12:52:38Z</time>
      </trkpt>
      <trkpt lat="49.89031" lon="2.26134">
        <ele>24.1</ele>
        <time>2023-05-26T12:52:39Z</time>
      </trkpt>
      <trkpt lat="49.89031" lon="2.26136">
        <ele>24.1</ele>
        <time>2023-05-26T12:52:41Z</time>
      </trkpt>
      <trkpt lat="49.8903" lon="2.26137">
        <ele>24.2</ele>
        <time>2023-05-26T12:52:42Z</time>
      </trkpt>
      <trkpt lat="49.89029" lon="2.26139">
        <ele>24.2</ele>
        <time>2023-05-26T12:52:43Z</time>
      </trkpt>
      <trkpt lat="49.89028" lon="2.2614">
        <ele>24.2</ele>
        <time>2023-05-26T12:52:44Z</time>
      </trkpt>
      <trkpt lat="49.89027" lon="2.26142">
        <ele>24.2</ele>
        <time>2023-05-26T12:52:45Z</time>
      </trkpt>
      <trkpt lat="49.89026" lon="2.26143">
        <ele>24.2</ele>
        <time>2023-05-26T12:52:46Z</time>
      </trkpt>
      <trkpt lat="49.89024" lon="2.26145">
        <ele>24.2</ele>
        <time>2023-05-26T12:52:48Z</time>
      </trkpt>
      <trkpt lat="49.89023" lon="2.26146">
        <ele>24.2</ele>
        <time>2023-05-26T12:52:49Z</time>
      </trkpt>
      <trkpt lat="49.89023" lon="2.26146">
        <ele>24.2</ele>
        <time>2023-05-26T12:52:50Z</time>
      </trkpt>
      <trkpt lat="49.89022" lon="2.26148">
        <ele>24.2</ele>
        <time>2023-05-26T12:52:51Z</time>
      </trkpt>
      <trkpt lat="49.89021" lon="2.26149">
        <ele>24.2</ele>
        <time>2023-05-26T12:52:52Z</time>
      </trkpt>
      <trkpt lat="49.8902" lon="2.2615">
        <ele>24.2</ele>
        <time>2023-05-26T12:52:54Z</time>
      </trkpt>
      <trkpt lat="49.89019" lon="2.26151">
        <ele>24.2</ele>
        <time>2023-05-26T12:52:55Z</time>
      </trkpt>
      <trkpt lat="49.89018" lon="2.26152">
        <ele>24.2</ele>
        <time>2023-05-26T12:52:56Z</time>
      </trkpt>
      <trkpt lat="49.89017" lon="2.26153">
        <ele>24.2</ele>
        <time>2023-05-26T12:52:57Z</time>
      </trkpt>
      <trkpt lat="49.89016" lon="2.26154">
        <ele>24.2</ele>
        <time>2023-05-26T12:52:58Z</time>
      </trkpt>
      <trkpt lat="49.89016" lon="2.26155">
        <ele>24.2</ele>
        <time>2023-05-26T12:52:59Z</time>
      </trkpt>
      <trkpt lat="49.89015" lon="2.26157">
        <ele>24.2</ele>
        <time>2023-05-26T12:53:01Z</time>
      </trkpt>
      <trkpt lat="49.89015" lon="2.26158">
        <ele>24.2</ele>
        <time>2023-05-26T12:53:02Z</time>
      </trkpt>
      <trkpt lat="49.89015" lon="2.26159">
        <ele>24.2</ele>
        <time>2023-05-26T12:53:03Z</time>
      </trkpt>
      <trkpt lat="49.89014" lon="2.2616">
        <ele>24.2</ele>
        <time>2023-05-26T12:53:05Z</time>
      </trkpt>
      <trkpt lat="49.89013" lon="2.26162">
        <ele>24.2</ele>
        <time>2023-05-26T12:53:06Z</time>
      </trkpt>
      <trkpt lat="49.89012" lon="2.26163">
        <ele>24.2</ele>
        <time>2023-05-26T12:53:07Z</time>
      </trkpt>
      <trkpt lat="49.89011" lon="2.26163">
        <ele>24.2</ele>
        <time>2023-05-26T12:53:09Z</time>
      </trkpt>
      <trkpt lat="49.8901" lon="2.26163">
        <ele>24.2</ele>
        <time>2023-05-26T12:53:10Z</time>
      </trkpt>
      <trkpt lat="49.89009" lon="2.26164">
        <ele>24.2</ele>
        <time>2023-05-26T12:53:11Z</time>
      </trkpt>
      <trkpt lat="49.89008" lon="2.26164">
        <ele>24.2</ele>
        <time>2023-05-26T12:53:12Z</time>
      </trkpt>
      <trkpt lat="49.89007" lon="2.26165">
        <ele>24.2</ele>
        <time>2023-05-26T12:53:14Z</time>
      </trkpt>
      <trkpt lat="49.89006" lon="2.26165">
        <ele>24.2</ele>
        <time>2023-05-26T12:53:15Z</time>
      </trkpt>
      <trkpt lat="49.89005" lon="2.26166">
        <ele>24.2</ele>
        <time>2023-05-26T12:53:16Z</time>
      </trkpt>
      <trkpt lat="49.89004" lon="2.26166">
        <ele>24.2</ele>
        <time>2023-05-26T12:53:17Z</time>
      </trkpt>
      <trkpt lat="49.89004" lon="2.26167">
        <ele>24.2</ele>
        <time>2023-05-26T12:53:18Z</time>
      </trkpt>
      <trkpt lat="49.89003" lon="2.26167">
        <ele>24.2</ele>
        <time>2023-05-26T12:53:19Z</time>
      </trkpt>
      <trkpt lat="49.89002" lon="2.26167">
        <ele>24.2</ele>
        <time>2023-05-26T12:53:20Z</time>
      </trkpt>
      <trkpt lat="49.89001" lon="2.26168">
        <ele>24.2</ele>
        <time>2023-05-26T12:53:21Z</time>
      </trkpt>
      <trkpt lat="49.89" lon="2.26168">
        <ele>24.2</ele>
        <time>2023-05-26T12:53:22Z</time>
      </trkpt>
      <trkpt lat="49.88999" lon="2.26168">
        <ele>24.2</ele>
        <time>2023-05-26T12:53:24Z</time>
      </trkpt>
      <trkpt lat="49.88998" lon="2.26169">
        <ele>24.2</ele>
        <time>2023-05-26T12:53:25Z</time>
      </trkpt>
      <trkpt lat="49.88997" lon="2.2617">
        <ele>24.2</ele>
        <time>2023-05-26T12:53:26Z</time>
      </trkpt>
      <trkpt lat="49.88996" lon="2.2617">
        <ele>24.2</ele>
        <time>2023-05-26T12:53:27Z</time>
      </trkpt>
      <trkpt lat="49.88994" lon="2.26171">
        <ele>24.2</ele>
        <time>2023-05-26T12:53:28Z</time>
      </trkpt>
      <trkpt lat="49.88993" lon="2.26171">
        <ele>24.2</ele>
        <time>2023-05-26T12:53:29Z</time>
      </trkpt>
      <trkpt lat="49.88992" lon="2.26172">
        <ele>24.2</ele>
        <time>2023-05-26T12:53:30Z</time>
      </trkpt>
      <trkpt lat="49.88992" lon="2.26173">
        <ele>24.2</ele>
        <time>2023-05-26T12:53:32Z</time>
      </trkpt>
      <trkpt lat="49.88991" lon="2.26174">
        <ele>24.2</ele>
        <time>2023-05-26T12:53:33Z</time>
      </trkpt>
      <trkpt lat="49.88989" lon="2.26175">
        <ele>24.2</ele>
        <time>2023-05-26T12:53:34Z</time>
      </trkpt>
      <trkpt lat="49.88988" lon="2.26175">
        <ele>24.2</ele>
        <time>2023-05-26T12:53:35Z</time>
      </trkpt>
      <trkpt lat="49.88987" lon="2.26176">
        <ele>24.2</ele>
        <time>2023-05-26T12:53:36Z</time>
      </trkpt>
      <trkpt lat="49.88986" lon="2.26177">
        <ele>24.2</ele>
        <time>2023-05-26T12:53:37Z</time>
      </trkpt>
      <trkpt lat="49.88985" lon="2.26178">
        <ele>24.2</ele>
        <time>2023-05-26T12:53:39Z</time>
      </trkpt>
      <trkpt lat="49.88984" lon="2.26179">
        <ele>24.2</ele>
        <time>2023-05-26T12:53:40Z</time>
      </trkpt>
      <trkpt lat="49.88983" lon="2.2618">
        <ele>24.2</ele>
        <time>2023-05-26T12:53:41Z</time>
      </trkpt>
      <trkpt lat="49.88982" lon="2.26181">
        <ele>24.2</ele>
        <time>2023-05-26T12:53:42Z</time>
      </trkpt>
      <trkpt lat="49.88981" lon="2.26182">
        <ele>24.2</ele>
        <time>2023-05-26T12:53:43Z</time>
      </trkpt>
      <trkpt lat="49.8898" lon="2.26183">
        <ele>24.2</ele>
        <time>2023-05-26T12:53:45Z</time>
      </trkpt>
      <trkpt lat="49.88979" lon="2.26184">
        <ele>24.2</ele>
        <time>2023-05-26T12:53:46Z</time>
      </trkpt>
      <trkpt lat="49.88978" lon="2.26185">
        <ele>24.2</ele>
        <time>2023-05-26T12:53:47Z</time>
      </trkpt>
      <trkpt lat="49.88976" lon="2.26186">
        <ele>24.2</ele>
        <time>2023-05-26T12:53:48Z</time>
      </trkpt>
      <trkpt lat="49.88975" lon="2.26187">
        <ele>24.2</ele>
        <time>2023-05-26T12:53:49Z</time>
      </trkpt>
      <trkpt lat="49.88975" lon="2.26187">
        <ele>24.2</ele>
        <time>2023-05-26T12:53:50Z</time>
      </trkpt>
      <trkpt lat="49.88973" lon="2.26188">
        <ele>24.2</ele>
        <time>2023-05-26T12:53:51Z</time>
      </trkpt>
      <trkpt lat="49.88972" lon="2.26189">
        <ele>24.2</ele>
        <time>2023-05-26T12:53:53Z</time>
      </trkpt>
      <trkpt lat="49.88971" lon="2.2619">
        <ele>24.2</ele>
        <time>2023-05-26T12:53:54Z</time>
      </trkpt>
      <trkpt lat="49.88969" lon="2.2619">
        <ele>24.2</ele>
        <time>2023-05-26T12:53:55Z</time>
      </trkpt>
      <trkpt lat="49.88967" lon="2.26192">
        <ele>24.2</ele>
        <time>2023-05-26T12:53:56Z</time>
      </trkpt>
      <trkpt lat="49.88967" lon="2.26193">
        <ele>24.2</ele>
        <time>2023-05-26T12:53:57Z</time>
      </trkpt>
      <trkpt lat="49.88966" lon="2.26193">
        <ele>24.2</ele>
        <time>2023-05-26T12:53:58Z</time>
      </trkpt>
      <trkpt lat="49.88965" lon="2.26194">
        <ele>24.2</ele>
        <time>2023-05-26T12:54:00Z</time>
      </trkpt>
      <trkpt lat="49.88963" lon="2.26195">
        <ele>24.2</ele>
        <time>2023-05-26T12:54:01Z</time>
      </trkpt>
      <trkpt lat="49.88962" lon="2.26195">
        <ele>24.2</ele>
        <time>2023-05-26T12:54:02Z</time>
      </trkpt>
      <trkpt lat="49.88961" lon="2.26196">
        <ele>24.2</ele>
        <time>2023-05-26T12:54:03Z</time>
      </trkpt>
      <trkpt lat="49.8896" lon="2.26197">
        <ele>24.2</ele>
        <time>2023-05-26T12:54:04Z</time>
      </trkpt>
      <trkpt lat="49.88959" lon="2.26198">
        <ele>24.2</ele>
        <time>2023-05-26T12:54:05Z</time>
      </trkpt>
      <trkpt lat="49.88958" lon="2.26199">
        <ele>24.2</ele>
        <time>2023-05-26T12:54:06Z</time>
      </trkpt>
      <trkpt lat="49.88957" lon="2.262">
        <ele>24.2</ele>
        <time>2023-05-26T12:54:08Z</time>
      </trkpt>
      <trkpt lat="49.88956" lon="2.26201">
        <ele>24.2</ele>
        <time>2023-05-26T12:54:09Z</time>
      </trkpt>
      <trkpt lat="49.88955" lon="2.26201">
        <ele>24.2</ele>
        <time>2023-05-26T12:54:10Z</time>
      </trkpt>
      <trkpt lat="49.88954" lon="2.26202">
        <ele>24.2</ele>
        <time>2023-05-26T12:54:11Z</time>
      </trkpt>
      <trkpt lat="49.88953" lon="2.26202">
        <ele>24.2</ele>
        <time>2023-05-26T12:54:12Z</time>
      </trkpt>
      <trkpt lat="49.88952" lon="2.26202">
        <ele>24.2</ele>
        <time>2023-05-26T12:54:13Z</time>
      </trkpt>
      <trkpt lat="49.88951" lon="2.26203">
        <ele>24.2</ele>
        <time>2023-05-26T12:54:15Z</time>
      </trkpt>
      <trkpt lat="49.88951" lon="2.26204">
        <ele>24.2</ele>
        <time>2023-05-26T12:54:16Z</time>
      </trkpt>
      <trkpt lat="49.8895" lon="2.26205">
        <ele>24.2</ele>
        <time>2023-05-26T12:54:17Z</time>
      </trkpt>
      <trkpt lat="49.88949" lon="2.26206">
        <ele>24.2</ele>
        <time>2023-05-26T12:54:18Z</time>
      </trkpt>
      <trkpt lat="49.88949" lon="2.26207">
        <ele>24.2</ele>
        <time>2023-05-26T12:54:19Z</time>
      </trkpt>
      <trkpt lat="49.88948" lon="2.26208">
        <ele>24.2</ele>
        <time>2023-05-26T12:54:20Z</time>
      </trkpt>
      <trkpt lat="49.88947" lon="2.26209">
        <ele>24.2</ele>
        <time>2023-05-26T12:54:22Z</time>
      </trkpt>
      <trkpt lat="49.88947" lon="2.2621">
        <ele>24.2</ele>
        <time>2023-05-26T12:54:23Z</time>
      </trkpt>
      <trkpt lat="49.88946" lon="2.26211">
        <ele>24.2</ele>
        <time>2023-05-26T12:54:24Z</time>
      </trkpt>
      <trkpt lat="49.88945" lon="2.26211">
        <ele>24.2</ele>
        <time>2023-05-26T12:54:25Z</time>
      </trkpt>
      <trkpt lat="49.88945" lon="2.26212">
        <ele>24.2</ele>
        <time>2023-05-26T12:54:26Z</time>
      </trkpt>
      <trkpt lat="49.88944" lon="2.26213">
        <ele>24.2</ele>
        <time>2023-05-26T12:54:28Z</time>
      </trkpt>
      <trkpt lat="49.88943" lon="2.26213">
        <ele>24.2</ele>
        <time>2023-05-26T12:54:29Z</time>
      </trkpt>
      <trkpt lat="49.88942" lon="2.26214">
        <ele>24.2</ele>
        <time>2023-05-26T12:54:30Z</time>
      </trkpt>
      <trkpt lat="49.88941" lon="2.26214">
        <ele>24.2</ele>
        <time>2023-05-26T12:54:31Z</time>
      </trkpt>
      <trkpt lat="49.8894" lon="2.26215">
        <ele>24.2</ele>
        <time>2023-05-26T12:54:32Z</time>
      </trkpt>
      <trkpt lat="49.88939" lon="2.26215">
        <ele>24.2</ele>
        <time>2023-05-26T12:54:33Z</time>
      </trkpt>
      <trkpt lat="49.88937" lon="2.26217">
        <ele>24.2</ele>
        <time>2023-05-26T12:54:35Z</time>
      </trkpt>
      <trkpt lat="49.88936" lon="2.26217">
        <ele>24.2</ele>
        <time>2023-05-26T12:54:36Z</time>
      </trkpt>
      <trkpt lat="49.88935" lon="2.26218">
        <ele>24.2</ele>
        <time>2023-05-26T12:54:37Z</time>
      </trkpt>
      <trkpt lat="49.88934" lon="2.26218">
        <ele>24.2</ele>
        <time>2023-05-26T12:54:38Z</time>
      </trkpt>
      <trkpt lat="49.88933" lon="2.26219">
        <ele>24.2</ele>
        <time>2023-05-26T12:54:39Z</time>
      </trkpt>
      <trkpt lat="49.88932" lon="2.26219">
        <ele>24.2</ele>
        <time>2023-05-26T12:54:41Z</time>
      </trkpt>
      <trkpt lat="49.88931" lon="2.2622">
        <ele>24.2</ele>
        <time>2023-05-26T12:54:42Z</time>
      </trkpt>
      <trkpt lat="49.8893" lon="2.26221">
        <ele>24.2</ele>
        <time>2023-05-26T12:54:43Z</time>
      </trkpt>
      <trkpt lat="49.88929" lon="2.26222">
        <ele>24.2</ele>
        <time>2023-05-26T12:54:44Z</time>
      </trkpt>
      <trkpt lat="49.88927" lon="2.26223">
        <ele>24.2</ele>
        <time>2023-05-26T12:54:45Z</time>
      </trkpt>
      <trkpt lat="49.88926" lon="2.26224">
        <ele>24.2</ele>
        <time>2023-05-26T12:54:46Z</time>
      </trkpt>
      <trkpt lat="49.88925" lon="2.26225">
        <ele>24.2</ele>
        <time>2023-05-26T12:54:48Z</time>
      </trkpt>
      <trkpt lat="49.88924" lon="2.26225">
        <ele>24.2</ele>
        <time>2023-05-26T12:54:49Z</time>
      </trkpt>
      <trkpt lat="49.88923" lon="2.26226">
        <ele>24.2</ele>
        <time>2023-05-26T12:54:50Z</time>
      </trkpt>
      <trkpt lat="49.88923" lon="2.26227">
        <ele>24.2</ele>
        <time>2023-05-26T12:54:51Z</time>
      </trkpt>
      <trkpt lat="49.88922" lon="2.26228">
        <ele>24.2</ele>
        <time>2023-05-26T12:54:52Z</time>
      </trkpt>
      <trkpt lat="49.88921" lon="2.26229">
        <ele>24.3</ele>
        <time>2023-05-26T12:54:53Z</time>
      </trkpt>
      <trkpt lat="49.88919" lon="2.2623">
        <ele>24.3</ele>
        <time>2023-05-26T12:54:55Z</time>
      </trkpt>
      <trkpt lat="49.88918" lon="2.26231">
        <ele>24.3</ele>
        <time>2023-05-26T12:54:56Z</time>
      </trkpt>
      <trkpt lat="49.88917" lon="2.26233">
        <ele>24.3</ele>
        <time>2023-05-26T12:54:57Z</time>
      </trkpt>
      <trkpt lat="49.88916" lon="2.26234">
        <ele>24.3</ele>
        <time>2023-05-26T12:54:58Z</time>
      </trkpt>
      <trkpt lat="49.88915" lon="2.26235">
        <ele>24.3</ele>
        <time>2023-05-26T12:54:59Z</time>
      </trkpt>
      <trkpt lat="49.88914" lon="2.26236">
        <ele>24.3</ele>
        <time>2023-05-26T12:55:01Z</time>
      </trkpt>
      <trkpt lat="49.88913" lon="2.26237">
        <ele>24.3</ele>
        <time>2023-05-26T12:55:02Z</time>
      </trkpt>
      <trkpt lat="49.88912" lon="2.26238">
        <ele>24.3</ele>
        <time>2023-05-26T12:55:03Z</time>
      </trkpt>
      <trkpt lat="49.88911" lon="2.26239">
        <ele>24.3</ele>
        <time>2023-05-26T12:55:04Z</time>
      </trkpt>
      <trkpt lat="49.8891" lon="2.26241">
        <ele>24.3</ele>
        <time>2023-05-26T12:55:05Z</time>
      </trkpt>
      <trkpt lat="49.88909" lon="2.26242">
        <ele>24.3</ele>
        <time>2023-05-26T12:55:06Z</time>
      </trkpt>
      <trkpt lat="49.88908" lon="2.26243">
        <ele>24.3</ele>
        <time>2023-05-26T12:55:08Z</time>
      </trkpt>
      <trkpt lat="49.88907" lon="2.26244">
        <ele>24.4</ele>
        <time>2023-05-26T12:55:09Z</time>
      </trkpt>
      <trkpt lat="49.88906" lon="2.26245">
        <ele>24.4</ele>
        <time>2023-05-26T12:55:10Z</time>
      </trkpt>
      <trkpt lat="49.88905" lon="2.26246">
        <ele>24.4</ele>
        <time>2023-05-26T12:55:11Z</time>
      </trkpt>
      <trkpt lat="49.88904" lon="2.26247">
        <ele>24.4</ele>
        <time>2023-05-26T12:55:12Z</time>
      </trkpt>
      <trkpt lat="49.88903" lon="2.26247">
        <ele>24.4</ele>
        <time>2023-05-26T12:55:14Z</time>
      </trkpt>
      <trkpt lat="49.88902" lon="2.26248">
        <ele>24.4</ele>
        <time>2023-05-26T12:55:15Z</time>
      </trkpt>
      <trkpt lat="49.889" lon="2.26249">
        <ele>24.4</ele>
        <time>2023-05-26T12:55:16Z</time>
      </trkpt>
      <trkpt lat="49.88899" lon="2.2625">
        <ele>24.4</ele>
        <time>2023-05-26T12:55:18Z</time>
      </trkpt>
      <trkpt lat="49.88898" lon="2.26251">
        <ele>24.4</ele>
        <time>2023-05-26T12:55:19Z</time>
      </trkpt>
      <trkpt lat="49.88898" lon="2.26253">
        <ele>24.4</ele>
        <time>2023-05-26T12:55:20Z</time>
      </trkpt>
      <trkpt lat="49.88897" lon="2.26254">
        <ele>24.4</ele>
        <time>2023-05-26T12:55:21Z</time>
      </trkpt>
      <trkpt lat="49.88896" lon="2.26255">
        <ele>24.5</ele>
        <time>2023-05-26T12:55:23Z</time>
      </trkpt>
      <trkpt lat="49.88894" lon="2.26257">
        <ele>24.5</ele>
        <time>2023-05-26T12:55:24Z</time>
      </trkpt>
      <trkpt lat="49.88894" lon="2.26259">
        <ele>24.5</ele>
        <time>2023-05-26T12:55:26Z</time>
      </trkpt>
      <trkpt lat="49.88893" lon="2.2626">
        <ele>24.5</ele>
        <time>2023-05-26T12:55:27Z</time>
      </trkpt>
      <trkpt lat="49.88892" lon="2.26262">
        <ele>24.5</ele>
        <time>2023-05-26T12:55:28Z</time>
      </trkpt>
      <trkpt lat="49.88891" lon="2.26263">
        <ele>24.5</ele>
        <time>2023-05-26T12:55:29Z</time>
      </trkpt>
      <trkpt lat="49.88891" lon="2.26264">
        <ele>24.5</ele>
        <time>2023-05-26T12:55:30Z</time>
      </trkpt>
      <trkpt lat="49.8889" lon="2.26266">
        <ele>24.5</ele>
        <time>2023-05-26T12:55:31Z</time>
      </trkpt>
      <trkpt lat="49.88889" lon="2.26267">
        <ele>24.5</ele>
        <time>2023-05-26T12:55:33Z</time>
      </trkpt>
      <trkpt lat="49.88888" lon="2.26269">
        <ele>24.5</ele>
        <time>2023-05-26T12:55:35Z</time>
      </trkpt>
      <trkpt lat="49.88887" lon="2.2627">
        <ele>24.6</ele>
        <time>2023-05-26T12:55:36Z</time>
      </trkpt>
      <trkpt lat="49.88888" lon="2.26271">
        <ele>24.6</ele>
        <time>2023-05-26T12:55:37Z</time>
      </trkpt>
      <trkpt lat="49.88888" lon="2.26272">
        <ele>24.6</ele>
        <time>2023-05-26T12:55:38Z</time>
      </trkpt>
      <trkpt lat="49.88887" lon="2.26273">
        <ele>24.6</ele>
        <time>2023-05-26T12:55:39Z</time>
      </trkpt>
      <trkpt lat="49.88887" lon="2.26274">
        <ele>24.6</ele>
        <time>2023-05-26T12:55:40Z</time>
      </trkpt>
      <trkpt lat="49.88886" lon="2.26274">
        <ele>24.6</ele>
        <time>2023-05-26T12:55:41Z</time>
      </trkpt>
      <trkpt lat="49.88885" lon="2.26275">
        <ele>24.4</ele>
        <time>2023-05-26T12:55:43Z</time>
      </trkpt>
      <trkpt lat="49.88884" lon="2.26276">
        <ele>24.4</ele>
        <time>2023-05-26T12:55:45Z</time>
      </trkpt>
      <trkpt lat="49.88884" lon="2.26277">
        <ele>24.3</ele>
        <time>2023-05-26T12:55:46Z</time>
      </trkpt>
      <trkpt lat="49.88884" lon="2.26278">
        <ele>24.3</ele>
        <time>2023-05-26T12:55:48Z</time>
      </trkpt>
      <trkpt lat="49.88885" lon="2.2628">
        <ele>24.3</ele>
        <time>2023-05-26T12:55:50Z</time>
      </trkpt>
      <trkpt lat="49.88886" lon="2.2628">
        <ele>24.3</ele>
        <time>2023-05-26T12:55:51Z</time>
      </trkpt>
      <trkpt lat="49.88887" lon="2.26281">
        <ele>24.3</ele>
        <time>2023-05-26T12:55:53Z</time>
      </trkpt>
      <trkpt lat="49.88888" lon="2.26281">
        <ele>24.3</ele>
        <time>2023-05-26T12:55:54Z</time>
      </trkpt>
      <trkpt lat="49.88888" lon="2.2628">
        <ele>24.3</ele>
        <time>2023-05-26T12:55:55Z</time>
      </trkpt>
      <trkpt lat="49.88889" lon="2.2628">
        <ele>24.3</ele>
        <time>2023-05-26T12:55:56Z</time>
      </trkpt>
      <trkpt lat="49.88889" lon="2.2628">
        <ele>24.3</ele>
        <time>2023-05-26T12:55:58Z</time>
      </trkpt>
      <trkpt lat="49.88889" lon="2.2628">
        <ele>24.3</ele>
        <time>2023-05-26T12:55:59Z</time>
      </trkpt>
      <trkpt lat="49.8889" lon="2.2628">
        <ele>24.3</ele>
        <time>2023-05-26T12:56:00Z</time>
      </trkpt>
      <trkpt lat="49.8889" lon="2.2628">
        <ele>24.3</ele>
        <time>2023-05-26T12:56:02Z</time>
      </trkpt>
      <trkpt lat="49.8889" lon="2.2628">
        <ele>24.3</ele>
        <time>2023-05-26T12:56:03Z</time>
      </trkpt>
      <trkpt lat="49.88891" lon="2.2628">
        <ele>24.3</ele>
        <time>2023-05-26T12:56:04Z</time>
      </trkpt>
      <trkpt lat="49.88891" lon="2.2628">
        <ele>24.3</ele>
        <time>2023-05-26T12:56:06Z</time>
      </trkpt>
      <trkpt lat="49.88891" lon="2.2628">
        <ele>24.3</ele>
        <time>2023-05-26T12:56:07Z</time>
      </trkpt>
      <trkpt lat="49.88891" lon="2.26279">
        <ele>24.3</ele>
        <time>2023-05-26T12:56:09Z</time>
      </trkpt>
      <trkpt lat="49.88891" lon="2.26278">
        <ele>24.3</ele>
        <time>2023-05-26T12:56:10Z</time>
      </trkpt>
      <trkpt lat="49.88891" lon="2.26278">
        <ele>24.3</ele>
        <time>2023-05-26T12:56:12Z</time>
      </trkpt>
      <trkpt lat="49.88891" lon="2.26278">
        <ele>24.3</ele>
        <time>2023-05-26T12:56:13Z</time>
      </trkpt>
      <trkpt lat="49.88891" lon="2.26277">
        <ele>24.3</ele>
        <time>2023-05-26T12:56:15Z</time>
      </trkpt>
      <trkpt lat="49.88891" lon="2.26277">
        <ele>24.3</ele>
        <time>2023-05-26T12:56:16Z</time>
      </trkpt>
      <trkpt lat="49.8889" lon="2.26277">
        <ele>24.3</ele>
        <time>2023-05-26T12:56:18Z</time>
      </trkpt>
      <trkpt lat="49.88892" lon="2.26276">
        <ele>24.3</ele>
        <time>2023-05-26T12:56:25Z</time>
      </trkpt>
      <trkpt lat="49.88894" lon="2.26276">
        <ele>24.3</ele>
        <time>2023-05-26T12:56:27Z</time>
      </trkpt>
      <trkpt lat="49.88894" lon="2.26276">
        <ele>24.3</ele>
        <time>2023-05-26T12:56:28Z</time>
      </trkpt>
      <trkpt lat="49.88896" lon="2.26279">
        <ele>24.3</ele>
        <time>2023-05-26T12:56:29Z</time>
      </trkpt>
      <trkpt lat="49.88896" lon="2.2628">
        <ele>24.3</ele>
        <time>2023-05-26T12:56:30Z</time>
      </trkpt>
      <trkpt lat="49.88897" lon="2.26281">
        <ele>24.3</ele>
        <time>2023-05-26T12:56:31Z</time>
      </trkpt>
      <trkpt lat="49.88897" lon="2.26283">
        <ele>24.3</ele>
        <time>2023-05-26T12:56:33Z</time>
      </trkpt>
      <trkpt lat="49.88898" lon="2.26284">
        <ele>24.3</ele>
        <time>2023-05-26T12:56:34Z</time>
      </trkpt>
      <trkpt lat="49.88898" lon="2.26285">
        <ele>24.4</ele>
        <time>2023-05-26T12:56:35Z</time>
      </trkpt>
      <trkpt lat="49.88898" lon="2.26286">
        <ele>24.4</ele>
        <time>2023-05-26T12:56:36Z</time>
      </trkpt>
      <trkpt lat="49.88898" lon="2.26287">
        <ele>24.4</ele>
        <time>2023-05-26T12:56:38Z</time>
      </trkpt>
      <trkpt lat="49.88898" lon="2.26287">
        <ele>24.4</ele>
        <time>2023-05-26T12:56:39Z</time>
      </trkpt>
      <trkpt lat="49.88898" lon="2.26288">
        <ele>24.4</ele>
        <time>2023-05-26T12:56:41Z</time>
      </trkpt>
      <trkpt lat="49.88899" lon="2.26288">
        <ele>24.4</ele>
        <time>2023-05-26T12:56:42Z</time>
      </trkpt>
      <trkpt lat="49.88899" lon="2.26289">
        <ele>24.4</ele>
        <time>2023-05-26T12:56:43Z</time>
      </trkpt>
      <trkpt lat="49.889" lon="2.2629">
        <ele>24.4</ele>
        <time>2023-05-26T12:56:44Z</time>
      </trkpt>
      <trkpt lat="49.889" lon="2.26291">
        <ele>24.4</ele>
        <time>2023-05-26T12:56:45Z</time>
      </trkpt>
      <trkpt lat="49.88901" lon="2.26292">
        <ele>24.4</ele>
        <time>2023-05-26T12:56:47Z</time>
      </trkpt>
      <trkpt lat="49.88901" lon="2.26293">
        <ele>24.4</ele>
        <time>2023-05-26T12:56:48Z</time>
      </trkpt>
      <trkpt lat="49.88902" lon="2.26295">
        <ele>24.4</ele>
        <time>2023-05-26T12:56:49Z</time>
      </trkpt>
      <trkpt lat="49.88902" lon="2.26296">
        <ele>24.4</ele>
        <time>2023-05-26T12:56:50Z</time>
      </trkpt>
      <trkpt lat="49.88903" lon="2.26298">
        <ele>24.4</ele>
        <time>2023-05-26T12:56:52Z</time>
      </trkpt>
      <trkpt lat="49.88903" lon="2.26299">
        <ele>24.4</ele>
        <time>2023-05-26T12:56:53Z</time>
      </trkpt>
      <trkpt lat="49.88904" lon="2.263">
        <ele>24.4</ele>
        <time>2023-05-26T12:56:54Z</time>
      </trkpt>
      <trkpt lat="49.88905" lon="2.26301">
        <ele>24.5</ele>
        <time>2023-05-26T12:56:56Z</time>
      </trkpt>
      <trkpt lat="49.88906" lon="2.26301">
        <ele>24.5</ele>
        <time>2023-05-26T12:56:58Z</time>
      </trkpt>
      <trkpt lat="49.88906" lon="2.26302">
        <ele>24.5</ele>
        <time>2023-05-26T12:56:59Z</time>
      </trkpt>
      <trkpt lat="49.88905" lon="2.26302">
        <ele>24.5</ele>
        <time>2023-05-26T12:57:01Z</time>
      </trkpt>
      <trkpt lat="49.88905" lon="2.26302">
        <ele>24.5</ele>
        <time>2023-05-26T12:57:02Z</time>
      </trkpt>
      <trkpt lat="49.88905" lon="2.26302">
        <ele>24.5</ele>
        <time>2023-05-26T12:57:03Z</time>
      </trkpt>
      <trkpt lat="49.88904" lon="2.26303">
        <ele>24.5</ele>
        <time>2023-05-26T12:57:05Z</time>
      </trkpt>
      <trkpt lat="49.88904" lon="2.26303">
        <ele>24.5</ele>
        <time>2023-05-26T12:57:06Z</time>
      </trkpt>
      <trkpt lat="49.88905" lon="2.26305">
        <ele>24.5</ele>
        <time>2023-05-26T12:57:08Z</time>
      </trkpt>
      <trkpt lat="49.88905" lon="2.26305">
        <ele>24.5</ele>
        <time>2023-05-26T12:57:09Z</time>
      </trkpt>
      <trkpt lat="49.88905" lon="2.26306">
        <ele>24.5</ele>
        <time>2023-05-26T12:57:10Z</time>
      </trkpt>
      <trkpt lat="49.88905" lon="2.26307">
        <ele>24.5</ele>
        <time>2023-05-26T12:57:11Z</time>
      </trkpt>
      <trkpt lat="49.88905" lon="2.26308">
        <ele>24.5</ele>
        <time>2023-05-26T12:57:12Z</time>
      </trkpt>
      <trkpt lat="49.88906" lon="2.26309">
        <ele>24.5</ele>
        <time>2023-05-26T12:57:14Z</time>
      </trkpt>
      <trkpt lat="49.88907" lon="2.2631">
        <ele>24.5</ele>
        <time>2023-05-26T12:57:15Z</time>
      </trkpt>
      <trkpt lat="49.88907" lon="2.2631">
        <ele>24.5</ele>
        <time>2023-05-26T12:57:17Z</time>
      </trkpt>
      <trkpt lat="49.88908" lon="2.2631">
        <ele>25</ele>
        <time>2023-05-26T12:57:19Z</time>
      </trkpt>
      <trkpt lat="49.88908" lon="2.2631">
        <ele>25</ele>
        <time>2023-05-26T12:57:20Z</time>
      </trkpt>
      <trkpt lat="49.88908" lon="2.2631">
        <ele>25</ele>
        <time>2023-05-26T12:57:21Z</time>
      </trkpt>
      <trkpt lat="49.88908" lon="2.2631">
        <ele>25</ele>
        <time>2023-05-26T12:57:23Z</time>
      </trkpt>
      <trkpt lat="49.88908" lon="2.2631">
        <ele>25</ele>
        <time>2023-05-26T12:57:24Z</time>
      </trkpt>
      <trkpt lat="49.88908" lon="2.2631">
        <ele>25</ele>
        <time>2023-05-26T12:57:26Z</time>
      </trkpt>
      <trkpt lat="49.88908" lon="2.2631">
        <ele>25</ele>
        <time>2023-05-26T12:57:27Z</time>
      </trkpt>
      <trkpt lat="49.88908" lon="2.2631">
        <ele>25</ele>
        <time>2023-05-26T12:57:28Z</time>
      </trkpt>
      <trkpt lat="49.88908" lon="2.2631">
        <ele>25</ele>
        <time>2023-05-26T12:57:30Z</time>
      </trkpt>
      <trkpt lat="49.88908" lon="2.2631">
        <ele>25</ele>
        <time>2023-05-26T12:57:31Z</time>
      </trkpt>
      <trkpt lat="49.88908" lon="2.26311">
        <ele>25</ele>
        <time>2023-05-26T12:57:32Z</time>
      </trkpt>
      <trkpt lat="49.88909" lon="2.26311">
        <ele>25</ele>
        <time>2023-05-26T12:57:34Z</time>
      </trkpt>
      <trkpt lat="49.8891" lon="2.2631">
        <ele>25</ele>
        <time>2023-05-26T12:57:36Z</time>
      </trkpt>
      <trkpt lat="49.8891" lon="2.26309">
        <ele>25</ele>
        <time>2023-05-26T12:57:37Z</time>
      </trkpt>
      <trkpt lat="49.8891" lon="2.26308">
        <ele>25</ele>
        <time>2023-05-26T12:57:39Z</time>
      </trkpt>
      <trkpt lat="49.8891" lon="2.26308">
        <ele>25</ele>
        <time>2023-05-26T12:57:40Z</time>
      </trkpt>
      <trkpt lat="49.8891" lon="2.26308">
        <ele>25</ele>
        <time>2023-05-26T12:57:41Z</time>
      </trkpt>
      <trkpt lat="49.8891" lon="2.26308">
        <ele>25.1</ele>
        <time>2023-05-26T12:57:43Z</time>
      </trkpt>
      <trkpt lat="49.8891" lon="2.26309">
        <ele>25.1</ele>
        <time>2023-05-26T12:57:44Z</time>
      </trkpt>
      <trkpt lat="49.8891" lon="2.2631">
        <ele>25.1</ele>
        <time>2023-05-26T12:57:45Z</time>
      </trkpt>
      <trkpt lat="49.8891" lon="2.2631">
        <ele>25.1</ele>
        <time>2023-05-26T12:57:46Z</time>
      </trkpt>
      <trkpt lat="49.88911" lon="2.26311">
        <ele>25.1</ele>
        <time>2023-05-26T12:57:48Z</time>
      </trkpt>
      <trkpt lat="49.88911" lon="2.26311">
        <ele>25.1</ele>
        <time>2023-05-26T12:57:49Z</time>
      </trkpt>
      <trkpt lat="49.88912" lon="2.26311">
        <ele>25.1</ele>
        <time>2023-05-26T12:57:50Z</time>
      </trkpt>
      <trkpt lat="49.88912" lon="2.2631">
        <ele>25.1</ele>
        <time>2023-05-26T12:57:51Z</time>
      </trkpt>
      <trkpt lat="49.88914" lon="2.2631">
        <ele>25.1</ele>
        <time>2023-05-26T12:57:53Z</time>
      </trkpt>
      <trkpt lat="49.88914" lon="2.2631">
        <ele>25.1</ele>
        <time>2023-05-26T12:57:54Z</time>
      </trkpt>
      <trkpt lat="49.88915" lon="2.2631">
        <ele>25.1</ele>
        <time>2023-05-26T12:57:56Z</time>
      </trkpt>
      <trkpt lat="49.88915" lon="2.2631">
        <ele>25.1</ele>
        <time>2023-05-26T12:57:57Z</time>
      </trkpt>
      <trkpt lat="49.88916" lon="2.2631">
        <ele>25.1</ele>
        <time>2023-05-26T12:57:58Z</time>
      </trkpt>
      <trkpt lat="49.88917" lon="2.2631">
        <ele>25.1</ele>
        <time>2023-05-26T12:58:00Z</time>
      </trkpt>
      <trkpt lat="49.88917" lon="2.2631">
        <ele>25.1</ele>
        <time>2023-05-26T12:58:01Z</time>
      </trkpt>
      <trkpt lat="49.88918" lon="2.26311">
        <ele>25.1</ele>
        <time>2023-05-26T12:58:02Z</time>
      </trkpt>
      <trkpt lat="49.88919" lon="2.26311">
        <ele>25.1</ele>
        <time>2023-05-26T12:58:03Z</time>
      </trkpt>
      <trkpt lat="49.88919" lon="2.26311">
        <ele>25.1</ele>
        <time>2023-05-26T12:58:04Z</time>
      </trkpt>
      <trkpt lat="49.88921" lon="2.2631">
        <ele>25.2</ele>
        <time>2023-05-26T12:58:06Z</time>
      </trkpt>
      <trkpt lat="49.88922" lon="2.2631">
        <ele>25.2</ele>
        <time>2023-05-26T12:58:07Z</time>
      </trkpt>
      <trkpt lat="49.88923" lon="2.2631">
        <ele>25.2</ele>
        <time>2023-05-26T12:58:08Z</time>
      </trkpt>
      <trkpt lat="49.88924" lon="2.26309">
        <ele>25.2</ele>
        <time>2023-05-26T12:58:09Z</time>
      </trkpt>
      <trkpt lat="49.88925" lon="2.26308">
        <ele>25.2</ele>
        <time>2023-05-26T12:58:10Z</time>
      </trkpt>
      <trkpt lat="49.88926" lon="2.26307">
        <ele>25.2</ele>
        <time>2023-05-26T12:58:12Z</time>
      </trkpt>
      <trkpt lat="49.88926" lon="2.26306">
        <ele>25.2</ele>
        <time>2023-05-26T12:58:13Z</time>
      </trkpt>
      <trkpt lat="49.88927" lon="2.26304">
        <ele>25.2</ele>
        <time>2023-05-26T12:58:14Z</time>
      </trkpt>
      <trkpt lat="49.88927" lon="2.26302">
        <ele>25.2</ele>
        <time>2023-05-26T12:58:15Z</time>
      </trkpt>
      <trkpt lat="49.88928" lon="2.26301">
        <ele>25.2</ele>
        <time>2023-05-26T12:58:16Z</time>
      </trkpt>
      <trkpt lat="49.88929" lon="2.263">
        <ele>25.3</ele>
        <time>2023-05-26T12:58:17Z</time>
      </trkpt>
      <trkpt lat="49.88929" lon="2.26299">
        <ele>25.3</ele>
        <time>2023-05-26T12:58:18Z</time>
      </trkpt>
      <trkpt lat="49.88931" lon="2.26297">
        <ele>25.3</ele>
        <time>2023-05-26T12:58:20Z</time>
      </trkpt>
      <trkpt lat="49.88932" lon="2.26297">
        <ele>25.3</ele>
        <time>2023-05-26T12:58:21Z</time>
      </trkpt>
      <trkpt lat="49.88933" lon="2.26297">
        <ele>25.3</ele>
        <time>2023-05-26T12:58:22Z</time>
      </trkpt>
      <trkpt lat="49.88936" lon="2.26295">
        <ele>25.4</ele>
        <time>2023-05-26T12:58:23Z</time>
      </trkpt>
      <trkpt lat="49.88937" lon="2.26294">
        <ele>25.4</ele>
        <time>2023-05-26T12:58:24Z</time>
      </trkpt>
      <trkpt lat="49.88939" lon="2.26292">
        <ele>25.4</ele>
        <time>2023-05-26T12:58:25Z</time>
      </trkpt>
      <trkpt lat="49.8894" lon="2.26291">
        <ele>25.4</ele>
        <time>2023-05-26T12:58:26Z</time>
      </trkpt>
      <trkpt lat="49.88942" lon="2.26288">
        <ele>25.5</ele>
        <time>2023-05-26T12:58:27Z</time>
      </trkpt>
      <trkpt lat="49.88943" lon="2.26287">
        <ele>25.5</ele>
        <time>2023-05-26T12:58:28Z</time>
      </trkpt>
      <trkpt lat="49.88945" lon="2.26284">
        <ele>25.5</ele>
        <time>2023-05-26T12:58:29Z</time>
      </trkpt>
      <trkpt lat="49.88946" lon="2.26283">
        <ele>25.5</ele>
        <time>2023-05-26T12:58:30Z</time>
      </trkpt>
      <trkpt lat="49.88947" lon="2.26281">
        <ele>25.6</ele>
        <time>2023-05-26T12:58:31Z</time>
      </trkpt>
      <trkpt lat="49.88948" lon="2.26279">
        <ele>25.6</ele>
        <time>2023-05-26T12:58:33Z</time>
      </trkpt>
      <trkpt lat="49.88951" lon="2.26276">
        <ele>25.6</ele>
        <time>2023-05-26T12:58:34Z</time>
      </trkpt>
      <trkpt lat="49.88951" lon="2.26275">
        <ele>25.7</ele>
        <time>2023-05-26T12:58:35Z</time>
      </trkpt>
      <trkpt lat="49.88953" lon="2.26272">
        <ele>25.7</ele>
        <time>2023-05-26T12:58:36Z</time>
      </trkpt>
      <trkpt lat="49.88954" lon="2.26271">
        <ele>25.7</ele>
        <time>2023-05-26T12:58:37Z</time>
      </trkpt>
      <trkpt lat="49.88955" lon="2.2627">
        <ele>25.7</ele>
        <time>2023-05-26T12:58:38Z</time>
      </trkpt>
      <trkpt lat="49.88956" lon="2.26268">
        <ele>25.8</ele>
        <time>2023-05-26T12:58:39Z</time>
      </trkpt>
      <trkpt lat="49.88958" lon="2.26265">
        <ele>25.8</ele>
        <time>2023-05-26T12:58:40Z</time>
      </trkpt>
      <trkpt lat="49.88959" lon="2.26264">
        <ele>25.8</ele>
        <time>2023-05-26T12:58:41Z</time>
      </trkpt>
      <trkpt lat="49.88961" lon="2.26263">
        <ele>25.8</ele>
        <time>2023-05-26T12:58:43Z</time>
      </trkpt>
      <trkpt lat="49.88962" lon="2.26263">
        <ele>25.9</ele>
        <time>2023-05-26T12:58:44Z</time>
      </trkpt>
      <trkpt lat="49.88963" lon="2.26264">
        <ele>25.9</ele>
        <time>2023-05-26T12:58:45Z</time>
      </trkpt>
      <trkpt lat="49.88964" lon="2.26266">
        <ele>25.9</ele>
        <time>2023-05-26T12:58:46Z</time>
      </trkpt>
      <trkpt lat="49.88965" lon="2.26268">
        <ele>25.9</ele>
        <time>2023-05-26T12:58:47Z</time>
      </trkpt>
      <trkpt lat="49.88967" lon="2.2627">
        <ele>25.8</ele>
        <time>2023-05-26T12:58:48Z</time>
      </trkpt>
      <trkpt lat="49.88968" lon="2.26272">
        <ele>25.8</ele>
        <time>2023-05-26T12:58:49Z</time>
      </trkpt>
      <trkpt lat="49.88969" lon="2.26273">
        <ele>25.8</ele>
        <time>2023-05-26T12:58:50Z</time>
      </trkpt>
      <trkpt lat="49.8897" lon="2.26274">
        <ele>25.8</ele>
        <time>2023-05-26T12:58:51Z</time>
      </trkpt>
      <trkpt lat="49.88971" lon="2.26276">
        <ele>25.8</ele>
        <time>2023-05-26T12:58:52Z</time>
      </trkpt>
      <trkpt lat="49.88972" lon="2.26278">
        <ele>25.8</ele>
        <time>2023-05-26T12:58:53Z</time>
      </trkpt>
      <trkpt lat="49.88973" lon="2.2628">
        <ele>25.8</ele>
        <time>2023-05-26T12:58:54Z</time>
      </trkpt>
      <trkpt lat="49.88974" lon="2.26282">
        <ele>25.8</ele>
        <time>2023-05-26T12:58:55Z</time>
      </trkpt>
      <trkpt lat="49.88975" lon="2.26284">
        <ele>25.8</ele>
        <time>2023-05-26T12:58:56Z</time>
      </trkpt>
      <trkpt lat="49.88975" lon="2.26289">
        <ele>25.8</ele>
        <time>2023-05-26T12:58:58Z</time>
      </trkpt>
      <trkpt lat="49.88976" lon="2.26291">
        <ele>25.8</ele>
        <time>2023-05-26T12:59:00Z</time>
      </trkpt>
      <trkpt lat="49.88977" lon="2.26294">
        <ele>25.8</ele>
        <time>2023-05-26T12:59:01Z</time>
      </trkpt>
      <trkpt lat="49.88977" lon="2.26296">
        <ele>25.8</ele>
        <time>2023-05-26T12:59:02Z</time>
      </trkpt>
      <trkpt lat="49.88978" lon="2.26298">
        <ele>25.8</ele>
        <time>2023-05-26T12:59:03Z</time>
      </trkpt>
      <trkpt lat="49.88979" lon="2.26301">
        <ele>25.8</ele>
        <time>2023-05-26T12:59:04Z</time>
      </trkpt>
      <trkpt lat="49.8898" lon="2.26303">
        <ele>25.8</ele>
        <time>2023-05-26T12:59:05Z</time>
      </trkpt>
      <trkpt lat="49.88981" lon="2.26305">
        <ele>25.8</ele>
        <time>2023-05-26T12:59:06Z</time>
      </trkpt>
      <trkpt lat="49.88982" lon="2.26307">
        <ele>25.8</ele>
        <time>2023-05-26T12:59:07Z</time>
      </trkpt>
      <trkpt lat="49.88983" lon="2.26309">
        <ele>25.8</ele>
        <time>2023-05-26T12:59:08Z</time>
      </trkpt>
      <trkpt lat="49.88984" lon="2.26311">
        <ele>25.8</ele>
        <time>2023-05-26T12:59:09Z</time>
      </trkpt>
      <trkpt lat="49.88985" lon="2.26313">
        <ele>25.8</ele>
        <time>2023-05-26T12:59:11Z</time>
      </trkpt>
      <trkpt lat="49.88986" lon="2.26315">
        <ele>25.8</ele>
        <time>2023-05-26T12:59:12Z</time>
      </trkpt>
      <trkpt lat="49.88986" lon="2.26317">
        <ele>25.8</ele>
        <time>2023-05-26T12:59:13Z</time>
      </trkpt>
      <trkpt lat="49.88987" lon="2.2632">
        <ele>25.8</ele>
        <time>2023-05-26T12:59:14Z</time>
      </trkpt>
      <trkpt lat="49.88988" lon="2.26321">
        <ele>25.8</ele>
        <time>2023-05-26T12:59:15Z</time>
      </trkpt>
      <trkpt lat="49.88989" lon="2.26323">
        <ele>25.8</ele>
        <time>2023-05-26T12:59:16Z</time>
      </trkpt>
      <trkpt lat="49.8899" lon="2.26325">
        <ele>25.8</ele>
        <time>2023-05-26T12:59:18Z</time>
      </trkpt>
      <trkpt lat="49.88991" lon="2.26327">
        <ele>25.8</ele>
        <time>2023-05-26T12:59:19Z</time>
      </trkpt>
      <trkpt lat="49.88992" lon="2.26328">
        <ele>25.8</ele>
        <time>2023-05-26T12:59:20Z</time>
      </trkpt>
      <trkpt lat="49.88993" lon="2.2633">
        <ele>25.8</ele>
        <time>2023-05-26T12:59:21Z</time>
      </trkpt>
      <trkpt lat="49.88994" lon="2.26331">
        <ele>25.8</ele>
        <time>2023-05-26T12:59:22Z</time>
      </trkpt>
      <trkpt lat="49.88995" lon="2.26333">
        <ele>25.8</ele>
        <time>2023-05-26T12:59:23Z</time>
      </trkpt>
      <trkpt lat="49.88996" lon="2.26335">
        <ele>25.8</ele>
        <time>2023-05-26T12:59:24Z</time>
      </trkpt>
      <trkpt lat="49.88996" lon="2.26337">
        <ele>25.8</ele>
        <time>2023-05-26T12:59:25Z</time>
      </trkpt>
      <trkpt lat="49.88997" lon="2.26339">
        <ele>25.8</ele>
        <time>2023-05-26T12:59:27Z</time>
      </trkpt>
      <trkpt lat="49.88997" lon="2.26341">
        <ele>25.8</ele>
        <time>2023-05-26T12:59:28Z</time>
      </trkpt>
      <trkpt lat="49.88998" lon="2.26344">
        <ele>25.8</ele>
        <time>2023-05-26T12:59:29Z</time>
      </trkpt>
      <trkpt lat="49.88998" lon="2.26346">
        <ele>25.8</ele>
        <time>2023-05-26T12:59:30Z</time>
      </trkpt>
      <trkpt lat="49.88998" lon="2.26348">
        <ele>25.8</ele>
        <time>2023-05-26T12:59:31Z</time>
      </trkpt>
      <trkpt lat="49.88999" lon="2.2635">
        <ele>25.7</ele>
        <time>2023-05-26T12:59:32Z</time>
      </trkpt>
      <trkpt lat="49.88999" lon="2.26353">
        <ele>25.7</ele>
        <time>2023-05-26T12:59:33Z</time>
      </trkpt>
      <trkpt lat="49.88999" lon="2.26355">
        <ele>25.7</ele>
        <time>2023-05-26T12:59:34Z</time>
      </trkpt>
      <trkpt lat="49.88999" lon="2.26357">
        <ele>25.7</ele>
        <time>2023-05-26T12:59:35Z</time>
      </trkpt>
      <trkpt lat="49.88999" lon="2.26359">
        <ele>25.7</ele>
        <time>2023-05-26T12:59:36Z</time>
      </trkpt>
      <trkpt lat="49.88999" lon="2.26362">
        <ele>25.7</ele>
        <time>2023-05-26T12:59:38Z</time>
      </trkpt>
      <trkpt lat="49.89" lon="2.26364">
        <ele>25.7</ele>
        <time>2023-05-26T12:59:39Z</time>
      </trkpt>
      <trkpt lat="49.89" lon="2.26366">
        <ele>25.7</ele>
        <time>2023-05-26T12:59:40Z</time>
      </trkpt>
      <trkpt lat="49.89" lon="2.26368">
        <ele>25.7</ele>
        <time>2023-05-26T12:59:41Z</time>
      </trkpt>
      <trkpt lat="49.88999" lon="2.26371">
        <ele>25.7</ele>
        <time>2023-05-26T12:59:42Z</time>
      </trkpt>
      <trkpt lat="49.88999" lon="2.26374">
        <ele>25.7</ele>
        <time>2023-05-26T12:59:43Z</time>
      </trkpt>
      <trkpt lat="49.88999" lon="2.26376">
        <ele>25.7</ele>
        <time>2023-05-26T12:59:44Z</time>
      </trkpt>
      <trkpt lat="49.88998" lon="2.26378">
        <ele>25.7</ele>
        <time>2023-05-26T12:59:45Z</time>
      </trkpt>
      <trkpt lat="49.88997" lon="2.2638">
        <ele>25.7</ele>
        <time>2023-05-26T12:59:46Z</time>
      </trkpt>
      <trkpt lat="49.88996" lon="2.26382">
        <ele>25.7</ele>
        <time>2023-05-26T12:59:48Z</time>
      </trkpt>
      <trkpt lat="49.88996" lon="2.26384">
        <ele>25.7</ele>
        <time>2023-05-26T12:59:49Z</time>
      </trkpt>
      <trkpt lat="49.88995" lon="2.26387">
        <ele>25.7</ele>
        <time>2023-05-26T12:59:50Z</time>
      </trkpt>
      <trkpt lat="49.88994" lon="2.26388">
        <ele>25.8</ele>
        <time>2023-05-26T12:59:52Z</time>
      </trkpt>
      <trkpt lat="49.88993" lon="2.2639">
        <ele>25.8</ele>
        <time>2023-05-26T12:59:53Z</time>
      </trkpt>
      <trkpt lat="49.88992" lon="2.26392">
        <ele>25.8</ele>
        <time>2023-05-26T12:59:54Z</time>
      </trkpt>
      <trkpt lat="49.88991" lon="2.26394">
        <ele>25.8</ele>
        <time>2023-05-26T12:59:55Z</time>
      </trkpt>
      <trkpt lat="49.8899" lon="2.26396">
        <ele>25.8</ele>
        <time>2023-05-26T12:59:56Z</time>
      </trkpt>
      <trkpt lat="49.88989" lon="2.26398">
        <ele>25.8</ele>
        <time>2023-05-26T12:59:57Z</time>
      </trkpt>
      <trkpt lat="49.88988" lon="2.264">
        <ele>25.8</ele>
        <time>2023-05-26T12:59:58Z</time>
      </trkpt>
      <trkpt lat="49.88988" lon="2.26402">
        <ele>25.8</ele>
        <time>2023-05-26T12:59:59Z</time>
      </trkpt>
      <trkpt lat="49.88987" lon="2.26404">
        <ele>25.8</ele>
        <time>2023-05-26T13:00:01Z</time>
      </trkpt>
      <trkpt lat="49.88987" lon="2.26406">
        <ele>25.8</ele>
        <time>2023-05-26T13:00:02Z</time>
      </trkpt>
      <trkpt lat="49.88986" lon="2.26408">
        <ele>25.8</ele>
        <time>2023-05-26T13:00:03Z</time>
      </trkpt>
      <trkpt lat="49.88985" lon="2.26411">
        <ele>25.9</ele>
        <time>2023-05-26T13:00:04Z</time>
      </trkpt>
      <trkpt lat="49.88985" lon="2.26412">
        <ele>25.9</ele>
        <time>2023-05-26T13:00:05Z</time>
      </trkpt>
      <trkpt lat="49.88984" lon="2.26414">
        <ele>25.9</ele>
        <time>2023-05-26T13:00:06Z</time>
      </trkpt>
      <trkpt lat="49.88983" lon="2.26417">
        <ele>25.9</ele>
        <time>2023-05-26T13:00:07Z</time>
      </trkpt>
      <trkpt lat="49.88982" lon="2.26418">
        <ele>25.9</ele>
        <time>2023-05-26T13:00:08Z</time>
      </trkpt>
      <trkpt lat="49.88982" lon="2.26419">
        <ele>25.9</ele>
        <time>2023-05-26T13:00:09Z</time>
      </trkpt>
      <trkpt lat="49.88981" lon="2.26421">
        <ele>25.9</ele>
        <time>2023-05-26T13:00:10Z</time>
      </trkpt>
      <trkpt lat="49.8898" lon="2.26422">
        <ele>25.9</ele>
        <time>2023-05-26T13:00:11Z</time>
      </trkpt>
      <trkpt lat="49.8898" lon="2.26423">
        <ele>25.9</ele>
        <time>2023-05-26T13:00:12Z</time>
      </trkpt>
      <trkpt lat="49.88978" lon="2.26426">
        <ele>25.9</ele>
        <time>2023-05-26T13:00:13Z</time>
      </trkpt>
      <trkpt lat="49.88978" lon="2.26428">
        <ele>25.9</ele>
        <time>2023-05-26T13:00:14Z</time>
      </trkpt>
      <trkpt lat="49.88977" lon="2.26429">
        <ele>25.9</ele>
        <time>2023-05-26T13:00:16Z</time>
      </trkpt>
      <trkpt lat="49.88977" lon="2.2643">
        <ele>25.9</ele>
        <time>2023-05-26T13:00:17Z</time>
      </trkpt>
      <trkpt lat="49.88976" lon="2.26431">
        <ele>25.9</ele>
        <time>2023-05-26T13:00:18Z</time>
      </trkpt>
      <trkpt lat="49.88976" lon="2.26433">
        <ele>25.9</ele>
        <time>2023-05-26T13:00:19Z</time>
      </trkpt>
      <trkpt lat="49.88974" lon="2.26435">
        <ele>26</ele>
        <time>2023-05-26T13:00:20Z</time>
      </trkpt>
      <trkpt lat="49.88974" lon="2.26436">
        <ele>26</ele>
        <time>2023-05-26T13:00:21Z</time>
      </trkpt>
      <trkpt lat="49.88973" lon="2.26437">
        <ele>26</ele>
        <time>2023-05-26T13:00:22Z</time>
      </trkpt>
      <trkpt lat="49.88972" lon="2.26438">
        <ele>26</ele>
        <time>2023-05-26T13:00:23Z</time>
      </trkpt>
      <trkpt lat="49.88971" lon="2.2644">
        <ele>26</ele>
        <time>2023-05-26T13:00:24Z</time>
      </trkpt>
      <trkpt lat="49.88971" lon="2.26441">
        <ele>26</ele>
        <time>2023-05-26T13:00:26Z</time>
      </trkpt>
      <trkpt lat="49.8897" lon="2.26443">
        <ele>26</ele>
        <time>2023-05-26T13:00:27Z</time>
      </trkpt>
      <trkpt lat="49.88969" lon="2.26444">
        <ele>26</ele>
        <time>2023-05-26T13:00:28Z</time>
      </trkpt>
      <trkpt lat="49.88968" lon="2.26445">
        <ele>26</ele>
        <time>2023-05-26T13:00:29Z</time>
      </trkpt>
      <trkpt lat="49.88967" lon="2.26448">
        <ele>26</ele>
        <time>2023-05-26T13:00:30Z</time>
      </trkpt>
      <trkpt lat="49.88966" lon="2.26451">
        <ele>26</ele>
        <time>2023-05-26T13:00:31Z</time>
      </trkpt>
      <trkpt lat="49.88966" lon="2.26452">
        <ele>26</ele>
        <time>2023-05-26T13:00:32Z</time>
      </trkpt>
      <trkpt lat="49.88965" lon="2.26453">
        <ele>26</ele>
        <time>2023-05-26T13:00:33Z</time>
      </trkpt>
      <trkpt lat="49.88964" lon="2.26456">
        <ele>26</ele>
        <time>2023-05-26T13:00:34Z</time>
      </trkpt>
      <trkpt lat="49.88963" lon="2.26456">
        <ele>26.1</ele>
        <time>2023-05-26T13:00:36Z</time>
      </trkpt>
      <trkpt lat="49.88962" lon="2.26457">
        <ele>26.1</ele>
        <time>2023-05-26T13:00:37Z</time>
      </trkpt>
      <trkpt lat="49.88961" lon="2.26458">
        <ele>26.1</ele>
        <time>2023-05-26T13:00:38Z</time>
      </trkpt>
      <trkpt lat="49.8896" lon="2.2646">
        <ele>26.1</ele>
        <time>2023-05-26T13:00:39Z</time>
      </trkpt>
      <trkpt lat="49.88958" lon="2.26461">
        <ele>26.1</ele>
        <time>2023-05-26T13:00:40Z</time>
      </trkpt>
      <trkpt lat="49.88957" lon="2.26462">
        <ele>26.1</ele>
        <time>2023-05-26T13:00:41Z</time>
      </trkpt>
      <trkpt lat="49.88956" lon="2.26462">
        <ele>26.2</ele>
        <time>2023-05-26T13:00:42Z</time>
      </trkpt>
      <trkpt lat="49.88954" lon="2.26463">
        <ele>26.2</ele>
        <time>2023-05-26T13:00:43Z</time>
      </trkpt>
      <trkpt lat="49.88952" lon="2.26464">
        <ele>26.2</ele>
        <time>2023-05-26T13:00:45Z</time>
      </trkpt>
      <trkpt lat="49.88952" lon="2.26465">
        <ele>26.2</ele>
        <time>2023-05-26T13:00:46Z</time>
      </trkpt>
      <trkpt lat="49.88951" lon="2.26465">
        <ele>26.3</ele>
        <time>2023-05-26T13:00:47Z</time>
      </trkpt>
      <trkpt lat="49.8895" lon="2.26466">
        <ele>26.3</ele>
        <time>2023-05-26T13:00:48Z</time>
      </trkpt>
      <trkpt lat="49.88948" lon="2.26468">
        <ele>26.3</ele>
        <time>2023-05-26T13:00:49Z</time>
      </trkpt>
      <trkpt lat="49.88947" lon="2.26469">
        <ele>26.3</ele>
        <time>2023-05-26T13:00:50Z</time>
      </trkpt>
      <trkpt lat="49.88946" lon="2.2647">
        <ele>26.3</ele>
        <time>2023-05-26T13:00:51Z</time>
      </trkpt>
      <trkpt lat="49.88944" lon="2.26471">
        <ele>26.4</ele>
        <time>2023-05-26T13:00:52Z</time>
      </trkpt>
      <trkpt lat="49.88943" lon="2.26471">
        <ele>26.4</ele>
        <time>2023-05-26T13:00:53Z</time>
      </trkpt>
      <trkpt lat="49.88941" lon="2.2647">
        <ele>26.4</ele>
        <time>2023-05-26T13:00:54Z</time>
      </trkpt>
      <trkpt lat="49.8894" lon="2.2647">
        <ele>26.4</ele>
        <time>2023-05-26T13:00:55Z</time>
      </trkpt>
      <trkpt lat="49.88939" lon="2.2647">
        <ele>26.5</ele>
        <time>2023-05-26T13:00:56Z</time>
      </trkpt>
      <trkpt lat="49.88937" lon="2.26469">
        <ele>26.5</ele>
        <time>2023-05-26T13:00:57Z</time>
      </trkpt>
      <trkpt lat="49.88936" lon="2.26469">
        <ele>26.5</ele>
        <time>2023-05-26T13:00:58Z</time>
      </trkpt>
      <trkpt lat="49.88934" lon="2.26469">
        <ele>26.5</ele>
        <time>2023-05-26T13:01:00Z</time>
      </trkpt>
      <trkpt lat="49.88933" lon="2.26468">
        <ele>26.5</ele>
        <time>2023-05-26T13:01:01Z</time>
      </trkpt>
      <trkpt lat="49.88932" lon="2.26468">
        <ele>26.6</ele>
        <time>2023-05-26T13:01:02Z</time>
      </trkpt>
      <trkpt lat="49.8893" lon="2.26468">
        <ele>26.6</ele>
        <time>2023-05-26T13:01:03Z</time>
      </trkpt>
      <trkpt lat="49.88929" lon="2.26468">
        <ele>26.6</ele>
        <time>2023-05-26T13:01:04Z</time>
      </trkpt>
      <trkpt lat="49.88927" lon="2.26468">
        <ele>26.6</ele>
        <time>2023-05-26T13:01:05Z</time>
      </trkpt>
      <trkpt lat="49.88926" lon="2.26468">
        <ele>26.7</ele>
        <time>2023-05-26T13:01:06Z</time>
      </trkpt>
      <trkpt lat="49.88924" lon="2.26468">
        <ele>26.7</ele>
        <time>2023-05-26T13:01:07Z</time>
      </trkpt>
      <trkpt lat="49.88922" lon="2.26467">
        <ele>26.7</ele>
        <time>2023-05-26T13:01:08Z</time>
      </trkpt>
      <trkpt lat="49.88921" lon="2.26466">
        <ele>26.7</ele>
        <time>2023-05-26T13:01:10Z</time>
      </trkpt>
      <trkpt lat="49.88919" lon="2.26465">
        <ele>26.8</ele>
        <time>2023-05-26T13:01:11Z</time>
      </trkpt>
      <trkpt lat="49.88918" lon="2.26464">
        <ele>26.8</ele>
        <time>2023-05-26T13:01:12Z</time>
      </trkpt>
      <trkpt lat="49.88916" lon="2.26464">
        <ele>26.9</ele>
        <time>2023-05-26T13:01:13Z</time>
      </trkpt>
      <trkpt lat="49.88914" lon="2.26464">
        <ele>26.9</ele>
        <time>2023-05-26T13:01:14Z</time>
      </trkpt>
      <trkpt lat="49.88912" lon="2.26464">
        <ele>27</ele>
        <time>2023-05-26T13:01:15Z</time>
      </trkpt>
      <trkpt lat="49.88911" lon="2.26464">
        <ele>27</ele>
        <time>2023-05-26T13:01:16Z</time>
      </trkpt>
      <trkpt lat="49.88909" lon="2.26464">
        <ele>27.1</ele>
        <time>2023-05-26T13:01:17Z</time>
      </trkpt>
      <trkpt lat="49.88907" lon="2.26465">
        <ele>27.1</ele>
        <time>2023-05-26T13:01:19Z</time>
      </trkpt>
      <trkpt lat="49.88906" lon="2.26465">
        <ele>27.2</ele>
        <time>2023-05-26T13:01:20Z</time>
      </trkpt>
      <trkpt lat="49.88904" lon="2.26465">
        <ele>27.2</ele>
        <time>2023-05-26T13:01:21Z</time>
      </trkpt>
      <trkpt lat="49.88902" lon="2.26466">
        <ele>27.3</ele>
        <time>2023-05-26T13:01:22Z</time>
      </trkpt>
      <trkpt lat="49.88901" lon="2.26467">
        <ele>27.4</ele>
        <time>2023-05-26T13:01:23Z</time>
      </trkpt>
      <trkpt lat="49.889" lon="2.26467">
        <ele>27.4</ele>
        <time>2023-05-26T13:01:24Z</time>
      </trkpt>
      <trkpt lat="49.88899" lon="2.26468">
        <ele>27.5</ele>
        <time>2023-05-26T13:01:26Z</time>
      </trkpt>
      <trkpt lat="49.88897" lon="2.26468">
        <ele>27.5</ele>
        <time>2023-05-26T13:01:27Z</time>
      </trkpt>
      <trkpt lat="49.88894" lon="2.26468">
        <ele>27.7</ele>
        <time>2023-05-26T13:01:28Z</time>
      </trkpt>
      <trkpt lat="49.88893" lon="2.26469">
        <ele>27.7</ele>
        <time>2023-05-26T13:01:29Z</time>
      </trkpt>
      <trkpt lat="49.88892" lon="2.2647">
        <ele>27.8</ele>
        <time>2023-05-26T13:01:30Z</time>
      </trkpt>
      <trkpt lat="49.8889" lon="2.26471">
        <ele>27.8</ele>
        <time>2023-05-26T13:01:31Z</time>
      </trkpt>
      <trkpt lat="49.88889" lon="2.26472">
        <ele>27.9</ele>
        <time>2023-05-26T13:01:32Z</time>
      </trkpt>
      <trkpt lat="49.88888" lon="2.26473">
        <ele>28</ele>
        <time>2023-05-26T13:01:33Z</time>
      </trkpt>
      <trkpt lat="49.88887" lon="2.26475">
        <ele>28</ele>
        <time>2023-05-26T13:01:34Z</time>
      </trkpt>
      <trkpt lat="49.88886" lon="2.26477">
        <ele>28.1</ele>
        <time>2023-05-26T13:01:35Z</time>
      </trkpt>
      <trkpt lat="49.88885" lon="2.26479">
        <ele>28.2</ele>
        <time>2023-05-26T13:01:37Z</time>
      </trkpt>
      <trkpt lat="49.88884" lon="2.2648">
        <ele>28.2</ele>
        <time>2023-05-26T13:01:38Z</time>
      </trkpt>
      <trkpt lat="49.88884" lon="2.26481">
        <ele>28.2</ele>
        <time>2023-05-26T13:01:39Z</time>
      </trkpt>
      <trkpt lat="49.88883" lon="2.26483">
        <ele>28.3</ele>
        <time>2023-05-26T13:01:40Z</time>
      </trkpt>
      <trkpt lat="49.88882" lon="2.26484">
        <ele>28.4</ele>
        <time>2023-05-26T13:01:41Z</time>
      </trkpt>
      <trkpt lat="49.88881" lon="2.26485">
        <ele>28.4</ele>
        <time>2023-05-26T13:01:42Z</time>
      </trkpt>
      <trkpt lat="49.88881" lon="2.26486">
        <ele>28.4</ele>
        <time>2023-05-26T13:01:43Z</time>
      </trkpt>
      <trkpt lat="49.8888" lon="2.26488">
        <ele>28.5</ele>
        <time>2023-05-26T13:01:44Z</time>
      </trkpt>
      <trkpt lat="49.8888" lon="2.2649">
        <ele>28.5</ele>
        <time>2023-05-26T13:01:45Z</time>
      </trkpt>
      <trkpt lat="49.88879" lon="2.26493">
        <ele>28.6</ele>
        <time>2023-05-26T13:01:47Z</time>
      </trkpt>
      <trkpt lat="49.8888" lon="2.26494">
        <ele>28.7</ele>
        <time>2023-05-26T13:01:48Z</time>
      </trkpt>
      <trkpt lat="49.8888" lon="2.26495">
        <ele>28.7</ele>
        <time>2023-05-26T13:01:49Z</time>
      </trkpt>
      <trkpt lat="49.8888" lon="2.26497">
        <ele>28.7</ele>
        <time>2023-05-26T13:01:50Z</time>
      </trkpt>
      <trkpt lat="49.8888" lon="2.26499">
        <ele>28.8</ele>
        <time>2023-05-26T13:01:51Z</time>
      </trkpt>
      <trkpt lat="49.88879" lon="2.265">
        <ele>28.8</ele>
        <time>2023-05-26T13:01:52Z</time>
      </trkpt>
      <trkpt lat="49.88878" lon="2.26503">
        <ele>28.9</ele>
        <time>2023-05-26T13:01:54Z</time>
      </trkpt>
      <trkpt lat="49.88878" lon="2.26504">
        <ele>29</ele>
        <time>2023-05-26T13:01:55Z</time>
      </trkpt>
      <trkpt lat="49.88878" lon="2.26506">
        <ele>29</ele>
        <time>2023-05-26T13:01:56Z</time>
      </trkpt>
      <trkpt lat="49.88877" lon="2.26507">
        <ele>29</ele>
        <time>2023-05-26T13:01:57Z</time>
      </trkpt>
      <trkpt lat="49.88876" lon="2.26509">
        <ele>29</ele>
        <time>2023-05-26T13:01:58Z</time>
      </trkpt>
      <trkpt lat="49.88876" lon="2.2651">
        <ele>29.1</ele>
        <time>2023-05-26T13:01:59Z</time>
      </trkpt>
      <trkpt lat="49.88875" lon="2.26511">
        <ele>29.1</ele>
        <time>2023-05-26T13:02:01Z</time>
      </trkpt>
      <trkpt lat="49.88874" lon="2.26511">
        <ele>29.1</ele>
        <time>2023-05-26T13:02:02Z</time>
      </trkpt>
      <trkpt lat="49.88873" lon="2.26512">
        <ele>29.1</ele>
        <time>2023-05-26T13:02:03Z</time>
      </trkpt>
      <trkpt lat="49.88872" lon="2.26513">
        <ele>29.2</ele>
        <time>2023-05-26T13:02:05Z</time>
      </trkpt>
      <trkpt lat="49.88871" lon="2.26512">
        <ele>29.2</ele>
        <time>2023-05-26T13:02:06Z</time>
      </trkpt>
      <trkpt lat="49.88871" lon="2.26512">
        <ele>29.2</ele>
        <time>2023-05-26T13:02:07Z</time>
      </trkpt>
      <trkpt lat="49.88871" lon="2.26513">
        <ele>29.2</ele>
        <time>2023-05-26T13:02:08Z</time>
      </trkpt>
      <trkpt lat="49.88871" lon="2.26514">
        <ele>29.2</ele>
        <time>2023-05-26T13:02:10Z</time>
      </trkpt>
      <trkpt lat="49.88872" lon="2.26515">
        <ele>29.2</ele>
        <time>2023-05-26T13:02:11Z</time>
      </trkpt>
      <trkpt lat="49.88873" lon="2.26516">
        <ele>29.2</ele>
        <time>2023-05-26T13:02:12Z</time>
      </trkpt>
      <trkpt lat="49.88874" lon="2.26518">
        <ele>29.3</ele>
        <time>2023-05-26T13:02:14Z</time>
      </trkpt>
      <trkpt lat="49.88874" lon="2.26518">
        <ele>29.3</ele>
        <time>2023-05-26T13:02:15Z</time>
      </trkpt>
      <trkpt lat="49.88874" lon="2.26517">
        <ele>29.3</ele>
        <time>2023-05-26T13:02:16Z</time>
      </trkpt>
      <trkpt lat="49.88873" lon="2.26517">
        <ele>29.3</ele>
        <time>2023-05-26T13:02:18Z</time>
      </trkpt>
      <trkpt lat="49.88873" lon="2.26516">
        <ele>29.3</ele>
        <time>2023-05-26T13:02:19Z</time>
      </trkpt>
      <trkpt lat="49.88872" lon="2.26516">
        <ele>29.3</ele>
        <time>2023-05-26T13:02:21Z</time>
      </trkpt>
      <trkpt lat="49.88872" lon="2.26516">
        <ele>29.3</ele>
        <time>2023-05-26T13:02:23Z</time>
      </trkpt>
      <trkpt lat="49.88871" lon="2.26515">
        <ele>29.3</ele>
        <time>2023-05-26T13:02:24Z</time>
      </trkpt>
      <trkpt lat="49.88871" lon="2.26515">
        <ele>29.3</ele>
        <time>2023-05-26T13:02:25Z</time>
      </trkpt>
      <trkpt lat="49.8887" lon="2.26514">
        <ele>29.3</ele>
        <time>2023-05-26T13:02:27Z</time>
      </trkpt>
      <trkpt lat="49.8887" lon="2.26514">
        <ele>29.3</ele>
        <time>2023-05-26T13:02:35Z</time>
      </trkpt>
      <trkpt lat="49.88869" lon="2.26513">
        <ele>29.3</ele>
        <time>2023-05-26T13:02:36Z</time>
      </trkpt>
      <trkpt lat="49.88869" lon="2.26513">
        <ele>29.3</ele>
        <time>2023-05-26T13:02:38Z</time>
      </trkpt>
      <trkpt lat="49.88868" lon="2.26513">
        <ele>29.4</ele>
        <time>2023-05-26T13:02:39Z</time>
      </trkpt>
      <trkpt lat="49.88867" lon="2.26512">
        <ele>29.4</ele>
        <time>2023-05-26T13:02:40Z</time>
      </trkpt>
      <trkpt lat="49.88866" lon="2.26512">
        <ele>29.4</ele>
        <time>2023-05-26T13:02:41Z</time>
      </trkpt>
      <trkpt lat="49.88864" lon="2.26512">
        <ele>29.4</ele>
        <time>2023-05-26T13:02:43Z</time>
      </trkpt>
      <trkpt lat="49.88863" lon="2.26514">
        <ele>29.4</ele>
        <time>2023-05-26T13:02:44Z</time>
      </trkpt>
      <trkpt lat="49.88861" lon="2.26516">
        <ele>29.5</ele>
        <time>2023-05-26T13:02:45Z</time>
      </trkpt>
      <trkpt lat="49.88859" lon="2.26519">
        <ele>29.2</ele>
        <time>2023-05-26T13:02:46Z</time>
      </trkpt>
      <trkpt lat="49.88858" lon="2.26519">
        <ele>29.1</ele>
        <time>2023-05-26T13:02:47Z</time>
      </trkpt>
      <trkpt lat="49.88857" lon="2.26521">
        <ele>28.9</ele>
        <time>2023-05-26T13:02:48Z</time>
      </trkpt>
      <trkpt lat="49.88856" lon="2.26522">
        <ele>28.8</ele>
        <time>2023-05-26T13:02:49Z</time>
      </trkpt>
      <trkpt lat="49.88854" lon="2.26525">
        <ele>28.5</ele>
        <time>2023-05-26T13:02:50Z</time>
      </trkpt>
      <trkpt lat="49.88853" lon="2.26526">
        <ele>28.4</ele>
        <time>2023-05-26T13:02:52Z</time>
      </trkpt>
      <trkpt lat="49.88852" lon="2.26527">
        <ele>28.3</ele>
        <time>2023-05-26T13:02:53Z</time>
      </trkpt>
      <trkpt lat="49.88851" lon="2.26528">
        <ele>28.2</ele>
        <time>2023-05-26T13:02:54Z</time>
      </trkpt>
      <trkpt lat="49.8885" lon="2.26529">
        <ele>28.1</ele>
        <time>2023-05-26T13:02:55Z</time>
      </trkpt>
      <trkpt lat="49.88848" lon="2.26532">
        <ele>27.7</ele>
        <time>2023-05-26T13:02:56Z</time>
      </trkpt>
      <trkpt lat="49.88847" lon="2.26533">
        <ele>27.5</ele>
        <time>2023-05-26T13:02:57Z</time>
      </trkpt>
      <trkpt lat="49.88844" lon="2.26536">
        <ele>27.2</ele>
        <time>2023-05-26T13:02:59Z</time>
      </trkpt>
      <trkpt lat="49.88844" lon="2.26537">
        <ele>27</ele>
        <time>2023-05-26T13:03:00Z</time>
      </trkpt>
      <trkpt lat="49.88843" lon="2.26539">
        <ele>26.9</ele>
        <time>2023-05-26T13:03:01Z</time>
      </trkpt>
      <trkpt lat="49.88843" lon="2.2654">
        <ele>26.7</ele>
        <time>2023-05-26T13:03:02Z</time>
      </trkpt>
      <trkpt lat="49.88843" lon="2.26542">
        <ele>26.7</ele>
        <time>2023-05-26T13:03:03Z</time>
      </trkpt>
      <trkpt lat="49.88843" lon="2.26544">
        <ele>26.7</ele>
        <time>2023-05-26T13:03:04Z</time>
      </trkpt>
      <trkpt lat="49.88844" lon="2.26548">
        <ele>26.6</ele>
        <time>2023-05-26T13:03:06Z</time>
      </trkpt>
      <trkpt lat="49.88845" lon="2.2655">
        <ele>26.6</ele>
        <time>2023-05-26T13:03:08Z</time>
      </trkpt>
      <trkpt lat="49.88846" lon="2.26551">
        <ele>26.6</ele>
        <time>2023-05-26T13:03:09Z</time>
      </trkpt>
      <trkpt lat="49.88848" lon="2.26552">
        <ele>26.6</ele>
        <time>2023-05-26T13:03:10Z</time>
      </trkpt>
      <trkpt lat="49.88849" lon="2.26554">
        <ele>26.5</ele>
        <time>2023-05-26T13:03:11Z</time>
      </trkpt>
      <trkpt lat="49.8885" lon="2.26556">
        <ele>26.5</ele>
        <time>2023-05-26T13:03:12Z</time>
      </trkpt>
      <trkpt lat="49.88852" lon="2.26558">
        <ele>26.5</ele>
        <time>2023-05-26T13:03:13Z</time>
      </trkpt>
      <trkpt lat="49.88853" lon="2.2656">
        <ele>26.5</ele>
        <time>2023-05-26T13:03:14Z</time>
      </trkpt>
      <trkpt lat="49.88854" lon="2.26561">
        <ele>26.5</ele>
        <time>2023-05-26T13:03:15Z</time>
      </trkpt>
      <trkpt lat="49.88855" lon="2.26562">
        <ele>26.5</ele>
        <time>2023-05-26T13:03:16Z</time>
      </trkpt>
      <trkpt lat="49.88856" lon="2.26564">
        <ele>26.4</ele>
        <time>2023-05-26T13:03:18Z</time>
      </trkpt>
      <trkpt lat="49.88857" lon="2.26566">
        <ele>26.4</ele>
        <time>2023-05-26T13:03:19Z</time>
      </trkpt>
      <trkpt lat="49.88857" lon="2.26567">
        <ele>26.4</ele>
        <time>2023-05-26T13:03:20Z</time>
      </trkpt>
      <trkpt lat="49.88859" lon="2.2657">
        <ele>26.4</ele>
        <time>2023-05-26T13:03:21Z</time>
      </trkpt>
      <trkpt lat="49.88859" lon="2.26571">
        <ele>26.4</ele>
        <time>2023-05-26T13:03:22Z</time>
      </trkpt>
      <trkpt lat="49.8886" lon="2.26573">
        <ele>26.4</ele>
        <time>2023-05-26T13:03:23Z</time>
      </trkpt>
      <trkpt lat="49.8886" lon="2.26574">
        <ele>26.3</ele>
        <time>2023-05-26T13:03:25Z</time>
      </trkpt>
      <trkpt lat="49.8886" lon="2.26576">
        <ele>26.3</ele>
        <time>2023-05-26T13:03:26Z</time>
      </trkpt>
      <trkpt lat="49.88861" lon="2.26577">
        <ele>26.3</ele>
        <time>2023-05-26T13:03:27Z</time>
      </trkpt>
      <trkpt lat="49.88861" lon="2.26579">
        <ele>26.3</ele>
        <time>2023-05-26T13:03:28Z</time>
      </trkpt>
      <trkpt lat="49.88862" lon="2.26581">
        <ele>26.3</ele>
        <time>2023-05-26T13:03:29Z</time>
      </trkpt>
      <trkpt lat="49.88863" lon="2.26584">
        <ele>26.2</ele>
        <time>2023-05-26T13:03:30Z</time>
      </trkpt>
      <trkpt lat="49.88863" lon="2.26585">
        <ele>26.2</ele>
        <time>2023-05-26T13:03:32Z</time>
      </trkpt>
      <trkpt lat="49.88863" lon="2.26587">
        <ele>26.2</ele>
        <time>2023-05-26T13:03:33Z</time>
      </trkpt>
      <trkpt lat="49.88864" lon="2.2659">
        <ele>26.2</ele>
        <time>2023-05-26T13:03:34Z</time>
      </trkpt>
      <trkpt lat="49.88864" lon="2.26591">
        <ele>26.2</ele>
        <time>2023-05-26T13:03:35Z</time>
      </trkpt>
      <trkpt lat="49.88864" lon="2.26592">
        <ele>26.2</ele>
        <time>2023-05-26T13:03:36Z</time>
      </trkpt>
      <trkpt lat="49.88865" lon="2.26594">
        <ele>26.2</ele>
        <time>2023-05-26T13:03:37Z</time>
      </trkpt>
      <trkpt lat="49.88865" lon="2.26596">
        <ele>26.1</ele>
        <time>2023-05-26T13:03:38Z</time>
      </trkpt>
      <trkpt lat="49.88865" lon="2.26597">
        <ele>26.1</ele>
        <time>2023-05-26T13:03:40Z</time>
      </trkpt>
      <trkpt lat="49.88865" lon="2.26598">
        <ele>26.1</ele>
        <time>2023-05-26T13:03:41Z</time>
      </trkpt>
      <trkpt lat="49.88866" lon="2.266">
        <ele>26.1</ele>
        <time>2023-05-26T13:03:42Z</time>
      </trkpt>
      <trkpt lat="49.88867" lon="2.26601">
        <ele>26.1</ele>
        <time>2023-05-26T13:03:43Z</time>
      </trkpt>
      <trkpt lat="49.88868" lon="2.26604">
        <ele>26.1</ele>
        <time>2023-05-26T13:03:44Z</time>
      </trkpt>
      <trkpt lat="49.88868" lon="2.26605">
        <ele>26.1</ele>
        <time>2023-05-26T13:03:46Z</time>
      </trkpt>
      <trkpt lat="49.88869" lon="2.26606">
        <ele>26.1</ele>
        <time>2023-05-26T13:03:47Z</time>
      </trkpt>
      <trkpt lat="49.8887" lon="2.26609">
        <ele>26</ele>
        <time>2023-05-26T13:03:48Z</time>
      </trkpt>
      <trkpt lat="49.8887" lon="2.2661">
        <ele>26</ele>
        <time>2023-05-26T13:03:49Z</time>
      </trkpt>
      <trkpt lat="49.88871" lon="2.26611">
        <ele>26</ele>
        <time>2023-05-26T13:03:50Z</time>
      </trkpt>
      <trkpt lat="49.88871" lon="2.26613">
        <ele>26</ele>
        <time>2023-05-26T13:03:51Z</time>
      </trkpt>
      <trkpt lat="49.88872" lon="2.26614">
        <ele>26</ele>
        <time>2023-05-26T13:03:53Z</time>
      </trkpt>
      <trkpt lat="49.88873" lon="2.26616">
        <ele>26</ele>
        <time>2023-05-26T13:03:54Z</time>
      </trkpt>
      <trkpt lat="49.88874" lon="2.26617">
        <ele>25.9</ele>
        <time>2023-05-26T13:03:55Z</time>
      </trkpt>
      <trkpt lat="49.88875" lon="2.26618">
        <ele>25.9</ele>
        <time>2023-05-26T13:03:56Z</time>
      </trkpt>
      <trkpt lat="49.88875" lon="2.26619">
        <ele>25.9</ele>
        <time>2023-05-26T13:03:57Z</time>
      </trkpt>
      <trkpt lat="49.88876" lon="2.26621">
        <ele>25.9</ele>
        <time>2023-05-26T13:03:58Z</time>
      </trkpt>
      <trkpt lat="49.88877" lon="2.26622">
        <ele>25.9</ele>
        <time>2023-05-26T13:03:59Z</time>
      </trkpt>
      <trkpt lat="49.88878" lon="2.26623">
        <ele>25.9</ele>
        <time>2023-05-26T13:04:01Z</time>
      </trkpt>
      <trkpt lat="49.88879" lon="2.26625">
        <ele>25.9</ele>
        <time>2023-05-26T13:04:02Z</time>
      </trkpt>
      <trkpt lat="49.88879" lon="2.26626">
        <ele>25.9</ele>
        <time>2023-05-26T13:04:03Z</time>
      </trkpt>
      <trkpt lat="49.8888" lon="2.26627">
        <ele>25.8</ele>
        <time>2023-05-26T13:04:04Z</time>
      </trkpt>
      <trkpt lat="49.88881" lon="2.26629">
        <ele>25.8</ele>
        <time>2023-05-26T13:04:05Z</time>
      </trkpt>
      <trkpt lat="49.88881" lon="2.2663">
        <ele>25.8</ele>
        <time>2023-05-26T13:04:06Z</time>
      </trkpt>
      <trkpt lat="49.88882" lon="2.26631">
        <ele>25.8</ele>
        <time>2023-05-26T13:04:08Z</time>
      </trkpt>
      <trkpt lat="49.88882" lon="2.26632">
        <ele>25.8</ele>
        <time>2023-05-26T13:04:09Z</time>
      </trkpt>
      <trkpt lat="49.88883" lon="2.26634">
        <ele>25.8</ele>
        <time>2023-05-26T13:04:10Z</time>
      </trkpt>
      <trkpt lat="49.88884" lon="2.26636">
        <ele>25.8</ele>
        <time>2023-05-26T13:04:11Z</time>
      </trkpt>
      <trkpt lat="49.88884" lon="2.26637">
        <ele>25.8</ele>
        <time>2023-05-26T13:04:12Z</time>
      </trkpt>
      <trkpt lat="49.88885" lon="2.26638">
        <ele>25.7</ele>
        <time>2023-05-26T13:04:14Z</time>
      </trkpt>
      <trkpt lat="49.88885" lon="2.26639">
        <ele>25.7</ele>
        <time>2023-05-26T13:04:15Z</time>
      </trkpt>
      <trkpt lat="49.88886" lon="2.26641">
        <ele>25.7</ele>
        <time>2023-05-26T13:04:16Z</time>
      </trkpt>
      <trkpt lat="49.88887" lon="2.26642">
        <ele>25.7</ele>
        <time>2023-05-26T13:04:17Z</time>
      </trkpt>
      <trkpt lat="49.88887" lon="2.26643">
        <ele>25.7</ele>
        <time>2023-05-26T13:04:18Z</time>
      </trkpt>
      <trkpt lat="49.88888" lon="2.26644">
        <ele>25.7</ele>
        <time>2023-05-26T13:04:19Z</time>
      </trkpt>
      <trkpt lat="49.88888" lon="2.26646">
        <ele>25.7</ele>
        <time>2023-05-26T13:04:21Z</time>
      </trkpt>
      <trkpt lat="49.88889" lon="2.26647">
        <ele>25.7</ele>
        <time>2023-05-26T13:04:22Z</time>
      </trkpt>
      <trkpt lat="49.88889" lon="2.26649">
        <ele>25.6</ele>
        <time>2023-05-26T13:04:23Z</time>
      </trkpt>
      <trkpt lat="49.8889" lon="2.2665">
        <ele>25.6</ele>
        <time>2023-05-26T13:04:24Z</time>
      </trkpt>
      <trkpt lat="49.88891" lon="2.26651">
        <ele>25.6</ele>
        <time>2023-05-26T13:04:25Z</time>
      </trkpt>
      <trkpt lat="49.88892" lon="2.26652">
        <ele>25.6</ele>
        <time>2023-05-26T13:04:26Z</time>
      </trkpt>
      <trkpt lat="49.88893" lon="2.26653">
        <ele>25.6</ele>
        <time>2023-05-26T13:04:27Z</time>
      </trkpt>
      <trkpt lat="49.88893" lon="2.26654">
        <ele>25.6</ele>
        <time>2023-05-26T13:04:29Z</time>
      </trkpt>
      <trkpt lat="49.88894" lon="2.26656">
        <ele>25.6</ele>
        <time>2023-05-26T13:04:30Z</time>
      </trkpt>
      <trkpt lat="49.88894" lon="2.26657">
        <ele>25.6</ele>
        <time>2023-05-26T13:04:31Z</time>
      </trkpt>
      <trkpt lat="49.88895" lon="2.26658">
        <ele>25.6</ele>
        <time>2023-05-26T13:04:32Z</time>
      </trkpt>
      <trkpt lat="49.88896" lon="2.26659">
        <ele>25.5</ele>
        <time>2023-05-26T13:04:33Z</time>
      </trkpt>
      <trkpt lat="49.88897" lon="2.2666">
        <ele>25.5</ele>
        <time>2023-05-26T13:04:34Z</time>
      </trkpt>
      <trkpt lat="49.88898" lon="2.26662">
        <ele>25.5</ele>
        <time>2023-05-26T13:04:36Z</time>
      </trkpt>
      <trkpt lat="49.88899" lon="2.26663">
        <ele>25.5</ele>
        <time>2023-05-26T13:04:37Z</time>
      </trkpt>
      <trkpt lat="49.88899" lon="2.26664">
        <ele>25.5</ele>
        <time>2023-05-26T13:04:38Z</time>
      </trkpt>
      <trkpt lat="49.889" lon="2.26665">
        <ele>25.5</ele>
        <time>2023-05-26T13:04:39Z</time>
      </trkpt>
      <trkpt lat="49.88902" lon="2.26667">
        <ele>25.5</ele>
        <time>2023-05-26T13:04:40Z</time>
      </trkpt>
      <trkpt lat="49.88902" lon="2.26668">
        <ele>25.5</ele>
        <time>2023-05-26T13:04:41Z</time>
      </trkpt>
      <trkpt lat="49.88903" lon="2.26669">
        <ele>25.5</ele>
        <time>2023-05-26T13:04:42Z</time>
      </trkpt>
      <trkpt lat="49.88904" lon="2.26672">
        <ele>25.5</ele>
        <time>2023-05-26T13:04:44Z</time>
      </trkpt>
      <trkpt lat="49.88905" lon="2.26673">
        <ele>25.5</ele>
        <time>2023-05-26T13:04:45Z</time>
      </trkpt>
      <trkpt lat="49.88905" lon="2.26674">
        <ele>25.5</ele>
        <time>2023-05-26T13:04:46Z</time>
      </trkpt>
      <trkpt lat="49.88906" lon="2.26675">
        <ele>25.5</ele>
        <time>2023-05-26T13:04:47Z</time>
      </trkpt>
      <trkpt lat="49.88907" lon="2.26677">
        <ele>25.5</ele>
        <time>2023-05-26T13:04:48Z</time>
      </trkpt>
      <trkpt lat="49.88908" lon="2.2668">
        <ele>25.4</ele>
        <time>2023-05-26T13:04:49Z</time>
      </trkpt>
      <trkpt lat="49.88908" lon="2.26681">
        <ele>25.4</ele>
        <time>2023-05-26T13:04:51Z</time>
      </trkpt>
      <trkpt lat="49.88909" lon="2.26682">
        <ele>25.4</ele>
        <time>2023-05-26T13:04:52Z</time>
      </trkpt>
      <trkpt lat="49.88909" lon="2.26683">
        <ele>25.4</ele>
        <time>2023-05-26T13:04:54Z</time>
      </trkpt>
      <trkpt lat="49.88909" lon="2.26683">
        <ele>25.4</ele>
        <time>2023-05-26T13:04:55Z</time>
      </trkpt>
      <trkpt lat="49.88909" lon="2.26683">
        <ele>25.4</ele>
        <time>2023-05-26T13:04:56Z</time>
      </trkpt>
      <trkpt lat="49.88909" lon="2.26682">
        <ele>25.4</ele>
        <time>2023-05-26T13:04:57Z</time>
      </trkpt>
      <trkpt lat="49.88909" lon="2.26682">
        <ele>25.4</ele>
        <time>2023-05-26T13:04:59Z</time>
      </trkpt>
      <trkpt lat="49.8891" lon="2.26682">
        <ele>25.4</ele>
        <time>2023-05-26T13:05:01Z</time>
      </trkpt>
      <trkpt lat="49.8891" lon="2.26682">
        <ele>25.4</ele>
        <time>2023-05-26T13:05:02Z</time>
      </trkpt>
      <trkpt lat="49.8891" lon="2.26683">
        <ele>25.4</ele>
        <time>2023-05-26T13:05:04Z</time>
      </trkpt>
      <trkpt lat="49.8891" lon="2.26683">
        <ele>25.4</ele>
        <time>2023-05-26T13:05:05Z</time>
      </trkpt>
      <trkpt lat="49.8891" lon="2.26683">
        <ele>25.4</ele>
        <time>2023-05-26T13:05:06Z</time>
      </trkpt>
      <trkpt lat="49.8891" lon="2.26684">
        <ele>25.4</ele>
        <time>2023-05-26T13:05:08Z</time>
      </trkpt>
      <trkpt lat="49.8891" lon="2.26683">
        <ele>25.4</ele>
        <time>2023-05-26T13:05:09Z</time>
      </trkpt>
      <trkpt lat="49.8891" lon="2.26684">
        <ele>25.4</ele>
        <time>2023-05-26T13:05:11Z</time>
      </trkpt>
      <trkpt lat="49.8891" lon="2.26683">
        <ele>25.4</ele>
        <time>2023-05-26T13:05:12Z</time>
      </trkpt>
      <trkpt lat="49.88909" lon="2.26683">
        <ele>25.4</ele>
        <time>2023-05-26T13:05:13Z</time>
      </trkpt>
      <trkpt lat="49.88909" lon="2.26683">
        <ele>25.4</ele>
        <time>2023-05-26T13:05:14Z</time>
      </trkpt>
      <trkpt lat="49.88909" lon="2.26682">
        <ele>25.4</ele>
        <time>2023-05-26T13:05:15Z</time>
      </trkpt>
      <trkpt lat="49.88911" lon="2.26686">
        <ele>25.4</ele>
        <time>2023-05-26T13:05:27Z</time>
      </trkpt>
      <trkpt lat="49.88911" lon="2.26687">
        <ele>25.4</ele>
        <time>2023-05-26T13:05:29Z</time>
      </trkpt>
      <trkpt lat="49.88911" lon="2.26687">
        <ele>25.4</ele>
        <time>2023-05-26T13:05:30Z</time>
      </trkpt>
      <trkpt lat="49.88912" lon="2.26688">
        <ele>25.4</ele>
        <time>2023-05-26T13:05:31Z</time>
      </trkpt>
      <trkpt lat="49.88912" lon="2.26689">
        <ele>25.4</ele>
        <time>2023-05-26T13:05:32Z</time>
      </trkpt>
      <trkpt lat="49.88913" lon="2.2669">
        <ele>25.4</ele>
        <time>2023-05-26T13:05:33Z</time>
      </trkpt>
      <trkpt lat="49.88914" lon="2.26691">
        <ele>25.4</ele>
        <time>2023-05-26T13:05:34Z</time>
      </trkpt>
      <trkpt lat="49.88915" lon="2.26692">
        <ele>25.4</ele>
        <time>2023-05-26T13:05:36Z</time>
      </trkpt>
      <trkpt lat="49.88915" lon="2.26694">
        <ele>25.3</ele>
        <time>2023-05-26T13:05:37Z</time>
      </trkpt>
      <trkpt lat="49.88916" lon="2.26695">
        <ele>25.3</ele>
        <time>2023-05-26T13:05:38Z</time>
      </trkpt>
      <trkpt lat="49.88917" lon="2.26696">
        <ele>25.3</ele>
        <time>2023-05-26T13:05:39Z</time>
      </trkpt>
      <trkpt lat="49.88919" lon="2.26698">
        <ele>25.3</ele>
        <time>2023-05-26T13:05:40Z</time>
      </trkpt>
      <trkpt lat="49.8892" lon="2.26699">
        <ele>25.3</ele>
        <time>2023-05-26T13:05:41Z</time>
      </trkpt>
      <trkpt lat="49.8892" lon="2.267">
        <ele>25.3</ele>
        <time>2023-05-26T13:05:43Z</time>
      </trkpt>
      <trkpt lat="49.88921" lon="2.26702">
        <ele>25.3</ele>
        <time>2023-05-26T13:05:44Z</time>
      </trkpt>
      <trkpt lat="49.88922" lon="2.26703">
        <ele>25.3</ele>
        <time>2023-05-26T13:05:45Z</time>
      </trkpt>
      <trkpt lat="49.88922" lon="2.26704">
        <ele>25.3</ele>
        <time>2023-05-26T13:05:46Z</time>
      </trkpt>
      <trkpt lat="49.88923" lon="2.26706">
        <ele>25.3</ele>
        <time>2023-05-26T13:05:47Z</time>
      </trkpt>
      <trkpt lat="49.88924" lon="2.26707">
        <ele>25.3</ele>
        <time>2023-05-26T13:05:49Z</time>
      </trkpt>
      <trkpt lat="49.88924" lon="2.26708">
        <ele>25.3</ele>
        <time>2023-05-26T13:05:50Z</time>
      </trkpt>
      <trkpt lat="49.88925" lon="2.2671">
        <ele>25.3</ele>
        <time>2023-05-26T13:05:51Z</time>
      </trkpt>
      <trkpt lat="49.88926" lon="2.26711">
        <ele>25.2</ele>
        <time>2023-05-26T13:05:53Z</time>
      </trkpt>
      <trkpt lat="49.88926" lon="2.26712">
        <ele>25.2</ele>
        <time>2023-05-26T13:05:55Z</time>
      </trkpt>
      <trkpt lat="49.88926" lon="2.26711">
        <ele>25.2</ele>
        <time>2023-05-26T13:05:56Z</time>
      </trkpt>
      <trkpt lat="49.88925" lon="2.26711">
        <ele>25.2</ele>
        <time>2023-05-26T13:05:58Z</time>
      </trkpt>
      <trkpt lat="49.88925" lon="2.26711">
        <ele>25.2</ele>
        <time>2023-05-26T13:05:59Z</time>
      </trkpt>
      <trkpt lat="49.88925" lon="2.26711">
        <ele>25.2</ele>
        <time>2023-05-26T13:06:00Z</time>
      </trkpt>
      <trkpt lat="49.88925" lon="2.26711">
        <ele>25.2</ele>
        <time>2023-05-26T13:06:01Z</time>
      </trkpt>
      <trkpt lat="49.88925" lon="2.26711">
        <ele>25.2</ele>
        <time>2023-05-26T13:06:03Z</time>
      </trkpt>
      <trkpt lat="49.88925" lon="2.26711">
        <ele>25.2</ele>
        <time>2023-05-26T13:06:05Z</time>
      </trkpt>
      <trkpt lat="49.88925" lon="2.26711">
        <ele>25.2</ele>
        <time>2023-05-26T13:06:06Z</time>
      </trkpt>
      <trkpt lat="49.88925" lon="2.26711">
        <ele>25.2</ele>
        <time>2023-05-26T13:06:08Z</time>
      </trkpt>
      <trkpt lat="49.88925" lon="2.26711">
        <ele>25.2</ele>
        <time>2023-05-26T13:06:09Z</time>
      </trkpt>
      <trkpt lat="49.88925" lon="2.2671">
        <ele>25.2</ele>
        <time>2023-05-26T13:06:10Z</time>
      </trkpt>
      <trkpt lat="49.88925" lon="2.2671">
        <ele>25.2</ele>
        <time>2023-05-26T13:06:11Z</time>
      </trkpt>
      <trkpt lat="49.88926" lon="2.26713">
        <ele>25.2</ele>
        <time>2023-05-26T13:06:15Z</time>
      </trkpt>
      <trkpt lat="49.88926" lon="2.26713">
        <ele>25.2</ele>
        <time>2023-05-26T13:06:17Z</time>
      </trkpt>
      <trkpt lat="49.88927" lon="2.26715">
        <ele>25.2</ele>
        <time>2023-05-26T13:06:18Z</time>
      </trkpt>
      <trkpt lat="49.88928" lon="2.26716">
        <ele>25.2</ele>
        <time>2023-05-26T13:06:19Z</time>
      </trkpt>
      <trkpt lat="49.88928" lon="2.26717">
        <ele>25.2</ele>
        <time>2023-05-26T13:06:20Z</time>
      </trkpt>
      <trkpt lat="49.88929" lon="2.26718">
        <ele>25.2</ele>
        <time>2023-05-26T13:06:22Z</time>
      </trkpt>
      <trkpt lat="49.8893" lon="2.2672">
        <ele>25.2</ele>
        <time>2023-05-26T13:06:23Z</time>
      </trkpt>
      <trkpt lat="49.88931" lon="2.26722">
        <ele>25.2</ele>
        <time>2023-05-26T13:06:24Z</time>
      </trkpt>
      <trkpt lat="49.88932" lon="2.26723">
        <ele>25.2</ele>
        <time>2023-05-26T13:06:25Z</time>
      </trkpt>
      <trkpt lat="49.88933" lon="2.26723">
        <ele>25.2</ele>
        <time>2023-05-26T13:06:26Z</time>
      </trkpt>
      <trkpt lat="49.88934" lon="2.26725">
        <ele>25.2</ele>
        <time>2023-05-26T13:06:27Z</time>
      </trkpt>
      <trkpt lat="49.88935" lon="2.26726">
        <ele>25.2</ele>
        <time>2023-05-26T13:06:29Z</time>
      </trkpt>
      <trkpt lat="49.88936" lon="2.26727">
        <ele>25.1</ele>
        <time>2023-05-26T13:06:30Z</time>
      </trkpt>
      <trkpt lat="49.88937" lon="2.26729">
        <ele>25.1</ele>
        <time>2023-05-26T13:06:31Z</time>
      </trkpt>
      <trkpt lat="49.88938" lon="2.2673">
        <ele>25.1</ele>
        <time>2023-05-26T13:06:32Z</time>
      </trkpt>
      <trkpt lat="49.88939" lon="2.26731">
        <ele>25.1</ele>
        <time>2023-05-26T13:06:33Z</time>
      </trkpt>
      <trkpt lat="49.88939" lon="2.26732">
        <ele>25.1</ele>
        <time>2023-05-26T13:06:34Z</time>
      </trkpt>
      <trkpt lat="49.8894" lon="2.26734">
        <ele>25.1</ele>
        <time>2023-05-26T13:06:36Z</time>
      </trkpt>
      <trkpt lat="49.88941" lon="2.26735">
        <ele>25.1</ele>
        <time>2023-05-26T13:06:37Z</time>
      </trkpt>
      <trkpt lat="49.88941" lon="2.26736">
        <ele>25.1</ele>
        <time>2023-05-26T13:06:38Z</time>
      </trkpt>
      <trkpt lat="49.88942" lon="2.26737">
        <ele>25.1</ele>
        <time>2023-05-26T13:06:39Z</time>
      </trkpt>
      <trkpt lat="49.88943" lon="2.26739">
        <ele>25.1</ele>
        <time>2023-05-26T13:06:40Z</time>
      </trkpt>
      <trkpt lat="49.88943" lon="2.2674">
        <ele>25.1</ele>
        <time>2023-05-26T13:06:41Z</time>
      </trkpt>
      <trkpt lat="49.88944" lon="2.26741">
        <ele>25.1</ele>
        <time>2023-05-26T13:06:43Z</time>
      </trkpt>
      <trkpt lat="49.88945" lon="2.26742">
        <ele>25.1</ele>
        <time>2023-05-26T13:06:44Z</time>
      </trkpt>
      <trkpt lat="49.88946" lon="2.26743">
        <ele>25.1</ele>
        <time>2023-05-26T13:06:45Z</time>
      </trkpt>
      <trkpt lat="49.88946" lon="2.26745">
        <ele>25.1</ele>
        <time>2023-05-26T13:06:46Z</time>
      </trkpt>
      <trkpt lat="49.88947" lon="2.26746">
        <ele>25.1</ele>
        <time>2023-05-26T13:06:47Z</time>
      </trkpt>
      <trkpt lat="49.88947" lon="2.26747">
        <ele>25.1</ele>
        <time>2023-05-26T13:06:48Z</time>
      </trkpt>
      <trkpt lat="49.88948" lon="2.26748">
        <ele>25.1</ele>
        <time>2023-05-26T13:06:49Z</time>
      </trkpt>
      <trkpt lat="49.88949" lon="2.26751">
        <ele>25.1</ele>
        <time>2023-05-26T13:06:51Z</time>
      </trkpt>
      <trkpt lat="49.88949" lon="2.26752">
        <ele>25.1</ele>
        <time>2023-05-26T13:06:52Z</time>
      </trkpt>
      <trkpt lat="49.8895" lon="2.26753">
        <ele>25.1</ele>
        <time>2023-05-26T13:06:53Z</time>
      </trkpt>
      <trkpt lat="49.88951" lon="2.26755">
        <ele>25.1</ele>
        <time>2023-05-26T13:06:54Z</time>
      </trkpt>
      <trkpt lat="49.88951" lon="2.26757">
        <ele>25.1</ele>
        <time>2023-05-26T13:06:55Z</time>
      </trkpt>
      <trkpt lat="49.88952" lon="2.26758">
        <ele>25.1</ele>
        <time>2023-05-26T13:06:57Z</time>
      </trkpt>
      <trkpt lat="49.88952" lon="2.26759">
        <ele>25.1</ele>
        <time>2023-05-26T13:06:58Z</time>
      </trkpt>
      <trkpt lat="49.88952" lon="2.26761">
        <ele>25.1</ele>
        <time>2023-05-26T13:06:59Z</time>
      </trkpt>
      <trkpt lat="49.88953" lon="2.26762">
        <ele>25.1</ele>
        <time>2023-05-26T13:07:00Z</time>
      </trkpt>
      <trkpt lat="49.88954" lon="2.26764">
        <ele>25.1</ele>
        <time>2023-05-26T13:07:01Z</time>
      </trkpt>
      <trkpt lat="49.88955" lon="2.26765">
        <ele>25.1</ele>
        <time>2023-05-26T13:07:03Z</time>
      </trkpt>
      <trkpt lat="49.88956" lon="2.26766">
        <ele>25.1</ele>
        <time>2023-05-26T13:07:04Z</time>
      </trkpt>
      <trkpt lat="49.88957" lon="2.26768">
        <ele>25.1</ele>
        <time>2023-05-26T13:07:05Z</time>
      </trkpt>
      <trkpt lat="49.88958" lon="2.26769">
        <ele>25.1</ele>
        <time>2023-05-26T13:07:06Z</time>
      </trkpt>
      <trkpt lat="49.88958" lon="2.2677">
        <ele>25.1</ele>
        <time>2023-05-26T13:07:07Z</time>
      </trkpt>
      <trkpt lat="49.88959" lon="2.26772">
        <ele>25.1</ele>
        <time>2023-05-26T13:07:09Z</time>
      </trkpt>
      <trkpt lat="49.88959" lon="2.26773">
        <ele>25.1</ele>
        <time>2023-05-26T13:07:10Z</time>
      </trkpt>
      <trkpt lat="49.8896" lon="2.26775">
        <ele>25</ele>
        <time>2023-05-26T13:07:11Z</time>
      </trkpt>
      <trkpt lat="49.8896" lon="2.26777">
        <ele>25</ele>
        <time>2023-05-26T13:07:12Z</time>
      </trkpt>
      <trkpt lat="49.88961" lon="2.26778">
        <ele>25</ele>
        <time>2023-05-26T13:07:13Z</time>
      </trkpt>
      <trkpt lat="49.88961" lon="2.2678">
        <ele>25</ele>
        <time>2023-05-26T13:07:14Z</time>
      </trkpt>
      <trkpt lat="49.88962" lon="2.26783">
        <ele>25</ele>
        <time>2023-05-26T13:07:15Z</time>
      </trkpt>
      <trkpt lat="49.88963" lon="2.26784">
        <ele>25</ele>
        <time>2023-05-26T13:07:16Z</time>
      </trkpt>
      <trkpt lat="49.88963" lon="2.26785">
        <ele>25</ele>
        <time>2023-05-26T13:07:17Z</time>
      </trkpt>
      <trkpt lat="49.88964" lon="2.26788">
        <ele>25</ele>
        <time>2023-05-26T13:07:18Z</time>
      </trkpt>
      <trkpt lat="49.88965" lon="2.26789">
        <ele>25</ele>
        <time>2023-05-26T13:07:19Z</time>
      </trkpt>
      <trkpt lat="49.88965" lon="2.26791">
        <ele>25</ele>
        <time>2023-05-26T13:07:21Z</time>
      </trkpt>
      <trkpt lat="49.88966" lon="2.26792">
        <ele>25</ele>
        <time>2023-05-26T13:07:22Z</time>
      </trkpt>
      <trkpt lat="49.88966" lon="2.26793">
        <ele>25</ele>
        <time>2023-05-26T13:07:23Z</time>
      </trkpt>
      <trkpt lat="49.88966" lon="2.26795">
        <ele>25</ele>
        <time>2023-05-26T13:07:24Z</time>
      </trkpt>
      <trkpt lat="49.88967" lon="2.26796">
        <ele>25</ele>
        <time>2023-05-26T13:07:25Z</time>
      </trkpt>
      <trkpt lat="49.88967" lon="2.26798">
        <ele>25</ele>
        <time>2023-05-26T13:07:26Z</time>
      </trkpt>
      <trkpt lat="49.88967" lon="2.26799">
        <ele>25</ele>
        <time>2023-05-26T13:07:28Z</time>
      </trkpt>
      <trkpt lat="49.88967" lon="2.26801">
        <ele>25</ele>
        <time>2023-05-26T13:07:29Z</time>
      </trkpt>
      <trkpt lat="49.88968" lon="2.26803">
        <ele>25</ele>
        <time>2023-05-26T13:07:30Z</time>
      </trkpt>
      <trkpt lat="49.88968" lon="2.26805">
        <ele>25</ele>
        <time>2023-05-26T13:07:31Z</time>
      </trkpt>
      <trkpt lat="49.88968" lon="2.26806">
        <ele>25</ele>
        <time>2023-05-26T13:07:33Z</time>
      </trkpt>
      <trkpt lat="49.88969" lon="2.26808">
        <ele>25</ele>
        <time>2023-05-26T13:07:34Z</time>
      </trkpt>
      <trkpt lat="49.88969" lon="2.2681">
        <ele>25</ele>
        <time>2023-05-26T13:07:35Z</time>
      </trkpt>
      <trkpt lat="49.88969" lon="2.26811">
        <ele>25</ele>
        <time>2023-05-26T13:07:36Z</time>
      </trkpt>
      <trkpt lat="49.8897" lon="2.26813">
        <ele>25</ele>
        <time>2023-05-26T13:07:37Z</time>
      </trkpt>
      <trkpt lat="49.8897" lon="2.26815">
        <ele>25</ele>
        <time>2023-05-26T13:07:38Z</time>
      </trkpt>
      <trkpt lat="49.8897" lon="2.26817">
        <ele>25</ele>
        <time>2023-05-26T13:07:40Z</time>
      </trkpt>
      <trkpt lat="49.88971" lon="2.26818">
        <ele>25</ele>
        <time>2023-05-26T13:07:41Z</time>
      </trkpt>
      <trkpt lat="49.88971" lon="2.2682">
        <ele>25</ele>
        <time>2023-05-26T13:07:42Z</time>
      </trkpt>
      <trkpt lat="49.88972" lon="2.26823">
        <ele>25</ele>
        <time>2023-05-26T13:07:43Z</time>
      </trkpt>
      <trkpt lat="49.88972" lon="2.26824">
        <ele>25</ele>
        <time>2023-05-26T13:07:44Z</time>
      </trkpt>
      <trkpt lat="49.88973" lon="2.26825">
        <ele>25</ele>
        <time>2023-05-26T13:07:45Z</time>
      </trkpt>
      <trkpt lat="49.88974" lon="2.26826">
        <ele>25</ele>
        <time>2023-05-26T13:07:47Z</time>
      </trkpt>
      <trkpt lat="49.88974" lon="2.26827">
        <ele>25</ele>
        <time>2023-05-26T13:07:48Z</time>
      </trkpt>
      <trkpt lat="49.88975" lon="2.26828">
        <ele>25</ele>
        <time>2023-05-26T13:07:49Z</time>
      </trkpt>
      <trkpt lat="49.88977" lon="2.26831">
        <ele>25</ele>
        <time>2023-05-26T13:07:50Z</time>
      </trkpt>
      <trkpt lat="49.88977" lon="2.26831">
        <ele>25</ele>
        <time>2023-05-26T13:07:51Z</time>
      </trkpt>
      <trkpt lat="49.88978" lon="2.26832">
        <ele>25</ele>
        <time>2023-05-26T13:07:52Z</time>
      </trkpt>
      <trkpt lat="49.88978" lon="2.26834">
        <ele>25</ele>
        <time>2023-05-26T13:07:54Z</time>
      </trkpt>
      <trkpt lat="49.88979" lon="2.26835">
        <ele>25</ele>
        <time>2023-05-26T13:07:55Z</time>
      </trkpt>
      <trkpt lat="49.8898" lon="2.26836">
        <ele>25</ele>
        <time>2023-05-26T13:07:56Z</time>
      </trkpt>
      <trkpt lat="49.8898" lon="2.26838">
        <ele>25</ele>
        <time>2023-05-26T13:07:57Z</time>
      </trkpt>
      <trkpt lat="49.8898" lon="2.26839">
        <ele>25</ele>
        <time>2023-05-26T13:07:58Z</time>
      </trkpt>
      <trkpt lat="49.88981" lon="2.2684">
        <ele>25</ele>
        <time>2023-05-26T13:07:59Z</time>
      </trkpt>
      <trkpt lat="49.88981" lon="2.26842">
        <ele>25</ele>
        <time>2023-05-26T13:08:01Z</time>
      </trkpt>
      <trkpt lat="49.88982" lon="2.26843">
        <ele>25</ele>
        <time>2023-05-26T13:08:02Z</time>
      </trkpt>
      <trkpt lat="49.88982" lon="2.26845">
        <ele>25</ele>
        <time>2023-05-26T13:08:03Z</time>
      </trkpt>
      <trkpt lat="49.88982" lon="2.26846">
        <ele>25</ele>
        <time>2023-05-26T13:08:04Z</time>
      </trkpt>
      <trkpt lat="49.88983" lon="2.26848">
        <ele>25</ele>
        <time>2023-05-26T13:08:05Z</time>
      </trkpt>
      <trkpt lat="49.88983" lon="2.26849">
        <ele>25</ele>
        <time>2023-05-26T13:08:06Z</time>
      </trkpt>
      <trkpt lat="49.88984" lon="2.26851">
        <ele>25</ele>
        <time>2023-05-26T13:08:08Z</time>
      </trkpt>
      <trkpt lat="49.88984" lon="2.26852">
        <ele>25</ele>
        <time>2023-05-26T13:08:09Z</time>
      </trkpt>
      <trkpt lat="49.88985" lon="2.26854">
        <ele>25</ele>
        <time>2023-05-26T13:08:10Z</time>
      </trkpt>
      <trkpt lat="49.88985" lon="2.26856">
        <ele>25</ele>
        <time>2023-05-26T13:08:11Z</time>
      </trkpt>
      <trkpt lat="49.88986" lon="2.26857">
        <ele>25</ele>
        <time>2023-05-26T13:08:12Z</time>
      </trkpt>
      <trkpt lat="49.88986" lon="2.26859">
        <ele>25</ele>
        <time>2023-05-26T13:08:14Z</time>
      </trkpt>
      <trkpt lat="49.88986" lon="2.26861">
        <ele>25</ele>
        <time>2023-05-26T13:08:15Z</time>
      </trkpt>
      <trkpt lat="49.88987" lon="2.26862">
        <ele>25</ele>
        <time>2023-05-26T13:08:16Z</time>
      </trkpt>
      <trkpt lat="49.88987" lon="2.26864">
        <ele>25</ele>
        <time>2023-05-26T13:08:17Z</time>
      </trkpt>
      <trkpt lat="49.88988" lon="2.26865">
        <ele>25</ele>
        <time>2023-05-26T13:08:19Z</time>
      </trkpt>
      <trkpt lat="49.88988" lon="2.26866">
        <ele>25</ele>
        <time>2023-05-26T13:08:20Z</time>
      </trkpt>
      <trkpt lat="49.88988" lon="2.26868">
        <ele>25</ele>
        <time>2023-05-26T13:08:21Z</time>
      </trkpt>
      <trkpt lat="49.88989" lon="2.26871">
        <ele>25</ele>
        <time>2023-05-26T13:08:22Z</time>
      </trkpt>
      <trkpt lat="49.8899" lon="2.26872">
        <ele>25</ele>
        <time>2023-05-26T13:08:23Z</time>
      </trkpt>
      <trkpt lat="49.88991" lon="2.26874">
        <ele>25</ele>
        <time>2023-05-26T13:08:25Z</time>
      </trkpt>
      <trkpt lat="49.88992" lon="2.26875">
        <ele>25</ele>
        <time>2023-05-26T13:08:26Z</time>
      </trkpt>
      <trkpt lat="49.88992" lon="2.26876">
        <ele>25</ele>
        <time>2023-05-26T13:08:28Z</time>
      </trkpt>
      <trkpt lat="49.88993" lon="2.26878">
        <ele>25</ele>
        <time>2023-05-26T13:08:29Z</time>
      </trkpt>
      <trkpt lat="49.88994" lon="2.26879">
        <ele>25</ele>
        <time>2023-05-26T13:08:30Z</time>
      </trkpt>
      <trkpt lat="49.88994" lon="2.2688">
        <ele>25</ele>
        <time>2023-05-26T13:08:31Z</time>
      </trkpt>
      <trkpt lat="49.88995" lon="2.26883">
        <ele>25</ele>
        <time>2023-05-26T13:08:33Z</time>
      </trkpt>
      <trkpt lat="49.88996" lon="2.26885">
        <ele>25</ele>
        <time>2023-05-26T13:08:34Z</time>
      </trkpt>
      <trkpt lat="49.88997" lon="2.26887">
        <ele>25</ele>
        <time>2023-05-26T13:08:36Z</time>
      </trkpt>
      <trkpt lat="49.88998" lon="2.26888">
        <ele>25</ele>
        <time>2023-05-26T13:08:37Z</time>
      </trkpt>
      <trkpt lat="49.88998" lon="2.2689">
        <ele>25</ele>
        <time>2023-05-26T13:08:38Z</time>
      </trkpt>
      <trkpt lat="49.88999" lon="2.26891">
        <ele>25</ele>
        <time>2023-05-26T13:08:39Z</time>
      </trkpt>
      <trkpt lat="49.88999" lon="2.26892">
        <ele>25</ele>
        <time>2023-05-26T13:08:40Z</time>
      </trkpt>
      <trkpt lat="49.89" lon="2.26894">
        <ele>25</ele>
        <time>2023-05-26T13:08:41Z</time>
      </trkpt>
      <trkpt lat="49.89001" lon="2.26895">
        <ele>25</ele>
        <time>2023-05-26T13:08:43Z</time>
      </trkpt>
      <trkpt lat="49.89002" lon="2.26896">
        <ele>25</ele>
        <time>2023-05-26T13:08:44Z</time>
      </trkpt>
      <trkpt lat="49.89002" lon="2.26897">
        <ele>25</ele>
        <time>2023-05-26T13:08:45Z</time>
      </trkpt>
      <trkpt lat="49.89003" lon="2.26898">
        <ele>25</ele>
        <time>2023-05-26T13:08:46Z</time>
      </trkpt>
      <trkpt lat="49.89004" lon="2.269">
        <ele>25</ele>
        <time>2023-05-26T13:08:47Z</time>
      </trkpt>
      <trkpt lat="49.89005" lon="2.26901">
        <ele>25</ele>
        <time>2023-05-26T13:08:48Z</time>
      </trkpt>
      <trkpt lat="49.89006" lon="2.26902">
        <ele>25</ele>
        <time>2023-05-26T13:08:49Z</time>
      </trkpt>
      <trkpt lat="49.89006" lon="2.26904">
        <ele>25</ele>
        <time>2023-05-26T13:08:51Z</time>
      </trkpt>
      <trkpt lat="49.89007" lon="2.26905">
        <ele>25</ele>
        <time>2023-05-26T13:08:52Z</time>
      </trkpt>
      <trkpt lat="49.89007" lon="2.26908">
        <ele>25</ele>
        <time>2023-05-26T13:08:53Z</time>
      </trkpt>
      <trkpt lat="49.89008" lon="2.26909">
        <ele>25</ele>
        <time>2023-05-26T13:08:54Z</time>
      </trkpt>
      <trkpt lat="49.89008" lon="2.2691">
        <ele>25</ele>
        <time>2023-05-26T13:08:55Z</time>
      </trkpt>
      <trkpt lat="49.89008" lon="2.26912">
        <ele>25</ele>
        <time>2023-05-26T13:08:56Z</time>
      </trkpt>
      <trkpt lat="49.89009" lon="2.26914">
        <ele>25</ele>
        <time>2023-05-26T13:08:57Z</time>
      </trkpt>
      <trkpt lat="49.8901" lon="2.26916">
        <ele>25</ele>
        <time>2023-05-26T13:08:59Z</time>
      </trkpt>
      <trkpt lat="49.89011" lon="2.26919">
        <ele>25</ele>
        <time>2023-05-26T13:09:00Z</time>
      </trkpt>
      <trkpt lat="49.89011" lon="2.2692">
        <ele>25</ele>
        <time>2023-05-26T13:09:01Z</time>
      </trkpt>
      <trkpt lat="49.89011" lon="2.26922">
        <ele>25</ele>
        <time>2023-05-26T13:09:02Z</time>
      </trkpt>
      <trkpt lat="49.89012" lon="2.26923">
        <ele>25</ele>
        <time>2023-05-26T13:09:03Z</time>
      </trkpt>
      <trkpt lat="49.89012" lon="2.26925">
        <ele>25</ele>
        <time>2023-05-26T13:09:04Z</time>
      </trkpt>
      <trkpt lat="49.89012" lon="2.26927">
        <ele>25</ele>
        <time>2023-05-26T13:09:06Z</time>
      </trkpt>
      <trkpt lat="49.89013" lon="2.26929">
        <ele>25</ele>
        <time>2023-05-26T13:09:07Z</time>
      </trkpt>
      <trkpt lat="49.89013" lon="2.2693">
        <ele>25</ele>
        <time>2023-05-26T13:09:08Z</time>
      </trkpt>
      <trkpt lat="49.89014" lon="2.26932">
        <ele>25</ele>
        <time>2023-05-26T13:09:09Z</time>
      </trkpt>
      <trkpt lat="49.89014" lon="2.26934">
        <ele>25</ele>
        <time>2023-05-26T13:09:10Z</time>
      </trkpt>
      <trkpt lat="49.89015" lon="2.26936">
        <ele>25</ele>
        <time>2023-05-26T13:09:11Z</time>
      </trkpt>
      <trkpt lat="49.89015" lon="2.26937">
        <ele>25</ele>
        <time>2023-05-26T13:09:13Z</time>
      </trkpt>
      <trkpt lat="49.89016" lon="2.26939">
        <ele>25</ele>
        <time>2023-05-26T13:09:14Z</time>
      </trkpt>
      <trkpt lat="49.89016" lon="2.26941">
        <ele>25</ele>
        <time>2023-05-26T13:09:15Z</time>
      </trkpt>
      <trkpt lat="49.89017" lon="2.26942">
        <ele>25</ele>
        <time>2023-05-26T13:09:16Z</time>
      </trkpt>
      <trkpt lat="49.89017" lon="2.26944">
        <ele>25</ele>
        <time>2023-05-26T13:09:17Z</time>
      </trkpt>
      <trkpt lat="49.89018" lon="2.26946">
        <ele>25</ele>
        <time>2023-05-26T13:09:18Z</time>
      </trkpt>
      <trkpt lat="49.89018" lon="2.26947">
        <ele>25</ele>
        <time>2023-05-26T13:09:20Z</time>
      </trkpt>
      <trkpt lat="49.89019" lon="2.26948">
        <ele>25</ele>
        <time>2023-05-26T13:09:21Z</time>
      </trkpt>
      <trkpt lat="49.89019" lon="2.2695">
        <ele>25</ele>
        <time>2023-05-26T13:09:22Z</time>
      </trkpt>
      <trkpt lat="49.8902" lon="2.26951">
        <ele>25</ele>
        <time>2023-05-26T13:09:23Z</time>
      </trkpt>
      <trkpt lat="49.89021" lon="2.26953">
        <ele>25</ele>
        <time>2023-05-26T13:09:24Z</time>
      </trkpt>
      <trkpt lat="49.89021" lon="2.26954">
        <ele>25</ele>
        <time>2023-05-26T13:09:26Z</time>
      </trkpt>
      <trkpt lat="49.89022" lon="2.26956">
        <ele>25</ele>
        <time>2023-05-26T13:09:27Z</time>
      </trkpt>
      <trkpt lat="49.89022" lon="2.26957">
        <ele>25</ele>
        <time>2023-05-26T13:09:28Z</time>
      </trkpt>
      <trkpt lat="49.89023" lon="2.26959">
        <ele>25</ele>
        <time>2023-05-26T13:09:29Z</time>
      </trkpt>
      <trkpt lat="49.89024" lon="2.2696">
        <ele>25</ele>
        <time>2023-05-26T13:09:30Z</time>
      </trkpt>
      <trkpt lat="49.89024" lon="2.26962">
        <ele>25</ele>
        <time>2023-05-26T13:09:31Z</time>
      </trkpt>
      <trkpt lat="49.89025" lon="2.26963">
        <ele>25</ele>
        <time>2023-05-26T13:09:33Z</time>
      </trkpt>
      <trkpt lat="49.89026" lon="2.26964">
        <ele>25</ele>
        <time>2023-05-26T13:09:34Z</time>
      </trkpt>
      <trkpt lat="49.89027" lon="2.26967">
        <ele>25</ele>
        <time>2023-05-26T13:09:35Z</time>
      </trkpt>
      <trkpt lat="49.89027" lon="2.26968">
        <ele>25</ele>
        <time>2023-05-26T13:09:36Z</time>
      </trkpt>
      <trkpt lat="49.89028" lon="2.26969">
        <ele>25</ele>
        <time>2023-05-26T13:09:37Z</time>
      </trkpt>
      <trkpt lat="49.89028" lon="2.2697">
        <ele>25</ele>
        <time>2023-05-26T13:09:38Z</time>
      </trkpt>
      <trkpt lat="49.89029" lon="2.26972">
        <ele>25</ele>
        <time>2023-05-26T13:09:39Z</time>
      </trkpt>
      <trkpt lat="49.8903" lon="2.26973">
        <ele>25</ele>
        <time>2023-05-26T13:09:41Z</time>
      </trkpt>
      <trkpt lat="49.8903" lon="2.26974">
        <ele>25</ele>
        <time>2023-05-26T13:09:42Z</time>
      </trkpt>
      <trkpt lat="49.89031" lon="2.26976">
        <ele>25</ele>
        <time>2023-05-26T13:09:43Z</time>
      </trkpt>
      <trkpt lat="49.89031" lon="2.26977">
        <ele>25</ele>
        <time>2023-05-26T13:09:44Z</time>
      </trkpt>
      <trkpt lat="49.89032" lon="2.26979">
        <ele>25</ele>
        <time>2023-05-26T13:09:45Z</time>
      </trkpt>
      <trkpt lat="49.89033" lon="2.2698">
        <ele>25</ele>
        <time>2023-05-26T13:09:47Z</time>
      </trkpt>
      <trkpt lat="49.89033" lon="2.26981">
        <ele>25</ele>
        <time>2023-05-26T13:09:48Z</time>
      </trkpt>
      <trkpt lat="49.89034" lon="2.26983">
        <ele>25</ele>
        <time>2023-05-26T13:09:49Z</time>
      </trkpt>
      <trkpt lat="49.89035" lon="2.26984">
        <ele>25</ele>
        <time>2023-05-26T13:09:50Z</time>
      </trkpt>
      <trkpt lat="49.89036" lon="2.26985">
        <ele>25</ele>
        <time>2023-05-26T13:09:51Z</time>
      </trkpt>
      <trkpt lat="49.89037" lon="2.26987">
        <ele>25</ele>
        <time>2023-05-26T13:09:53Z</time>
      </trkpt>
      <trkpt lat="49.89037" lon="2.26988">
        <ele>25</ele>
        <time>2023-05-26T13:09:54Z</time>
      </trkpt>
      <trkpt lat="49.89038" lon="2.26989">
        <ele>25.1</ele>
        <time>2023-05-26T13:09:55Z</time>
      </trkpt>
      <trkpt lat="49.89039" lon="2.26992">
        <ele>25.1</ele>
        <time>2023-05-26T13:09:56Z</time>
      </trkpt>
      <trkpt lat="49.89039" lon="2.26993">
        <ele>25.1</ele>
        <time>2023-05-26T13:09:57Z</time>
      </trkpt>
      <trkpt lat="49.8904" lon="2.26994">
        <ele>25.1</ele>
        <time>2023-05-26T13:09:58Z</time>
      </trkpt>
      <trkpt lat="49.89041" lon="2.26995">
        <ele>25.1</ele>
        <time>2023-05-26T13:10:00Z</time>
      </trkpt>
      <trkpt lat="49.89041" lon="2.26997">
        <ele>25.1</ele>
        <time>2023-05-26T13:10:01Z</time>
      </trkpt>
      <trkpt lat="49.89042" lon="2.26998">
        <ele>25.1</ele>
        <time>2023-05-26T13:10:02Z</time>
      </trkpt>
      <trkpt lat="49.89044" lon="2.27">
        <ele>25.1</ele>
        <time>2023-05-26T13:10:03Z</time>
      </trkpt>
      <trkpt lat="49.89044" lon="2.27001">
        <ele>25.1</ele>
        <time>2023-05-26T13:10:04Z</time>
      </trkpt>
      <trkpt lat="49.89045" lon="2.27002">
        <ele>25.1</ele>
        <time>2023-05-26T13:10:05Z</time>
      </trkpt>
      <trkpt lat="49.89045" lon="2.27003">
        <ele>25.1</ele>
        <time>2023-05-26T13:10:07Z</time>
      </trkpt>
      <trkpt lat="49.89046" lon="2.27005">
        <ele>25.1</ele>
        <time>2023-05-26T13:10:08Z</time>
      </trkpt>
      <trkpt lat="49.89047" lon="2.27006">
        <ele>25</ele>
        <time>2023-05-26T13:10:09Z</time>
      </trkpt>
      <trkpt lat="49.89048" lon="2.27009">
        <ele>25</ele>
        <time>2023-05-26T13:10:10Z</time>
      </trkpt>
      <trkpt lat="49.89048" lon="2.2701">
        <ele>25</ele>
        <time>2023-05-26T13:10:11Z</time>
      </trkpt>
      <trkpt lat="49.89049" lon="2.27011">
        <ele>25</ele>
        <time>2023-05-26T13:10:12Z</time>
      </trkpt>
      <trkpt lat="49.8905" lon="2.27012">
        <ele>25</ele>
        <time>2023-05-26T13:10:14Z</time>
      </trkpt>
      <trkpt lat="49.89051" lon="2.27013">
        <ele>25</ele>
        <time>2023-05-26T13:10:15Z</time>
      </trkpt>
      <trkpt lat="49.89052" lon="2.27013">
        <ele>25</ele>
        <time>2023-05-26T13:10:16Z</time>
      </trkpt>
      <trkpt lat="49.89053" lon="2.27014">
        <ele>25</ele>
        <time>2023-05-26T13:10:17Z</time>
      </trkpt>
      <trkpt lat="49.89054" lon="2.27015">
        <ele>25</ele>
        <time>2023-05-26T13:10:18Z</time>
      </trkpt>
      <trkpt lat="49.89055" lon="2.27017">
        <ele>25</ele>
        <time>2023-05-26T13:10:20Z</time>
      </trkpt>
      <trkpt lat="49.89055" lon="2.27018">
        <ele>25</ele>
        <time>2023-05-26T13:10:21Z</time>
      </trkpt>
      <trkpt lat="49.89056" lon="2.27019">
        <ele>25</ele>
        <time>2023-05-26T13:10:22Z</time>
      </trkpt>
      <trkpt lat="49.89057" lon="2.27021">
        <ele>25</ele>
        <time>2023-05-26T13:10:23Z</time>
      </trkpt>
      <trkpt lat="49.89058" lon="2.27023">
        <ele>25</ele>
        <time>2023-05-26T13:10:24Z</time>
      </trkpt>
      <trkpt lat="49.89059" lon="2.27024">
        <ele>25</ele>
        <time>2023-05-26T13:10:25Z</time>
      </trkpt>
      <trkpt lat="49.89059" lon="2.27026">
        <ele>25</ele>
        <time>2023-05-26T13:10:27Z</time>
      </trkpt>
      <trkpt lat="49.8906" lon="2.27029">
        <ele>25</ele>
        <time>2023-05-26T13:10:28Z</time>
      </trkpt>
      <trkpt lat="49.89061" lon="2.2703">
        <ele>25</ele>
        <time>2023-05-26T13:10:29Z</time>
      </trkpt>
      <trkpt lat="49.89061" lon="2.27032">
        <ele>25</ele>
        <time>2023-05-26T13:10:30Z</time>
      </trkpt>
      <trkpt lat="49.89062" lon="2.27034">
        <ele>24.9</ele>
        <time>2023-05-26T13:10:31Z</time>
      </trkpt>
      <trkpt lat="49.89063" lon="2.27035">
        <ele>24.9</ele>
        <time>2023-05-26T13:10:32Z</time>
      </trkpt>
      <trkpt lat="49.89064" lon="2.27037">
        <ele>24.9</ele>
        <time>2023-05-26T13:10:33Z</time>
      </trkpt>
      <trkpt lat="49.89065" lon="2.27038">
        <ele>24.9</ele>
        <time>2023-05-26T13:10:34Z</time>
      </trkpt>
      <trkpt lat="49.89065" lon="2.2704">
        <ele>24.9</ele>
        <time>2023-05-26T13:10:36Z</time>
      </trkpt>
      <trkpt lat="49.89066" lon="2.27041">
        <ele>24.9</ele>
        <time>2023-05-26T13:10:37Z</time>
      </trkpt>
      <trkpt lat="49.89067" lon="2.27043">
        <ele>24.9</ele>
        <time>2023-05-26T13:10:38Z</time>
      </trkpt>
      <trkpt lat="49.89067" lon="2.27044">
        <ele>24.9</ele>
        <time>2023-05-26T13:10:39Z</time>
      </trkpt>
      <trkpt lat="49.89069" lon="2.27047">
        <ele>24.9</ele>
        <time>2023-05-26T13:10:40Z</time>
      </trkpt>
      <trkpt lat="49.89069" lon="2.27048">
        <ele>24.9</ele>
        <time>2023-05-26T13:10:41Z</time>
      </trkpt>
      <trkpt lat="49.8907" lon="2.27049">
        <ele>24.9</ele>
        <time>2023-05-26T13:10:42Z</time>
      </trkpt>
      <trkpt lat="49.8907" lon="2.2705">
        <ele>24.9</ele>
        <time>2023-05-26T13:10:44Z</time>
      </trkpt>
      <trkpt lat="49.89071" lon="2.27051">
        <ele>24.9</ele>
        <time>2023-05-26T13:10:45Z</time>
      </trkpt>
      <trkpt lat="49.89071" lon="2.27053">
        <ele>24.9</ele>
        <time>2023-05-26T13:10:46Z</time>
      </trkpt>
      <trkpt lat="49.89072" lon="2.27056">
        <ele>24.9</ele>
        <time>2023-05-26T13:10:47Z</time>
      </trkpt>
      <trkpt lat="49.89073" lon="2.27057">
        <ele>24.9</ele>
        <time>2023-05-26T13:10:48Z</time>
      </trkpt>
      <trkpt lat="49.89073" lon="2.27058">
        <ele>24.9</ele>
        <time>2023-05-26T13:10:49Z</time>
      </trkpt>
      <trkpt lat="49.89074" lon="2.27059">
        <ele>24.9</ele>
        <time>2023-05-26T13:10:51Z</time>
      </trkpt>
      <trkpt lat="49.89074" lon="2.27061">
        <ele>24.9</ele>
        <time>2023-05-26T13:10:52Z</time>
      </trkpt>
      <trkpt lat="49.89075" lon="2.27062">
        <ele>24.8</ele>
        <time>2023-05-26T13:10:53Z</time>
      </trkpt>
      <trkpt lat="49.89075" lon="2.27063">
        <ele>24.8</ele>
        <time>2023-05-26T13:10:54Z</time>
      </trkpt>
      <trkpt lat="49.89076" lon="2.27065">
        <ele>24.8</ele>
        <time>2023-05-26T13:10:55Z</time>
      </trkpt>
      <trkpt lat="49.89076" lon="2.27066">
        <ele>24.8</ele>
        <time>2023-05-26T13:10:56Z</time>
      </trkpt>
      <trkpt lat="49.89077" lon="2.27067">
        <ele>24.8</ele>
        <time>2023-05-26T13:10:57Z</time>
      </trkpt>
      <trkpt lat="49.89078" lon="2.27068">
        <ele>24.8</ele>
        <time>2023-05-26T13:10:59Z</time>
      </trkpt>
      <trkpt lat="49.89079" lon="2.27069">
        <ele>24.8</ele>
        <time>2023-05-26T13:11:00Z</time>
      </trkpt>
      <trkpt lat="49.89079" lon="2.2707">
        <ele>24.8</ele>
        <time>2023-05-26T13:11:01Z</time>
      </trkpt>
      <trkpt lat="49.8908" lon="2.27071">
        <ele>24.8</ele>
        <time>2023-05-26T13:11:02Z</time>
      </trkpt>
      <trkpt lat="49.89081" lon="2.27073">
        <ele>24.8</ele>
        <time>2023-05-26T13:11:03Z</time>
      </trkpt>
      <trkpt lat="49.89082" lon="2.27074">
        <ele>24.8</ele>
        <time>2023-05-26T13:11:04Z</time>
      </trkpt>
      <trkpt lat="49.89083" lon="2.27075">
        <ele>24.8</ele>
        <time>2023-05-26T13:11:06Z</time>
      </trkpt>
      <trkpt lat="49.89083" lon="2.27076">
        <ele>24.8</ele>
        <time>2023-05-26T13:11:07Z</time>
      </trkpt>
      <trkpt lat="49.89084" lon="2.27078">
        <ele>24.8</ele>
        <time>2023-05-26T13:11:08Z</time>
      </trkpt>
      <trkpt lat="49.89085" lon="2.27079">
        <ele>24.8</ele>
        <time>2023-05-26T13:11:09Z</time>
      </trkpt>
      <trkpt lat="49.89086" lon="2.2708">
        <ele>24.8</ele>
        <time>2023-05-26T13:11:10Z</time>
      </trkpt>
      <trkpt lat="49.89086" lon="2.27081">
        <ele>24.8</ele>
        <time>2023-05-26T13:11:11Z</time>
      </trkpt>
      <trkpt lat="49.89087" lon="2.27083">
        <ele>24.7</ele>
        <time>2023-05-26T13:11:12Z</time>
      </trkpt>
      <trkpt lat="49.89088" lon="2.27084">
        <ele>24.7</ele>
        <time>2023-05-26T13:11:14Z</time>
      </trkpt>
      <trkpt lat="49.89088" lon="2.27086">
        <ele>24.7</ele>
        <time>2023-05-26T13:11:15Z</time>
      </trkpt>
      <trkpt lat="49.89089" lon="2.27088">
        <ele>24.7</ele>
        <time>2023-05-26T13:11:16Z</time>
      </trkpt>
      <trkpt lat="49.8909" lon="2.27091">
        <ele>24.7</ele>
        <time>2023-05-26T13:11:17Z</time>
      </trkpt>
      <trkpt lat="49.8909" lon="2.27092">
        <ele>24.7</ele>
        <time>2023-05-26T13:11:18Z</time>
      </trkpt>
      <trkpt lat="49.89091" lon="2.27093">
        <ele>24.7</ele>
        <time>2023-05-26T13:11:19Z</time>
      </trkpt>
      <trkpt lat="49.89092" lon="2.27095">
        <ele>24.7</ele>
        <time>2023-05-26T13:11:21Z</time>
      </trkpt>
      <trkpt lat="49.89092" lon="2.27096">
        <ele>24.7</ele>
        <time>2023-05-26T13:11:22Z</time>
      </trkpt>
      <trkpt lat="49.89093" lon="2.27097">
        <ele>24.7</ele>
        <time>2023-05-26T13:11:23Z</time>
      </trkpt>
      <trkpt lat="49.89094" lon="2.27099">
        <ele>24.7</ele>
        <time>2023-05-26T13:11:24Z</time>
      </trkpt>
      <trkpt lat="49.89094" lon="2.271">
        <ele>24.7</ele>
        <time>2023-05-26T13:11:25Z</time>
      </trkpt>
      <trkpt lat="49.89095" lon="2.27101">
        <ele>24.7</ele>
        <time>2023-05-26T13:11:27Z</time>
      </trkpt>
      <trkpt lat="49.89095" lon="2.27103">
        <ele>24.7</ele>
        <time>2023-05-26T13:11:28Z</time>
      </trkpt>
      <trkpt lat="49.89096" lon="2.27105">
        <ele>24.7</ele>
        <time>2023-05-26T13:11:29Z</time>
      </trkpt>
      <trkpt lat="49.89096" lon="2.27107">
        <ele>24.7</ele>
        <time>2023-05-26T13:11:30Z</time>
      </trkpt>
      <trkpt lat="49.89097" lon="2.2711">
        <ele>24.7</ele>
        <time>2023-05-26T13:11:31Z</time>
      </trkpt>
      <trkpt lat="49.89097" lon="2.27111">
        <ele>24.7</ele>
        <time>2023-05-26T13:11:32Z</time>
      </trkpt>
      <trkpt lat="49.89098" lon="2.27113">
        <ele>24.7</ele>
        <time>2023-05-26T13:11:34Z</time>
      </trkpt>
      <trkpt lat="49.89098" lon="2.27114">
        <ele>24.7</ele>
        <time>2023-05-26T13:11:35Z</time>
      </trkpt>
      <trkpt lat="49.89099" lon="2.27115">
        <ele>24.6</ele>
        <time>2023-05-26T13:11:36Z</time>
      </trkpt>
      <trkpt lat="49.89099" lon="2.27117">
        <ele>24.6</ele>
        <time>2023-05-26T13:11:37Z</time>
      </trkpt>
      <trkpt lat="49.891" lon="2.27118">
        <ele>24.6</ele>
        <time>2023-05-26T13:11:38Z</time>
      </trkpt>
      <trkpt lat="49.891" lon="2.27119">
        <ele>24.6</ele>
        <time>2023-05-26T13:11:40Z</time>
      </trkpt>
      <trkpt lat="49.89101" lon="2.27121">
        <ele>24.6</ele>
        <time>2023-05-26T13:11:41Z</time>
      </trkpt>
      <trkpt lat="49.89102" lon="2.27122">
        <ele>24.6</ele>
        <time>2023-05-26T13:11:42Z</time>
      </trkpt>
      <trkpt lat="49.89102" lon="2.27123">
        <ele>24.6</ele>
        <time>2023-05-26T13:11:43Z</time>
      </trkpt>
      <trkpt lat="49.89103" lon="2.27125">
        <ele>24.6</ele>
        <time>2023-05-26T13:11:45Z</time>
      </trkpt>
      <trkpt lat="49.89103" lon="2.27126">
        <ele>24.6</ele>
        <time>2023-05-26T13:11:46Z</time>
      </trkpt>
      <trkpt lat="49.89104" lon="2.27127">
        <ele>24.6</ele>
        <time>2023-05-26T13:11:47Z</time>
      </trkpt>
      <trkpt lat="49.89105" lon="2.27128">
        <ele>24.6</ele>
        <time>2023-05-26T13:11:49Z</time>
      </trkpt>
      <trkpt lat="49.89105" lon="2.27128">
        <ele>24.6</ele>
        <time>2023-05-26T13:11:50Z</time>
      </trkpt>
      <trkpt lat="49.89105" lon="2.27127">
        <ele>24.6</ele>
        <time>2023-05-26T13:11:51Z</time>
      </trkpt>
      <trkpt lat="49.89105" lon="2.27127">
        <ele>24.6</ele>
        <time>2023-05-26T13:11:53Z</time>
      </trkpt>
      <trkpt lat="49.89105" lon="2.27127">
        <ele>24.6</ele>
        <time>2023-05-26T13:11:54Z</time>
      </trkpt>
      <trkpt lat="49.89105" lon="2.27127">
        <ele>24.6</ele>
        <time>2023-05-26T13:11:55Z</time>
      </trkpt>
      <trkpt lat="49.89105" lon="2.27127">
        <ele>24.6</ele>
        <time>2023-05-26T13:11:56Z</time>
      </trkpt>
      <trkpt lat="49.89105" lon="2.27127">
        <ele>24.6</ele>
        <time>2023-05-26T13:11:57Z</time>
      </trkpt>
      <trkpt lat="49.89105" lon="2.27127">
        <ele>24.6</ele>
        <time>2023-05-26T13:11:59Z</time>
      </trkpt>
      <trkpt lat="49.89105" lon="2.27128">
        <ele>24.6</ele>
        <time>2023-05-26T13:12:00Z</time>
      </trkpt>
      <trkpt lat="49.89106" lon="2.27129">
        <ele>24.6</ele>
        <time>2023-05-26T13:12:02Z</time>
      </trkpt>
      <trkpt lat="49.89106" lon="2.2713">
        <ele>24.6</ele>
        <time>2023-05-26T13:12:03Z</time>
      </trkpt>
      <trkpt lat="49.89106" lon="2.27132">
        <ele>24.6</ele>
        <time>2023-05-26T13:12:05Z</time>
      </trkpt>
      <trkpt lat="49.89106" lon="2.27132">
        <ele>24.6</ele>
        <time>2023-05-26T13:12:06Z</time>
      </trkpt>
      <trkpt lat="49.89106" lon="2.27132">
        <ele>24.6</ele>
        <time>2023-05-26T13:12:07Z</time>
      </trkpt>
      <trkpt lat="49.89106" lon="2.27132">
        <ele>24.6</ele>
        <time>2023-05-26T13:12:09Z</time>
      </trkpt>
      <trkpt lat="49.89106" lon="2.27132">
        <ele>24.6</ele>
        <time>2023-05-26T13:12:10Z</time>
      </trkpt>
      <trkpt lat="49.89106" lon="2.27133">
        <ele>24.6</ele>
        <time>2023-05-26T13:12:11Z</time>
      </trkpt>
      <trkpt lat="49.89106" lon="2.27133">
        <ele>24.6</ele>
        <time>2023-05-26T13:12:12Z</time>
      </trkpt>
      <trkpt lat="49.89106" lon="2.27133">
        <ele>24.6</ele>
        <time>2023-05-26T13:12:13Z</time>
      </trkpt>
      <trkpt lat="49.89106" lon="2.27133">
        <ele>24.6</ele>
        <time>2023-05-26T13:12:14Z</time>
      </trkpt>
      <trkpt lat="49.89107" lon="2.27134">
        <ele>24.6</ele>
        <time>2023-05-26T13:12:15Z</time>
      </trkpt>
      <trkpt lat="49.89107" lon="2.27135">
        <ele>24.6</ele>
        <time>2023-05-26T13:12:17Z</time>
      </trkpt>
      <trkpt lat="49.89108" lon="2.27135">
        <ele>24.5</ele>
        <time>2023-05-26T13:12:18Z</time>
      </trkpt>
      <trkpt lat="49.89108" lon="2.27136">
        <ele>24.5</ele>
        <time>2023-05-26T13:12:19Z</time>
      </trkpt>
      <trkpt lat="49.89109" lon="2.27138">
        <ele>24.5</ele>
        <time>2023-05-26T13:12:20Z</time>
      </trkpt>
      <trkpt lat="49.8911" lon="2.27139">
        <ele>24.5</ele>
        <time>2023-05-26T13:12:21Z</time>
      </trkpt>
      <trkpt lat="49.89112" lon="2.27141">
        <ele>24.5</ele>
        <time>2023-05-26T13:12:22Z</time>
      </trkpt>
      <trkpt lat="49.89112" lon="2.27142">
        <ele>24.5</ele>
        <time>2023-05-26T13:12:24Z</time>
      </trkpt>
      <trkpt lat="49.89113" lon="2.27143">
        <ele>24.5</ele>
        <time>2023-05-26T13:12:25Z</time>
      </trkpt>
      <trkpt lat="49.89114" lon="2.27144">
        <ele>24.5</ele>
        <time>2023-05-26T13:12:26Z</time>
      </trkpt>
      <trkpt lat="49.89115" lon="2.27146">
        <ele>24.5</ele>
        <time>2023-05-26T13:12:27Z</time>
      </trkpt>
      <trkpt lat="49.89116" lon="2.27148">
        <ele>24.5</ele>
        <time>2023-05-26T13:12:29Z</time>
      </trkpt>
      <trkpt lat="49.89117" lon="2.2715">
        <ele>24.5</ele>
        <time>2023-05-26T13:12:31Z</time>
      </trkpt>
      <trkpt lat="49.89118" lon="2.27151">
        <ele>24.5</ele>
        <time>2023-05-26T13:12:32Z</time>
      </trkpt>
      <trkpt lat="49.89118" lon="2.27153">
        <ele>24.5</ele>
        <time>2023-05-26T13:12:33Z</time>
      </trkpt>
      <trkpt lat="49.89119" lon="2.27154">
        <ele>24.5</ele>
        <time>2023-05-26T13:12:34Z</time>
      </trkpt>
      <trkpt lat="49.8912" lon="2.27156">
        <ele>24.4</ele>
        <time>2023-05-26T13:12:35Z</time>
      </trkpt>
      <trkpt lat="49.8912" lon="2.27157">
        <ele>24.4</ele>
        <time>2023-05-26T13:12:37Z</time>
      </trkpt>
      <trkpt lat="49.89121" lon="2.27158">
        <ele>24.4</ele>
        <time>2023-05-26T13:12:38Z</time>
      </trkpt>
      <trkpt lat="49.89122" lon="2.2716">
        <ele>24.4</ele>
        <time>2023-05-26T13:12:39Z</time>
      </trkpt>
      <trkpt lat="49.89122" lon="2.27161">
        <ele>24.4</ele>
        <time>2023-05-26T13:12:40Z</time>
      </trkpt>
      <trkpt lat="49.89123" lon="2.27163">
        <ele>24.4</ele>
        <time>2023-05-26T13:12:42Z</time>
      </trkpt>
      <trkpt lat="49.89124" lon="2.27164">
        <ele>24.4</ele>
        <time>2023-05-26T13:12:43Z</time>
      </trkpt>
      <trkpt lat="49.89124" lon="2.27165">
        <ele>24.4</ele>
        <time>2023-05-26T13:12:44Z</time>
      </trkpt>
      <trkpt lat="49.89125" lon="2.27167">
        <ele>24.4</ele>
        <time>2023-05-26T13:12:45Z</time>
      </trkpt>
      <trkpt lat="49.89126" lon="2.27168">
        <ele>24.4</ele>
        <time>2023-05-26T13:12:46Z</time>
      </trkpt>
      <trkpt lat="49.89126" lon="2.27168">
        <ele>24.4</ele>
        <time>2023-05-26T13:12:47Z</time>
      </trkpt>
      <trkpt lat="49.89127" lon="2.27169">
        <ele>24.4</ele>
        <time>2023-05-26T13:12:48Z</time>
      </trkpt>
      <trkpt lat="49.89127" lon="2.27171">
        <ele>24.4</ele>
        <time>2023-05-26T13:12:50Z</time>
      </trkpt>
      <trkpt lat="49.89127" lon="2.27172">
        <ele>24.4</ele>
        <time>2023-05-26T13:12:51Z</time>
      </trkpt>
      <trkpt lat="49.89128" lon="2.27173">
        <ele>24.4</ele>
        <time>2023-05-26T13:12:52Z</time>
      </trkpt>
      <trkpt lat="49.89128" lon="2.27175">
        <ele>24.4</ele>
        <time>2023-05-26T13:12:53Z</time>
      </trkpt>
      <trkpt lat="49.89129" lon="2.27176">
        <ele>24.4</ele>
        <time>2023-05-26T13:12:54Z</time>
      </trkpt>
      <trkpt lat="49.89129" lon="2.27178">
        <ele>24.4</ele>
        <time>2023-05-26T13:12:56Z</time>
      </trkpt>
      <trkpt lat="49.89129" lon="2.2718">
        <ele>24.4</ele>
        <time>2023-05-26T13:12:57Z</time>
      </trkpt>
      <trkpt lat="49.8913" lon="2.27183">
        <ele>24.4</ele>
        <time>2023-05-26T13:12:58Z</time>
      </trkpt>
      <trkpt lat="49.89131" lon="2.27184">
        <ele>24.4</ele>
        <time>2023-05-26T13:12:59Z</time>
      </trkpt>
      <trkpt lat="49.89131" lon="2.27185">
        <ele>24.4</ele>
        <time>2023-05-26T13:13:00Z</time>
      </trkpt>
      <trkpt lat="49.89132" lon="2.27188">
        <ele>24.3</ele>
        <time>2023-05-26T13:13:01Z</time>
      </trkpt>
      <trkpt lat="49.89132" lon="2.2719">
        <ele>24.3</ele>
        <time>2023-05-26T13:13:03Z</time>
      </trkpt>
      <trkpt lat="49.89132" lon="2.27191">
        <ele>24.2</ele>
        <time>2023-05-26T13:13:04Z</time>
      </trkpt>
      <trkpt lat="49.89133" lon="2.27193">
        <ele>24.2</ele>
        <time>2023-05-26T13:13:06Z</time>
      </trkpt>
      <trkpt lat="49.89133" lon="2.27194">
        <ele>24.2</ele>
        <time>2023-05-26T13:13:07Z</time>
      </trkpt>
      <trkpt lat="49.89134" lon="2.27195">
        <ele>24.2</ele>
        <time>2023-05-26T13:13:08Z</time>
      </trkpt>
      <trkpt lat="49.89134" lon="2.27196">
        <ele>24.2</ele>
        <time>2023-05-26T13:13:09Z</time>
      </trkpt>
      <trkpt lat="49.89135" lon="2.27196">
        <ele>24.2</ele>
        <time>2023-05-26T13:13:10Z</time>
      </trkpt>
      <trkpt lat="49.89136" lon="2.27197">
        <ele>24.2</ele>
        <time>2023-05-26T13:13:11Z</time>
      </trkpt>
      <trkpt lat="49.89136" lon="2.27197">
        <ele>24.2</ele>
        <time>2023-05-26T13:13:13Z</time>
      </trkpt>
      <trkpt lat="49.89137" lon="2.27196">
        <ele>24.2</ele>
        <time>2023-05-26T13:13:14Z</time>
      </trkpt>
      <trkpt lat="49.89138" lon="2.27196">
        <ele>24.2</ele>
        <time>2023-05-26T13:13:15Z</time>
      </trkpt>
      <trkpt lat="49.89139" lon="2.27195">
        <ele>24.2</ele>
        <time>2023-05-26T13:13:16Z</time>
      </trkpt>
      <trkpt lat="49.8914" lon="2.27194">
        <ele>24.2</ele>
        <time>2023-05-26T13:13:17Z</time>
      </trkpt>
      <trkpt lat="49.89141" lon="2.27191">
        <ele>24.1</ele>
        <time>2023-05-26T13:13:18Z</time>
      </trkpt>
      <trkpt lat="49.89142" lon="2.2719">
        <ele>24.1</ele>
        <time>2023-05-26T13:13:19Z</time>
      </trkpt>
      <trkpt lat="49.89143" lon="2.27189">
        <ele>24.1</ele>
        <time>2023-05-26T13:13:20Z</time>
      </trkpt>
      <trkpt lat="49.89144" lon="2.27187">
        <ele>24.1</ele>
        <time>2023-05-26T13:13:22Z</time>
      </trkpt>
      <trkpt lat="49.89144" lon="2.27185">
        <ele>24.1</ele>
        <time>2023-05-26T13:13:23Z</time>
      </trkpt>
      <trkpt lat="49.89145" lon="2.27184">
        <ele>24.1</ele>
        <time>2023-05-26T13:13:24Z</time>
      </trkpt>
      <trkpt lat="49.89146" lon="2.27183">
        <ele>24.1</ele>
        <time>2023-05-26T13:13:25Z</time>
      </trkpt>
      <trkpt lat="49.89146" lon="2.27181">
        <ele>24.1</ele>
        <time>2023-05-26T13:13:26Z</time>
      </trkpt>
      <trkpt lat="49.89147" lon="2.27181">
        <ele>24</ele>
        <time>2023-05-26T13:13:27Z</time>
      </trkpt>
      <trkpt lat="49.89149" lon="2.27178">
        <ele>24</ele>
        <time>2023-05-26T13:13:29Z</time>
      </trkpt>
      <trkpt lat="49.89149" lon="2.27177">
        <ele>24</ele>
        <time>2023-05-26T13:13:30Z</time>
      </trkpt>
      <trkpt lat="49.89149" lon="2.27176">
        <ele>24</ele>
        <time>2023-05-26T13:13:31Z</time>
      </trkpt>
      <trkpt lat="49.8915" lon="2.27174">
        <ele>24</ele>
        <time>2023-05-26T13:13:32Z</time>
      </trkpt>
      <trkpt lat="49.89151" lon="2.27172">
        <ele>24</ele>
        <time>2023-05-26T13:13:33Z</time>
      </trkpt>
      <trkpt lat="49.89153" lon="2.2717">
        <ele>24</ele>
        <time>2023-05-26T13:13:34Z</time>
      </trkpt>
      <trkpt lat="49.89154" lon="2.27169">
        <ele>24</ele>
        <time>2023-05-26T13:13:36Z</time>
      </trkpt>
      <trkpt lat="49.89154" lon="2.27168">
        <ele>23.9</ele>
        <time>2023-05-26T13:13:37Z</time>
      </trkpt>
      <trkpt lat="49.89156" lon="2.27166">
        <ele>23.9</ele>
        <time>2023-05-26T13:13:38Z</time>
      </trkpt>
      <trkpt lat="49.89157" lon="2.27165">
        <ele>23.9</ele>
        <time>2023-05-26T13:13:39Z</time>
      </trkpt>
      <trkpt lat="49.89159" lon="2.27163">
        <ele>23.9</ele>
        <time>2023-05-26T13:13:40Z</time>
      </trkpt>
      <trkpt lat="49.8916" lon="2.27161">
        <ele>23.9</ele>
        <time>2023-05-26T13:13:41Z</time>
      </trkpt>
      <trkpt lat="49.89161" lon="2.2716">
        <ele>23.9</ele>
        <time>2023-05-26T13:13:42Z</time>
      </trkpt>
      <trkpt lat="49.89163" lon="2.27158">
        <ele>23.8</ele>
        <time>2023-05-26T13:13:43Z</time>
      </trkpt>
      <trkpt lat="49.89164" lon="2.27157">
        <ele>23.8</ele>
        <time>2023-05-26T13:13:45Z</time>
      </trkpt>
      <trkpt lat="49.89165" lon="2.27156">
        <ele>23.8</ele>
        <time>2023-05-26T13:13:46Z</time>
      </trkpt>
      <trkpt lat="49.89166" lon="2.27154">
        <ele>23.8</ele>
        <time>2023-05-26T13:13:47Z</time>
      </trkpt>
      <trkpt lat="49.89167" lon="2.27153">
        <ele>23.8</ele>
        <time>2023-05-26T13:13:48Z</time>
      </trkpt>
      <trkpt lat="49.89167" lon="2.27153">
        <ele>23.8</ele>
        <time>2023-05-26T13:13:49Z</time>
      </trkpt>
      <trkpt lat="49.89168" lon="2.27152">
        <ele>23.8</ele>
        <time>2023-05-26T13:13:50Z</time>
      </trkpt>
      <trkpt lat="49.89168" lon="2.27151">
        <ele>23.8</ele>
        <time>2023-05-26T13:13:52Z</time>
      </trkpt>
      <trkpt lat="49.89169" lon="2.2715">
        <ele>23.8</ele>
        <time>2023-05-26T13:13:53Z</time>
      </trkpt>
      <trkpt lat="49.89169" lon="2.27149">
        <ele>23.8</ele>
        <time>2023-05-26T13:13:54Z</time>
      </trkpt>
      <trkpt lat="49.8917" lon="2.27148">
        <ele>23.8</ele>
        <time>2023-05-26T13:13:55Z</time>
      </trkpt>
      <trkpt lat="49.89171" lon="2.27147">
        <ele>23.7</ele>
        <time>2023-05-26T13:13:56Z</time>
      </trkpt>
      <trkpt lat="49.89172" lon="2.27147">
        <ele>23.7</ele>
        <time>2023-05-26T13:13:58Z</time>
      </trkpt>
      <trkpt lat="49.89173" lon="2.27146">
        <ele>23.7</ele>
        <time>2023-05-26T13:13:59Z</time>
      </trkpt>
      <trkpt lat="49.89173" lon="2.27144">
        <ele>23.7</ele>
        <time>2023-05-26T13:14:00Z</time>
      </trkpt>
      <trkpt lat="49.89174" lon="2.27143">
        <ele>23.7</ele>
        <time>2023-05-26T13:14:01Z</time>
      </trkpt>
      <trkpt lat="49.89175" lon="2.27142">
        <ele>23.7</ele>
        <time>2023-05-26T13:14:02Z</time>
      </trkpt>
      <trkpt lat="49.89176" lon="2.27141">
        <ele>23.7</ele>
        <time>2023-05-26T13:14:03Z</time>
      </trkpt>
      <trkpt lat="49.89176" lon="2.27139">
        <ele>23.7</ele>
        <time>2023-05-26T13:14:05Z</time>
      </trkpt>
      <trkpt lat="49.89177" lon="2.27138">
        <ele>23.7</ele>
        <time>2023-05-26T13:14:06Z</time>
      </trkpt>
      <trkpt lat="49.89178" lon="2.27138">
        <ele>23.7</ele>
        <time>2023-05-26T13:14:07Z</time>
      </trkpt>
      <trkpt lat="49.89179" lon="2.27137">
        <ele>23.7</ele>
        <time>2023-05-26T13:14:08Z</time>
      </trkpt>
      <trkpt lat="49.89179" lon="2.27136">
        <ele>23.6</ele>
        <time>2023-05-26T13:14:09Z</time>
      </trkpt>
      <trkpt lat="49.8918" lon="2.27135">
        <ele>23.6</ele>
        <time>2023-05-26T13:14:10Z</time>
      </trkpt>
      <trkpt lat="49.89181" lon="2.27134">
        <ele>23.6</ele>
        <time>2023-05-26T13:14:12Z</time>
      </trkpt>
      <trkpt lat="49.89181" lon="2.27133">
        <ele>23.6</ele>
        <time>2023-05-26T13:14:13Z</time>
      </trkpt>
      <trkpt lat="49.89182" lon="2.27132">
        <ele>23.6</ele>
        <time>2023-05-26T13:14:14Z</time>
      </trkpt>
      <trkpt lat="49.89183" lon="2.2713">
        <ele>23.6</ele>
        <time>2023-05-26T13:14:15Z</time>
      </trkpt>
      <trkpt lat="49.89184" lon="2.27129">
        <ele>23.6</ele>
        <time>2023-05-26T13:14:16Z</time>
      </trkpt>
      <trkpt lat="49.89185" lon="2.27128">
        <ele>23.6</ele>
        <time>2023-05-26T13:14:18Z</time>
      </trkpt>
      <trkpt lat="49.89186" lon="2.27128">
        <ele>23.6</ele>
        <time>2023-05-26T13:14:19Z</time>
      </trkpt>
      <trkpt lat="49.89188" lon="2.27126">
        <ele>23.5</ele>
        <time>2023-05-26T13:14:20Z</time>
      </trkpt>
      <trkpt lat="49.89188" lon="2.27125">
        <ele>23.5</ele>
        <time>2023-05-26T13:14:21Z</time>
      </trkpt>
      <trkpt lat="49.89189" lon="2.27124">
        <ele>23.5</ele>
        <time>2023-05-26T13:14:22Z</time>
      </trkpt>
      <trkpt lat="49.8919" lon="2.27122">
        <ele>23.5</ele>
        <time>2023-05-26T13:14:24Z</time>
      </trkpt>
      <trkpt lat="49.8919" lon="2.27121">
        <ele>23.5</ele>
        <time>2023-05-26T13:14:26Z</time>
      </trkpt>
      <trkpt lat="49.89191" lon="2.27119">
        <ele>23.5</ele>
        <time>2023-05-26T13:14:27Z</time>
      </trkpt>
      <trkpt lat="49.89192" lon="2.27118">
        <ele>23.5</ele>
        <time>2023-05-26T13:14:28Z</time>
      </trkpt>
      <trkpt lat="49.89192" lon="2.27117">
        <ele>23.5</ele>
        <time>2023-05-26T13:14:29Z</time>
      </trkpt>
      <trkpt lat="49.89193" lon="2.27116">
        <ele>23.5</ele>
        <time>2023-05-26T13:14:30Z</time>
      </trkpt>
      <trkpt lat="49.89195" lon="2.27115">
        <ele>23.4</ele>
        <time>2023-05-26T13:14:32Z</time>
      </trkpt>
      <trkpt lat="49.89196" lon="2.27114">
        <ele>23.4</ele>
        <time>2023-05-26T13:14:33Z</time>
      </trkpt>
      <trkpt lat="49.89197" lon="2.27113">
        <ele>23.4</ele>
        <time>2023-05-26T13:14:35Z</time>
      </trkpt>
      <trkpt lat="49.89198" lon="2.27112">
        <ele>23.4</ele>
        <time>2023-05-26T13:14:36Z</time>
      </trkpt>
      <trkpt lat="49.89199" lon="2.27111">
        <ele>23.4</ele>
        <time>2023-05-26T13:14:37Z</time>
      </trkpt>
      <trkpt lat="49.89201" lon="2.2711">
        <ele>23.4</ele>
        <time>2023-05-26T13:14:39Z</time>
      </trkpt>
      <trkpt lat="49.89202" lon="2.27109">
        <ele>23.4</ele>
        <time>2023-05-26T13:14:40Z</time>
      </trkpt>
      <trkpt lat="49.89203" lon="2.27109">
        <ele>23.4</ele>
        <time>2023-05-26T13:14:41Z</time>
      </trkpt>
      <trkpt lat="49.89206" lon="2.2711">
        <ele>23.3</ele>
        <time>2023-05-26T13:14:42Z</time>
      </trkpt>
      <trkpt lat="49.89207" lon="2.27111">
        <ele>23.3</ele>
        <time>2023-05-26T13:14:44Z</time>
      </trkpt>
      <trkpt lat="49.89209" lon="2.27111">
        <ele>23.3</ele>
        <time>2023-05-26T13:14:46Z</time>
      </trkpt>
      <trkpt lat="49.8921" lon="2.27112">
        <ele>23.3</ele>
        <time>2023-05-26T13:14:47Z</time>
      </trkpt>
      <trkpt lat="49.89211" lon="2.27113">
        <ele>23.3</ele>
        <time>2023-05-26T13:14:48Z</time>
      </trkpt>
      <trkpt lat="49.89212" lon="2.27114">
        <ele>23.3</ele>
        <time>2023-05-26T13:14:49Z</time>
      </trkpt>
      <trkpt lat="49.89214" lon="2.27116">
        <ele>23.3</ele>
        <time>2023-05-26T13:14:51Z</time>
      </trkpt>
      <trkpt lat="49.89214" lon="2.27117">
        <ele>23.2</ele>
        <time>2023-05-26T13:14:52Z</time>
      </trkpt>
      <trkpt lat="49.89215" lon="2.27118">
        <ele>23.2</ele>
        <time>2023-05-26T13:14:53Z</time>
      </trkpt>
      <trkpt lat="49.89216" lon="2.27119">
        <ele>23.2</ele>
        <time>2023-05-26T13:14:54Z</time>
      </trkpt>
      <trkpt lat="49.89217" lon="2.2712">
        <ele>23.2</ele>
        <time>2023-05-26T13:14:55Z</time>
      </trkpt>
      <trkpt lat="49.89218" lon="2.27121">
        <ele>23.2</ele>
        <time>2023-05-26T13:14:57Z</time>
      </trkpt>
      <trkpt lat="49.8922" lon="2.27122">
        <ele>23.2</ele>
        <time>2023-05-26T13:14:58Z</time>
      </trkpt>
      <trkpt lat="49.89221" lon="2.27123">
        <ele>23.2</ele>
        <time>2023-05-26T13:15:00Z</time>
      </trkpt>
      <trkpt lat="49.89221" lon="2.27124">
        <ele>23.2</ele>
        <time>2023-05-26T13:15:01Z</time>
      </trkpt>
      <trkpt lat="49.89221" lon="2.27125">
        <ele>23.2</ele>
        <time>2023-05-26T13:15:02Z</time>
      </trkpt>
      <trkpt lat="49.89221" lon="2.27127">
        <ele>23.2</ele>
        <time>2023-05-26T13:15:03Z</time>
      </trkpt>
      <trkpt lat="49.89221" lon="2.27128">
        <ele>23.1</ele>
        <time>2023-05-26T13:15:04Z</time>
      </trkpt>
      <trkpt lat="49.89221" lon="2.27129">
        <ele>23.1</ele>
        <time>2023-05-26T13:15:06Z</time>
      </trkpt>
      <trkpt lat="49.89221" lon="2.27131">
        <ele>23.1</ele>
        <time>2023-05-26T13:15:07Z</time>
      </trkpt>
      <trkpt lat="49.8922" lon="2.27133">
        <ele>23.1</ele>
        <time>2023-05-26T13:15:08Z</time>
      </trkpt>
      <trkpt lat="49.8922" lon="2.27134">
        <ele>23.1</ele>
        <time>2023-05-26T13:15:09Z</time>
      </trkpt>
      <trkpt lat="49.89219" lon="2.27136">
        <ele>23.1</ele>
        <time>2023-05-26T13:15:10Z</time>
      </trkpt>
      <trkpt lat="49.89219" lon="2.27137">
        <ele>23.1</ele>
        <time>2023-05-26T13:15:11Z</time>
      </trkpt>
      <trkpt lat="49.89218" lon="2.27139">
        <ele>23.1</ele>
        <time>2023-05-26T13:15:13Z</time>
      </trkpt>
      <trkpt lat="49.89219" lon="2.27141">
        <ele>23.1</ele>
        <time>2023-05-26T13:15:14Z</time>
      </trkpt>
      <trkpt lat="49.89221" lon="2.27141">
        <ele>23</ele>
        <time>2023-05-26T13:15:15Z</time>
      </trkpt>
      <trkpt lat="49.89222" lon="2.27142">
        <ele>23</ele>
        <time>2023-05-26T13:15:17Z</time>
      </trkpt>
      <trkpt lat="49.89224" lon="2.27142">
        <ele>23</ele>
        <time>2023-05-26T13:15:18Z</time>
      </trkpt>
      <trkpt lat="49.89226" lon="2.27141">
        <ele>23</ele>
        <time>2023-05-26T13:15:19Z</time>
      </trkpt>
      <trkpt lat="49.89227" lon="2.27142">
        <ele>23</ele>
        <time>2023-05-26T13:15:21Z</time>
      </trkpt>
    </trkseg>
  </trk>
</gpx>